<?xml version="1.0" encoding="UTF-8" standalone="no" ?>
<gpx xmlns="http://www.topografix.com/GPX/1/1" xmlns:xsi="http://www.w3.org/2001/XMLSchema-instance" xsi:schemaLocation="http://www.topografix.com/GPX/1/1 http://www.topografix.com/GPX/1/1/gpx.xsd" version="1.1" creator="VisuGPX - https://www.visugpx.com">
  <metadata>
    <name>trace sur orgueil</name>
    <desc><![CDATA[trace sur orgueil avec le club vtt des rochers]]></desc>
  </metadata>
  <trk>
    <name><![CDATA[06-FEV-16 17:38:35]]></name>
    <trkseg>
      <trkpt lat="44.47209" lon="0.93422">
        <ele>68.87</ele>
        <time>2016-02-06T13:04:22Z</time>
      </trkpt>
      <trkpt lat="44.47209" lon="0.93422">
        <ele>68.87</ele>
        <time>2016-02-06T13:04:55Z</time>
      </trkpt>
      <trkpt lat="44.47209" lon="0.93421">
        <ele>68.39</ele>
        <time>2016-02-06T13:05:33Z</time>
      </trkpt>
      <trkpt lat="44.4721" lon="0.93422">
        <ele>66.95</ele>
        <time>2016-02-06T13:06:03Z</time>
      </trkpt>
      <trkpt lat="44.47209" lon="0.93422">
        <ele>66.95</ele>
        <time>2016-02-06T13:06:35Z</time>
      </trkpt>
      <trkpt lat="44.47208" lon="0.93423">
        <ele>66.47</ele>
        <time>2016-02-06T13:07:09Z</time>
      </trkpt>
      <trkpt lat="44.47208" lon="0.93422">
        <ele>66.47</ele>
        <time>2016-02-06T13:07:40Z</time>
      </trkpt>
      <trkpt lat="44.47208" lon="0.93421">
        <ele>67.43</ele>
        <time>2016-02-06T13:08:08Z</time>
      </trkpt>
      <trkpt lat="44.47207" lon="0.93423">
        <ele>67.91</ele>
        <time>2016-02-06T13:08:37Z</time>
      </trkpt>
      <trkpt lat="44.47207" lon="0.93423">
        <ele>66.95</ele>
        <time>2016-02-06T13:09:18Z</time>
      </trkpt>
      <trkpt lat="44.47207" lon="0.93423">
        <ele>67.91</ele>
        <time>2016-02-06T13:09:58Z</time>
      </trkpt>
      <trkpt lat="44.47208" lon="0.93424">
        <ele>68.39</ele>
        <time>2016-02-06T13:10:32Z</time>
      </trkpt>
      <trkpt lat="44.47207" lon="0.93424">
        <ele>67.91</ele>
        <time>2016-02-06T13:11:06Z</time>
      </trkpt>
      <trkpt lat="44.47207" lon="0.93423">
        <ele>67.91</ele>
        <time>2016-02-06T13:11:24Z</time>
      </trkpt>
      <trkpt lat="44.47208" lon="0.93419">
        <ele>67.43</ele>
        <time>2016-02-06T13:11:40Z</time>
      </trkpt>
      <trkpt lat="44.47209" lon="0.9342">
        <ele>66.95</ele>
        <time>2016-02-06T13:11:54Z</time>
      </trkpt>
      <trkpt lat="44.47209" lon="0.9342">
        <ele>66.95</ele>
        <time>2016-02-06T13:12:13Z</time>
      </trkpt>
      <trkpt lat="44.47208" lon="0.93422">
        <ele>66.95</ele>
        <time>2016-02-06T13:12:28Z</time>
      </trkpt>
      <trkpt lat="44.47207" lon="0.93422">
        <ele>66.95</ele>
        <time>2016-02-06T13:12:48Z</time>
      </trkpt>
      <trkpt lat="44.47208" lon="0.93421">
        <ele>66.95</ele>
        <time>2016-02-06T13:13:21Z</time>
      </trkpt>
      <trkpt lat="44.47208" lon="0.93421">
        <ele>66.95</ele>
        <time>2016-02-06T13:13:42Z</time>
      </trkpt>
      <trkpt lat="44.47207" lon="0.93422">
        <ele>67.91</ele>
        <time>2016-02-06T13:14:14Z</time>
      </trkpt>
      <trkpt lat="44.47208" lon="0.93423">
        <ele>66.95</ele>
        <time>2016-02-06T13:14:37Z</time>
      </trkpt>
      <trkpt lat="44.47208" lon="0.93423">
        <ele>66.95</ele>
        <time>2016-02-06T13:14:46Z</time>
      </trkpt>
      <trkpt lat="44.47204" lon="0.93422">
        <ele>66.95</ele>
        <time>2016-02-06T13:14:49Z</time>
      </trkpt>
      <trkpt lat="44.47197" lon="0.93433">
        <ele>67.43</ele>
        <time>2016-02-06T13:14:59Z</time>
      </trkpt>
      <trkpt lat="44.47196" lon="0.93432">
        <ele>67.43</ele>
        <time>2016-02-06T13:15:13Z</time>
      </trkpt>
      <trkpt lat="44.47195" lon="0.93432">
        <ele>66.47</ele>
        <time>2016-02-06T13:15:30Z</time>
      </trkpt>
      <trkpt lat="44.47195" lon="0.93432">
        <ele>66.47</ele>
        <time>2016-02-06T13:15:52Z</time>
      </trkpt>
      <trkpt lat="44.47195" lon="0.93433">
        <ele>65.99</ele>
        <time>2016-02-06T13:16:18Z</time>
      </trkpt>
      <trkpt lat="44.47195" lon="0.93433">
        <ele>66.47</ele>
        <time>2016-02-06T13:16:47Z</time>
      </trkpt>
      <trkpt lat="44.47195" lon="0.93433">
        <ele>66.47</ele>
        <time>2016-02-06T13:17:14Z</time>
      </trkpt>
      <trkpt lat="44.47195" lon="0.93433">
        <ele>65.99</ele>
        <time>2016-02-06T13:17:37Z</time>
      </trkpt>
      <trkpt lat="44.47195" lon="0.93432">
        <ele>65.99</ele>
        <time>2016-02-06T13:18:00Z</time>
      </trkpt>
      <trkpt lat="44.47195" lon="0.93432">
        <ele>66.47</ele>
        <time>2016-02-06T13:18:30Z</time>
      </trkpt>
      <trkpt lat="44.47194" lon="0.93433">
        <ele>66.47</ele>
        <time>2016-02-06T13:18:38Z</time>
      </trkpt>
      <trkpt lat="44.47195" lon="0.93448">
        <ele>65.99</ele>
        <time>2016-02-06T13:18:46Z</time>
      </trkpt>
      <trkpt lat="44.47196" lon="0.93451">
        <ele>65.99</ele>
        <time>2016-02-06T13:18:47Z</time>
      </trkpt>
      <trkpt lat="44.47198" lon="0.93453">
        <ele>65.99</ele>
        <time>2016-02-06T13:18:48Z</time>
      </trkpt>
      <trkpt lat="44.472" lon="0.93455">
        <ele>65.99</ele>
        <time>2016-02-06T13:18:49Z</time>
      </trkpt>
      <trkpt lat="44.47221" lon="0.93489">
        <ele>66.95</ele>
        <time>2016-02-06T13:19:02Z</time>
      </trkpt>
      <trkpt lat="44.47227" lon="0.93545">
        <ele>65.51</ele>
        <time>2016-02-06T13:19:14Z</time>
      </trkpt>
      <trkpt lat="44.47226" lon="0.93563">
        <ele>65.99</ele>
        <time>2016-02-06T13:19:18Z</time>
      </trkpt>
      <trkpt lat="44.47256" lon="0.93627">
        <ele>65.03</ele>
        <time>2016-02-06T13:19:33Z</time>
      </trkpt>
      <trkpt lat="44.47278" lon="0.93652">
        <ele>65.51</ele>
        <time>2016-02-06T13:19:41Z</time>
      </trkpt>
      <trkpt lat="44.47279" lon="0.93656">
        <ele>65.51</ele>
        <time>2016-02-06T13:19:42Z</time>
      </trkpt>
      <trkpt lat="44.47294" lon="0.93691">
        <ele>65.51</ele>
        <time>2016-02-06T13:19:51Z</time>
      </trkpt>
      <trkpt lat="44.47315" lon="0.93735">
        <ele>66.47</ele>
        <time>2016-02-06T13:20:01Z</time>
      </trkpt>
      <trkpt lat="44.47339" lon="0.93786">
        <ele>66.47</ele>
        <time>2016-02-06T13:20:12Z</time>
      </trkpt>
      <trkpt lat="44.47353" lon="0.93823">
        <ele>64.55</ele>
        <time>2016-02-06T13:20:21Z</time>
      </trkpt>
      <trkpt lat="44.47374" lon="0.93877">
        <ele>65.03</ele>
        <time>2016-02-06T13:20:32Z</time>
      </trkpt>
      <trkpt lat="44.47385" lon="0.93923">
        <ele>67.43</ele>
        <time>2016-02-06T13:20:43Z</time>
      </trkpt>
      <trkpt lat="44.47394" lon="0.93949">
        <ele>69.83</ele>
        <time>2016-02-06T13:20:52Z</time>
      </trkpt>
      <trkpt lat="44.47393" lon="0.93958">
        <ele>66.95</ele>
        <time>2016-02-06T13:21:02Z</time>
      </trkpt>
      <trkpt lat="44.4739" lon="0.93962">
        <ele>67.43</ele>
        <time>2016-02-06T13:21:14Z</time>
      </trkpt>
      <trkpt lat="44.47388" lon="0.93963">
        <ele>67.43</ele>
        <time>2016-02-06T13:21:16Z</time>
      </trkpt>
      <trkpt lat="44.47386" lon="0.93964">
        <ele>67.43</ele>
        <time>2016-02-06T13:21:17Z</time>
      </trkpt>
      <trkpt lat="44.47353" lon="0.93989">
        <ele>65.99</ele>
        <time>2016-02-06T13:21:28Z</time>
      </trkpt>
      <trkpt lat="44.47339" lon="0.94001">
        <ele>67.91</ele>
        <time>2016-02-06T13:21:37Z</time>
      </trkpt>
      <trkpt lat="44.47339" lon="0.94001">
        <ele>67.91</ele>
        <time>2016-02-06T13:21:41Z</time>
      </trkpt>
      <trkpt lat="44.47339" lon="0.94003">
        <ele>67.43</ele>
        <time>2016-02-06T13:21:42Z</time>
      </trkpt>
      <trkpt lat="44.47347" lon="0.94028">
        <ele>66.95</ele>
        <time>2016-02-06T13:21:48Z</time>
      </trkpt>
      <trkpt lat="44.47363" lon="0.94055">
        <ele>65.99</ele>
        <time>2016-02-06T13:21:53Z</time>
      </trkpt>
      <trkpt lat="44.47366" lon="0.94062">
        <ele>65.51</ele>
        <time>2016-02-06T13:21:54Z</time>
      </trkpt>
      <trkpt lat="44.4737" lon="0.94068">
        <ele>65.51</ele>
        <time>2016-02-06T13:21:55Z</time>
      </trkpt>
      <trkpt lat="44.47374" lon="0.94075">
        <ele>65.03</ele>
        <time>2016-02-06T13:21:56Z</time>
      </trkpt>
      <trkpt lat="44.47377" lon="0.94081">
        <ele>65.03</ele>
        <time>2016-02-06T13:21:57Z</time>
      </trkpt>
      <trkpt lat="44.47424" lon="0.94163">
        <ele>63.58</ele>
        <time>2016-02-06T13:22:10Z</time>
      </trkpt>
      <trkpt lat="44.47425" lon="0.94169">
        <ele>64.07</ele>
        <time>2016-02-06T13:22:11Z</time>
      </trkpt>
      <trkpt lat="44.47424" lon="0.94174">
        <ele>64.07</ele>
        <time>2016-02-06T13:22:12Z</time>
      </trkpt>
      <trkpt lat="44.47422" lon="0.94178">
        <ele>64.07</ele>
        <time>2016-02-06T13:22:13Z</time>
      </trkpt>
      <trkpt lat="44.4742" lon="0.94183">
        <ele>64.55</ele>
        <time>2016-02-06T13:22:14Z</time>
      </trkpt>
      <trkpt lat="44.47418" lon="0.94186">
        <ele>64.55</ele>
        <time>2016-02-06T13:22:15Z</time>
      </trkpt>
      <trkpt lat="44.47414" lon="0.94189">
        <ele>64.55</ele>
        <time>2016-02-06T13:22:16Z</time>
      </trkpt>
      <trkpt lat="44.4741" lon="0.94191">
        <ele>64.55</ele>
        <time>2016-02-06T13:22:17Z</time>
      </trkpt>
      <trkpt lat="44.47406" lon="0.94193">
        <ele>64.55</ele>
        <time>2016-02-06T13:22:18Z</time>
      </trkpt>
      <trkpt lat="44.47403" lon="0.94195">
        <ele>65.03</ele>
        <time>2016-02-06T13:22:19Z</time>
      </trkpt>
      <trkpt lat="44.47392" lon="0.94202">
        <ele>65.51</ele>
        <time>2016-02-06T13:22:22Z</time>
      </trkpt>
      <trkpt lat="44.47339" lon="0.94237">
        <ele>66.47</ele>
        <time>2016-02-06T13:22:37Z</time>
      </trkpt>
      <trkpt lat="44.47267" lon="0.94298">
        <ele>68.87</ele>
        <time>2016-02-06T13:22:58Z</time>
      </trkpt>
      <trkpt lat="44.47192" lon="0.9436">
        <ele>69.35</ele>
        <time>2016-02-06T13:23:19Z</time>
      </trkpt>
      <trkpt lat="44.47188" lon="0.94363">
        <ele>69.35</ele>
        <time>2016-02-06T13:23:20Z</time>
      </trkpt>
      <trkpt lat="44.47174" lon="0.94376">
        <ele>68.87</ele>
        <time>2016-02-06T13:23:24Z</time>
      </trkpt>
      <trkpt lat="44.4717" lon="0.94379">
        <ele>68.87</ele>
        <time>2016-02-06T13:23:25Z</time>
      </trkpt>
      <trkpt lat="44.47167" lon="0.94382">
        <ele>68.87</ele>
        <time>2016-02-06T13:23:26Z</time>
      </trkpt>
      <trkpt lat="44.47142" lon="0.94405">
        <ele>69.35</ele>
        <time>2016-02-06T13:23:33Z</time>
      </trkpt>
      <trkpt lat="44.47072" lon="0.9447">
        <ele>69.35</ele>
        <time>2016-02-06T13:23:52Z</time>
      </trkpt>
      <trkpt lat="44.47028" lon="0.94519">
        <ele>69.83</ele>
        <time>2016-02-06T13:24:05Z</time>
      </trkpt>
      <trkpt lat="44.47008" lon="0.9456">
        <ele>71.27</ele>
        <time>2016-02-06T13:24:13Z</time>
      </trkpt>
      <trkpt lat="44.47" lon="0.94589">
        <ele>71.27</ele>
        <time>2016-02-06T13:24:18Z</time>
      </trkpt>
      <trkpt lat="44.46992" lon="0.94626">
        <ele>71.27</ele>
        <time>2016-02-06T13:24:24Z</time>
      </trkpt>
      <trkpt lat="44.46991" lon="0.94631">
        <ele>71.27</ele>
        <time>2016-02-06T13:24:25Z</time>
      </trkpt>
      <trkpt lat="44.46985" lon="0.94649">
        <ele>71.27</ele>
        <time>2016-02-06T13:24:28Z</time>
      </trkpt>
      <trkpt lat="44.46975" lon="0.94669">
        <ele>71.76</ele>
        <time>2016-02-06T13:24:32Z</time>
      </trkpt>
      <trkpt lat="44.4692" lon="0.94757">
        <ele>72.72</ele>
        <time>2016-02-06T13:24:51Z</time>
      </trkpt>
      <trkpt lat="44.46912" lon="0.94771">
        <ele>73.2</ele>
        <time>2016-02-06T13:24:54Z</time>
      </trkpt>
      <trkpt lat="44.46889" lon="0.9484">
        <ele>75.12</ele>
        <time>2016-02-06T13:25:07Z</time>
      </trkpt>
      <trkpt lat="44.46868" lon="0.94922">
        <ele>77.04</ele>
        <time>2016-02-06T13:25:23Z</time>
      </trkpt>
      <trkpt lat="44.46836" lon="0.9498">
        <ele>79.45</ele>
        <time>2016-02-06T13:25:37Z</time>
      </trkpt>
      <trkpt lat="44.46821" lon="0.94998">
        <ele>81.37</ele>
        <time>2016-02-06T13:25:45Z</time>
      </trkpt>
      <trkpt lat="44.46819" lon="0.94999">
        <ele>81.37</ele>
        <time>2016-02-06T13:25:46Z</time>
      </trkpt>
      <trkpt lat="44.46778" lon="0.95015">
        <ele>82.81</ele>
        <time>2016-02-06T13:25:59Z</time>
      </trkpt>
      <trkpt lat="44.4672" lon="0.95039">
        <ele>83.77</ele>
        <time>2016-02-06T13:26:15Z</time>
      </trkpt>
      <trkpt lat="44.46693" lon="0.95052">
        <ele>83.77</ele>
        <time>2016-02-06T13:26:28Z</time>
      </trkpt>
      <trkpt lat="44.46692" lon="0.95052">
        <ele>83.29</ele>
        <time>2016-02-06T13:26:41Z</time>
      </trkpt>
      <trkpt lat="44.46691" lon="0.95055">
        <ele>83.29</ele>
        <time>2016-02-06T13:26:42Z</time>
      </trkpt>
      <trkpt lat="44.46691" lon="0.95058">
        <ele>83.29</ele>
        <time>2016-02-06T13:26:43Z</time>
      </trkpt>
      <trkpt lat="44.467" lon="0.9511">
        <ele>83.29</ele>
        <time>2016-02-06T13:26:54Z</time>
      </trkpt>
      <trkpt lat="44.46718" lon="0.95191">
        <ele>89.06</ele>
        <time>2016-02-06T13:27:10Z</time>
      </trkpt>
      <trkpt lat="44.46732" lon="0.95254">
        <ele>93.87</ele>
        <time>2016-02-06T13:27:24Z</time>
      </trkpt>
      <trkpt lat="44.46753" lon="0.95347">
        <ele>96.27</ele>
        <time>2016-02-06T13:27:43Z</time>
      </trkpt>
      <trkpt lat="44.46765" lon="0.95413">
        <ele>96.27</ele>
        <time>2016-02-06T13:27:58Z</time>
      </trkpt>
      <trkpt lat="44.46772" lon="0.95492">
        <ele>96.75</ele>
        <time>2016-02-06T13:28:12Z</time>
      </trkpt>
      <trkpt lat="44.46772" lon="0.95498">
        <ele>96.75</ele>
        <time>2016-02-06T13:28:13Z</time>
      </trkpt>
      <trkpt lat="44.4678" lon="0.95597">
        <ele>96.27</ele>
        <time>2016-02-06T13:28:32Z</time>
      </trkpt>
      <trkpt lat="44.46778" lon="0.956">
        <ele>95.79</ele>
        <time>2016-02-06T13:28:33Z</time>
      </trkpt>
      <trkpt lat="44.46764" lon="0.95604">
        <ele>96.75</ele>
        <time>2016-02-06T13:28:38Z</time>
      </trkpt>
      <trkpt lat="44.4672" lon="0.95618">
        <ele>98.19</ele>
        <time>2016-02-06T13:28:54Z</time>
      </trkpt>
      <trkpt lat="44.46692" lon="0.95647">
        <ele>98.67</ele>
        <time>2016-02-06T13:29:06Z</time>
      </trkpt>
      <trkpt lat="44.46655" lon="0.95711">
        <ele>99.63</ele>
        <time>2016-02-06T13:29:24Z</time>
      </trkpt>
      <trkpt lat="44.46631" lon="0.95756">
        <ele>101.56</ele>
        <time>2016-02-06T13:29:38Z</time>
      </trkpt>
      <trkpt lat="44.46631" lon="0.9576">
        <ele>102.04</ele>
        <time>2016-02-06T13:29:39Z</time>
      </trkpt>
      <trkpt lat="44.46632" lon="0.95762">
        <ele>102.04</ele>
        <time>2016-02-06T13:29:40Z</time>
      </trkpt>
      <trkpt lat="44.46632" lon="0.95764">
        <ele>102.52</ele>
        <time>2016-02-06T13:29:41Z</time>
      </trkpt>
      <trkpt lat="44.46632" lon="0.95765">
        <ele>102.52</ele>
        <time>2016-02-06T13:29:42Z</time>
      </trkpt>
      <trkpt lat="44.46633" lon="0.95766">
        <ele>102.52</ele>
        <time>2016-02-06T13:29:43Z</time>
      </trkpt>
      <trkpt lat="44.46634" lon="0.95767">
        <ele>102.52</ele>
        <time>2016-02-06T13:29:44Z</time>
      </trkpt>
      <trkpt lat="44.46635" lon="0.95768">
        <ele>102.52</ele>
        <time>2016-02-06T13:29:45Z</time>
      </trkpt>
      <trkpt lat="44.46637" lon="0.95769">
        <ele>102.52</ele>
        <time>2016-02-06T13:29:46Z</time>
      </trkpt>
      <trkpt lat="44.46638" lon="0.9577">
        <ele>102.52</ele>
        <time>2016-02-06T13:29:47Z</time>
      </trkpt>
      <trkpt lat="44.4664" lon="0.95771">
        <ele>102.04</ele>
        <time>2016-02-06T13:29:48Z</time>
      </trkpt>
      <trkpt lat="44.46642" lon="0.95771">
        <ele>102.04</ele>
        <time>2016-02-06T13:29:49Z</time>
      </trkpt>
      <trkpt lat="44.46647" lon="0.95773">
        <ele>102.04</ele>
        <time>2016-02-06T13:29:52Z</time>
      </trkpt>
      <trkpt lat="44.46648" lon="0.95775">
        <ele>102.04</ele>
        <time>2016-02-06T13:29:53Z</time>
      </trkpt>
      <trkpt lat="44.4665" lon="0.95777">
        <ele>101.56</ele>
        <time>2016-02-06T13:29:54Z</time>
      </trkpt>
      <trkpt lat="44.46651" lon="0.95779">
        <ele>101.56</ele>
        <time>2016-02-06T13:29:55Z</time>
      </trkpt>
      <trkpt lat="44.46653" lon="0.9578">
        <ele>101.56</ele>
        <time>2016-02-06T13:29:56Z</time>
      </trkpt>
      <trkpt lat="44.46655" lon="0.95781">
        <ele>101.56</ele>
        <time>2016-02-06T13:29:57Z</time>
      </trkpt>
      <trkpt lat="44.46657" lon="0.95783">
        <ele>101.56</ele>
        <time>2016-02-06T13:29:58Z</time>
      </trkpt>
      <trkpt lat="44.46658" lon="0.95785">
        <ele>101.56</ele>
        <time>2016-02-06T13:29:59Z</time>
      </trkpt>
      <trkpt lat="44.4666" lon="0.95787">
        <ele>101.56</ele>
        <time>2016-02-06T13:30:00Z</time>
      </trkpt>
      <trkpt lat="44.46689" lon="0.95819">
        <ele>100.6</ele>
        <time>2016-02-06T13:30:14Z</time>
      </trkpt>
      <trkpt lat="44.46725" lon="0.95858">
        <ele>100.11</ele>
        <time>2016-02-06T13:30:28Z</time>
      </trkpt>
      <trkpt lat="44.46759" lon="0.95894">
        <ele>99.63</ele>
        <time>2016-02-06T13:30:40Z</time>
      </trkpt>
      <trkpt lat="44.4677" lon="0.9591">
        <ele>98.67</ele>
        <time>2016-02-06T13:30:50Z</time>
      </trkpt>
      <trkpt lat="44.46771" lon="0.9591">
        <ele>98.67</ele>
        <time>2016-02-06T13:30:51Z</time>
      </trkpt>
      <trkpt lat="44.4677" lon="0.95912">
        <ele>98.67</ele>
        <time>2016-02-06T13:30:52Z</time>
      </trkpt>
      <trkpt lat="44.46769" lon="0.95915">
        <ele>98.67</ele>
        <time>2016-02-06T13:30:53Z</time>
      </trkpt>
      <trkpt lat="44.46768" lon="0.95917">
        <ele>98.67</ele>
        <time>2016-02-06T13:30:54Z</time>
      </trkpt>
      <trkpt lat="44.46766" lon="0.9592">
        <ele>98.67</ele>
        <time>2016-02-06T13:30:55Z</time>
      </trkpt>
      <trkpt lat="44.46764" lon="0.95923">
        <ele>99.15</ele>
        <time>2016-02-06T13:30:56Z</time>
      </trkpt>
      <trkpt lat="44.46761" lon="0.95927">
        <ele>99.15</ele>
        <time>2016-02-06T13:30:57Z</time>
      </trkpt>
      <trkpt lat="44.46759" lon="0.9593">
        <ele>99.15</ele>
        <time>2016-02-06T13:30:58Z</time>
      </trkpt>
      <trkpt lat="44.46757" lon="0.95934">
        <ele>99.15</ele>
        <time>2016-02-06T13:30:59Z</time>
      </trkpt>
      <trkpt lat="44.4672" lon="0.95981">
        <ele>98.67</ele>
        <time>2016-02-06T13:31:12Z</time>
      </trkpt>
      <trkpt lat="44.46671" lon="0.96042">
        <ele>98.67</ele>
        <time>2016-02-06T13:31:28Z</time>
      </trkpt>
      <trkpt lat="44.46616" lon="0.96108">
        <ele>101.08</ele>
        <time>2016-02-06T13:31:46Z</time>
      </trkpt>
      <trkpt lat="44.46563" lon="0.96163">
        <ele>103.48</ele>
        <time>2016-02-06T13:32:03Z</time>
      </trkpt>
      <trkpt lat="44.46562" lon="0.96169">
        <ele>103.48</ele>
        <time>2016-02-06T13:32:04Z</time>
      </trkpt>
      <trkpt lat="44.46563" lon="0.96174">
        <ele>103.48</ele>
        <time>2016-02-06T13:32:05Z</time>
      </trkpt>
      <trkpt lat="44.46565" lon="0.96179">
        <ele>103.48</ele>
        <time>2016-02-06T13:32:06Z</time>
      </trkpt>
      <trkpt lat="44.46568" lon="0.96184">
        <ele>103.48</ele>
        <time>2016-02-06T13:32:07Z</time>
      </trkpt>
      <trkpt lat="44.4657" lon="0.96188">
        <ele>103.48</ele>
        <time>2016-02-06T13:32:08Z</time>
      </trkpt>
      <trkpt lat="44.46611" lon="0.96269">
        <ele>104.92</ele>
        <time>2016-02-06T13:32:25Z</time>
      </trkpt>
      <trkpt lat="44.46606" lon="0.96315">
        <ele>106.84</ele>
        <time>2016-02-06T13:32:35Z</time>
      </trkpt>
      <trkpt lat="44.4659" lon="0.96354">
        <ele>107.32</ele>
        <time>2016-02-06T13:32:48Z</time>
      </trkpt>
      <trkpt lat="44.46591" lon="0.96354">
        <ele>107.32</ele>
        <time>2016-02-06T13:32:49Z</time>
      </trkpt>
      <trkpt lat="44.4659" lon="0.96356">
        <ele>107.81</ele>
        <time>2016-02-06T13:32:50Z</time>
      </trkpt>
      <trkpt lat="44.46589" lon="0.96359">
        <ele>108.29</ele>
        <time>2016-02-06T13:32:51Z</time>
      </trkpt>
      <trkpt lat="44.46589" lon="0.96362">
        <ele>108.77</ele>
        <time>2016-02-06T13:32:52Z</time>
      </trkpt>
      <trkpt lat="44.46588" lon="0.96365">
        <ele>109.25</ele>
        <time>2016-02-06T13:32:53Z</time>
      </trkpt>
      <trkpt lat="44.46586" lon="0.96369">
        <ele>109.73</ele>
        <time>2016-02-06T13:32:54Z</time>
      </trkpt>
      <trkpt lat="44.46585" lon="0.96372">
        <ele>110.69</ele>
        <time>2016-02-06T13:32:55Z</time>
      </trkpt>
      <trkpt lat="44.4657" lon="0.96408">
        <ele>118.86</ele>
        <time>2016-02-06T13:33:06Z</time>
      </trkpt>
      <trkpt lat="44.46553" lon="0.96448">
        <ele>121.74</ele>
        <time>2016-02-06T13:33:17Z</time>
      </trkpt>
      <trkpt lat="44.46534" lon="0.96487">
        <ele>125.11</ele>
        <time>2016-02-06T13:33:28Z</time>
      </trkpt>
      <trkpt lat="44.46511" lon="0.96518">
        <ele>131.36</ele>
        <time>2016-02-06T13:33:38Z</time>
      </trkpt>
      <trkpt lat="44.46495" lon="0.96543">
        <ele>133.28</ele>
        <time>2016-02-06T13:33:45Z</time>
      </trkpt>
      <trkpt lat="44.46494" lon="0.96546">
        <ele>133.76</ele>
        <time>2016-02-06T13:33:46Z</time>
      </trkpt>
      <trkpt lat="44.46482" lon="0.96588">
        <ele>141.93</ele>
        <time>2016-02-06T13:33:58Z</time>
      </trkpt>
      <trkpt lat="44.46482" lon="0.9663">
        <ele>152.51</ele>
        <time>2016-02-06T13:34:09Z</time>
      </trkpt>
      <trkpt lat="44.46478" lon="0.96645">
        <ele>152.51</ele>
        <time>2016-02-06T13:34:12Z</time>
      </trkpt>
      <trkpt lat="44.46478" lon="0.96649">
        <ele>152.51</ele>
        <time>2016-02-06T13:34:13Z</time>
      </trkpt>
      <trkpt lat="44.46478" lon="0.96653">
        <ele>152.99</ele>
        <time>2016-02-06T13:34:14Z</time>
      </trkpt>
      <trkpt lat="44.46477" lon="0.96658">
        <ele>152.99</ele>
        <time>2016-02-06T13:34:15Z</time>
      </trkpt>
      <trkpt lat="44.46477" lon="0.96661">
        <ele>153.47</ele>
        <time>2016-02-06T13:34:16Z</time>
      </trkpt>
      <trkpt lat="44.46475" lon="0.96666">
        <ele>153.47</ele>
        <time>2016-02-06T13:34:17Z</time>
      </trkpt>
      <trkpt lat="44.46472" lon="0.96672">
        <ele>153.47</ele>
        <time>2016-02-06T13:34:18Z</time>
      </trkpt>
      <trkpt lat="44.46469" lon="0.96677">
        <ele>153.47</ele>
        <time>2016-02-06T13:34:19Z</time>
      </trkpt>
      <trkpt lat="44.46464" lon="0.9669">
        <ele>153.95</ele>
        <time>2016-02-06T13:34:22Z</time>
      </trkpt>
      <trkpt lat="44.46458" lon="0.96738">
        <ele>153.95</ele>
        <time>2016-02-06T13:34:33Z</time>
      </trkpt>
      <trkpt lat="44.46447" lon="0.96781">
        <ele>154.91</ele>
        <time>2016-02-06T13:34:41Z</time>
      </trkpt>
      <trkpt lat="44.46438" lon="0.96839">
        <ele>156.35</ele>
        <time>2016-02-06T13:34:52Z</time>
      </trkpt>
      <trkpt lat="44.4644" lon="0.96843">
        <ele>156.35</ele>
        <time>2016-02-06T13:34:53Z</time>
      </trkpt>
      <trkpt lat="44.4644" lon="0.96849">
        <ele>156.35</ele>
        <time>2016-02-06T13:34:54Z</time>
      </trkpt>
      <trkpt lat="44.46441" lon="0.96853">
        <ele>156.35</ele>
        <time>2016-02-06T13:34:55Z</time>
      </trkpt>
      <trkpt lat="44.4644" lon="0.9686">
        <ele>155.87</ele>
        <time>2016-02-06T13:34:56Z</time>
      </trkpt>
      <trkpt lat="44.46441" lon="0.96916">
        <ele>154.43</ele>
        <time>2016-02-06T13:35:07Z</time>
      </trkpt>
      <trkpt lat="44.46434" lon="0.96963">
        <ele>151.06</ele>
        <time>2016-02-06T13:35:17Z</time>
      </trkpt>
      <trkpt lat="44.46431" lon="0.96966">
        <ele>150.1</ele>
        <time>2016-02-06T13:35:18Z</time>
      </trkpt>
      <trkpt lat="44.46428" lon="0.96968">
        <ele>150.1</ele>
        <time>2016-02-06T13:35:19Z</time>
      </trkpt>
      <trkpt lat="44.46425" lon="0.9697">
        <ele>149.62</ele>
        <time>2016-02-06T13:35:20Z</time>
      </trkpt>
      <trkpt lat="44.46422" lon="0.96973">
        <ele>149.62</ele>
        <time>2016-02-06T13:35:21Z</time>
      </trkpt>
      <trkpt lat="44.46418" lon="0.96976">
        <ele>149.14</ele>
        <time>2016-02-06T13:35:22Z</time>
      </trkpt>
      <trkpt lat="44.46415" lon="0.96978">
        <ele>148.66</ele>
        <time>2016-02-06T13:35:23Z</time>
      </trkpt>
      <trkpt lat="44.46411" lon="0.96979">
        <ele>148.18</ele>
        <time>2016-02-06T13:35:24Z</time>
      </trkpt>
      <trkpt lat="44.46408" lon="0.96981">
        <ele>148.18</ele>
        <time>2016-02-06T13:35:25Z</time>
      </trkpt>
      <trkpt lat="44.46405" lon="0.96982">
        <ele>147.7</ele>
        <time>2016-02-06T13:35:26Z</time>
      </trkpt>
      <trkpt lat="44.46402" lon="0.96983">
        <ele>147.7</ele>
        <time>2016-02-06T13:35:27Z</time>
      </trkpt>
      <trkpt lat="44.46398" lon="0.96983">
        <ele>146.26</ele>
        <time>2016-02-06T13:35:28Z</time>
      </trkpt>
      <trkpt lat="44.46395" lon="0.96982">
        <ele>145.78</ele>
        <time>2016-02-06T13:35:29Z</time>
      </trkpt>
      <trkpt lat="44.46368" lon="0.96969">
        <ele>140.49</ele>
        <time>2016-02-06T13:35:40Z</time>
      </trkpt>
      <trkpt lat="44.46366" lon="0.96968">
        <ele>140.01</ele>
        <time>2016-02-06T13:35:53Z</time>
      </trkpt>
      <trkpt lat="44.4636" lon="0.96966">
        <ele>140.49</ele>
        <time>2016-02-06T13:35:57Z</time>
      </trkpt>
      <trkpt lat="44.46331" lon="0.96947">
        <ele>138.09</ele>
        <time>2016-02-06T13:36:08Z</time>
      </trkpt>
      <trkpt lat="44.46314" lon="0.9694">
        <ele>137.61</ele>
        <time>2016-02-06T13:36:13Z</time>
      </trkpt>
      <trkpt lat="44.463" lon="0.96937">
        <ele>139.53</ele>
        <time>2016-02-06T13:36:20Z</time>
      </trkpt>
      <trkpt lat="44.4629" lon="0.96936">
        <ele>141.93</ele>
        <time>2016-02-06T13:36:24Z</time>
      </trkpt>
      <trkpt lat="44.46267" lon="0.9693">
        <ele>145.78</ele>
        <time>2016-02-06T13:36:32Z</time>
      </trkpt>
      <trkpt lat="44.46248" lon="0.96932">
        <ele>146.26</ele>
        <time>2016-02-06T13:36:40Z</time>
      </trkpt>
      <trkpt lat="44.46234" lon="0.9694">
        <ele>146.74</ele>
        <time>2016-02-06T13:36:46Z</time>
      </trkpt>
      <trkpt lat="44.46228" lon="0.96943">
        <ele>146.26</ele>
        <time>2016-02-06T13:36:49Z</time>
      </trkpt>
      <trkpt lat="44.46216" lon="0.96956">
        <ele>147.22</ele>
        <time>2016-02-06T13:36:55Z</time>
      </trkpt>
      <trkpt lat="44.46203" lon="0.96961">
        <ele>146.74</ele>
        <time>2016-02-06T13:37:00Z</time>
      </trkpt>
      <trkpt lat="44.46198" lon="0.96968">
        <ele>146.74</ele>
        <time>2016-02-06T13:37:04Z</time>
      </trkpt>
      <trkpt lat="44.46195" lon="0.9697">
        <ele>146.74</ele>
        <time>2016-02-06T13:37:05Z</time>
      </trkpt>
      <trkpt lat="44.46192" lon="0.96972">
        <ele>146.74</ele>
        <time>2016-02-06T13:37:06Z</time>
      </trkpt>
      <trkpt lat="44.46169" lon="0.96996">
        <ele>149.62</ele>
        <time>2016-02-06T13:37:16Z</time>
      </trkpt>
      <trkpt lat="44.46142" lon="0.97012">
        <ele>154.91</ele>
        <time>2016-02-06T13:37:26Z</time>
      </trkpt>
      <trkpt lat="44.46102" lon="0.97031">
        <ele>151.54</ele>
        <time>2016-02-06T13:37:39Z</time>
      </trkpt>
      <trkpt lat="44.46066" lon="0.97045">
        <ele>149.62</ele>
        <time>2016-02-06T13:37:51Z</time>
      </trkpt>
      <trkpt lat="44.46032" lon="0.97055">
        <ele>151.54</ele>
        <time>2016-02-06T13:38:01Z</time>
      </trkpt>
      <trkpt lat="44.45999" lon="0.97066">
        <ele>153.95</ele>
        <time>2016-02-06T13:38:12Z</time>
      </trkpt>
      <trkpt lat="44.4596" lon="0.97081">
        <ele>151.54</ele>
        <time>2016-02-06T13:38:24Z</time>
      </trkpt>
      <trkpt lat="44.45924" lon="0.97093">
        <ele>148.18</ele>
        <time>2016-02-06T13:38:35Z</time>
      </trkpt>
      <trkpt lat="44.45883" lon="0.97098">
        <ele>146.26</ele>
        <time>2016-02-06T13:38:48Z</time>
      </trkpt>
      <trkpt lat="44.45882" lon="0.971">
        <ele>146.74</ele>
        <time>2016-02-06T13:38:49Z</time>
      </trkpt>
      <trkpt lat="44.45881" lon="0.97102">
        <ele>147.22</ele>
        <time>2016-02-06T13:38:50Z</time>
      </trkpt>
      <trkpt lat="44.4588" lon="0.97105">
        <ele>147.22</ele>
        <time>2016-02-06T13:38:52Z</time>
      </trkpt>
      <trkpt lat="44.45879" lon="0.97106">
        <ele>147.22</ele>
        <time>2016-02-06T13:38:53Z</time>
      </trkpt>
      <trkpt lat="44.45878" lon="0.97108">
        <ele>147.22</ele>
        <time>2016-02-06T13:38:54Z</time>
      </trkpt>
      <trkpt lat="44.45877" lon="0.9711">
        <ele>146.74</ele>
        <time>2016-02-06T13:38:55Z</time>
      </trkpt>
      <trkpt lat="44.45876" lon="0.97112">
        <ele>146.74</ele>
        <time>2016-02-06T13:38:56Z</time>
      </trkpt>
      <trkpt lat="44.45875" lon="0.97115">
        <ele>147.22</ele>
        <time>2016-02-06T13:38:57Z</time>
      </trkpt>
      <trkpt lat="44.4586" lon="0.97147">
        <ele>148.18</ele>
        <time>2016-02-06T13:39:10Z</time>
      </trkpt>
      <trkpt lat="44.45846" lon="0.97189">
        <ele>148.18</ele>
        <time>2016-02-06T13:39:23Z</time>
      </trkpt>
      <trkpt lat="44.45819" lon="0.97244">
        <ele>147.7</ele>
        <time>2016-02-06T13:39:37Z</time>
      </trkpt>
      <trkpt lat="44.45792" lon="0.97287">
        <ele>146.26</ele>
        <time>2016-02-06T13:39:51Z</time>
      </trkpt>
      <trkpt lat="44.45789" lon="0.97289">
        <ele>146.26</ele>
        <time>2016-02-06T13:39:52Z</time>
      </trkpt>
      <trkpt lat="44.45787" lon="0.97291">
        <ele>146.26</ele>
        <time>2016-02-06T13:39:53Z</time>
      </trkpt>
      <trkpt lat="44.45786" lon="0.97294">
        <ele>146.26</ele>
        <time>2016-02-06T13:39:54Z</time>
      </trkpt>
      <trkpt lat="44.45784" lon="0.97298">
        <ele>146.26</ele>
        <time>2016-02-06T13:39:55Z</time>
      </trkpt>
      <trkpt lat="44.45783" lon="0.97302">
        <ele>146.26</ele>
        <time>2016-02-06T13:39:56Z</time>
      </trkpt>
      <trkpt lat="44.45782" lon="0.97306">
        <ele>146.74</ele>
        <time>2016-02-06T13:39:57Z</time>
      </trkpt>
      <trkpt lat="44.45781" lon="0.97311">
        <ele>146.26</ele>
        <time>2016-02-06T13:39:58Z</time>
      </trkpt>
      <trkpt lat="44.4576" lon="0.97363">
        <ele>146.26</ele>
        <time>2016-02-06T13:40:10Z</time>
      </trkpt>
      <trkpt lat="44.45727" lon="0.97441">
        <ele>147.7</ele>
        <time>2016-02-06T13:40:28Z</time>
      </trkpt>
      <trkpt lat="44.45704" lon="0.97501">
        <ele>148.66</ele>
        <time>2016-02-06T13:40:42Z</time>
      </trkpt>
      <trkpt lat="44.45681" lon="0.97561">
        <ele>152.03</ele>
        <time>2016-02-06T13:40:56Z</time>
      </trkpt>
      <trkpt lat="44.45672" lon="0.97631">
        <ele>156.83</ele>
        <time>2016-02-06T13:41:12Z</time>
      </trkpt>
      <trkpt lat="44.45673" lon="0.97706">
        <ele>162.6</ele>
        <time>2016-02-06T13:41:29Z</time>
      </trkpt>
      <trkpt lat="44.45682" lon="0.97764">
        <ele>167.41</ele>
        <time>2016-02-06T13:41:43Z</time>
      </trkpt>
      <trkpt lat="44.45686" lon="0.97821">
        <ele>165.48</ele>
        <time>2016-02-06T13:41:56Z</time>
      </trkpt>
      <trkpt lat="44.45684" lon="0.97826">
        <ele>165.48</ele>
        <time>2016-02-06T13:41:57Z</time>
      </trkpt>
      <trkpt lat="44.45681" lon="0.97831">
        <ele>165</ele>
        <time>2016-02-06T13:41:58Z</time>
      </trkpt>
      <trkpt lat="44.45677" lon="0.97835">
        <ele>164.52</ele>
        <time>2016-02-06T13:41:59Z</time>
      </trkpt>
      <trkpt lat="44.45671" lon="0.97838">
        <ele>164.04</ele>
        <time>2016-02-06T13:42:00Z</time>
      </trkpt>
      <trkpt lat="44.45665" lon="0.9784">
        <ele>163.56</ele>
        <time>2016-02-06T13:42:01Z</time>
      </trkpt>
      <trkpt lat="44.45659" lon="0.97842">
        <ele>163.08</ele>
        <time>2016-02-06T13:42:02Z</time>
      </trkpt>
      <trkpt lat="44.45652" lon="0.97843">
        <ele>162.12</ele>
        <time>2016-02-06T13:42:03Z</time>
      </trkpt>
      <trkpt lat="44.45612" lon="0.97847">
        <ele>158.75</ele>
        <time>2016-02-06T13:42:08Z</time>
      </trkpt>
      <trkpt lat="44.45604" lon="0.97851">
        <ele>157.79</ele>
        <time>2016-02-06T13:42:09Z</time>
      </trkpt>
      <trkpt lat="44.45598" lon="0.97856">
        <ele>156.83</ele>
        <time>2016-02-06T13:42:10Z</time>
      </trkpt>
      <trkpt lat="44.45594" lon="0.97864">
        <ele>156.35</ele>
        <time>2016-02-06T13:42:11Z</time>
      </trkpt>
      <trkpt lat="44.45593" lon="0.97873">
        <ele>155.87</ele>
        <time>2016-02-06T13:42:12Z</time>
      </trkpt>
      <trkpt lat="44.45595" lon="0.97882">
        <ele>154.91</ele>
        <time>2016-02-06T13:42:13Z</time>
      </trkpt>
      <trkpt lat="44.45599" lon="0.9789">
        <ele>153.95</ele>
        <time>2016-02-06T13:42:14Z</time>
      </trkpt>
      <trkpt lat="44.45605" lon="0.97897">
        <ele>152.99</ele>
        <time>2016-02-06T13:42:15Z</time>
      </trkpt>
      <trkpt lat="44.45612" lon="0.97904">
        <ele>152.51</ele>
        <time>2016-02-06T13:42:16Z</time>
      </trkpt>
      <trkpt lat="44.4564" lon="0.97938">
        <ele>148.66</ele>
        <time>2016-02-06T13:42:20Z</time>
      </trkpt>
      <trkpt lat="44.45646" lon="0.97949">
        <ele>147.7</ele>
        <time>2016-02-06T13:42:21Z</time>
      </trkpt>
      <trkpt lat="44.45682" lon="0.98013">
        <ele>145.3</ele>
        <time>2016-02-06T13:42:27Z</time>
      </trkpt>
      <trkpt lat="44.45688" lon="0.98019">
        <ele>145.78</ele>
        <time>2016-02-06T13:42:28Z</time>
      </trkpt>
      <trkpt lat="44.45713" lon="0.9804">
        <ele>149.62</ele>
        <time>2016-02-06T13:42:34Z</time>
      </trkpt>
      <trkpt lat="44.45716" lon="0.98044">
        <ele>150.1</ele>
        <time>2016-02-06T13:42:35Z</time>
      </trkpt>
      <trkpt lat="44.45719" lon="0.98048">
        <ele>150.58</ele>
        <time>2016-02-06T13:42:36Z</time>
      </trkpt>
      <trkpt lat="44.45721" lon="0.98052">
        <ele>151.06</ele>
        <time>2016-02-06T13:42:37Z</time>
      </trkpt>
      <trkpt lat="44.45722" lon="0.98056">
        <ele>151.54</ele>
        <time>2016-02-06T13:42:38Z</time>
      </trkpt>
      <trkpt lat="44.45723" lon="0.98061">
        <ele>152.03</ele>
        <time>2016-02-06T13:42:39Z</time>
      </trkpt>
      <trkpt lat="44.45724" lon="0.98065">
        <ele>152.03</ele>
        <time>2016-02-06T13:42:40Z</time>
      </trkpt>
      <trkpt lat="44.45723" lon="0.9807">
        <ele>152.51</ele>
        <time>2016-02-06T13:42:41Z</time>
      </trkpt>
      <trkpt lat="44.45723" lon="0.98075">
        <ele>152.99</ele>
        <time>2016-02-06T13:42:42Z</time>
      </trkpt>
      <trkpt lat="44.45722" lon="0.98079">
        <ele>153.47</ele>
        <time>2016-02-06T13:42:43Z</time>
      </trkpt>
      <trkpt lat="44.45721" lon="0.98083">
        <ele>153.95</ele>
        <time>2016-02-06T13:42:44Z</time>
      </trkpt>
      <trkpt lat="44.45719" lon="0.98087">
        <ele>154.43</ele>
        <time>2016-02-06T13:42:45Z</time>
      </trkpt>
      <trkpt lat="44.45718" lon="0.98091">
        <ele>154.91</ele>
        <time>2016-02-06T13:42:46Z</time>
      </trkpt>
      <trkpt lat="44.45685" lon="0.98135">
        <ele>157.79</ele>
        <time>2016-02-06T13:43:00Z</time>
      </trkpt>
      <trkpt lat="44.45658" lon="0.98187">
        <ele>160.2</ele>
        <time>2016-02-06T13:43:15Z</time>
      </trkpt>
      <trkpt lat="44.45663" lon="0.98242">
        <ele>161.16</ele>
        <time>2016-02-06T13:43:28Z</time>
      </trkpt>
      <trkpt lat="44.45667" lon="0.98265">
        <ele>161.64</ele>
        <time>2016-02-06T13:43:34Z</time>
      </trkpt>
      <trkpt lat="44.45668" lon="0.98267">
        <ele>161.64</ele>
        <time>2016-02-06T13:43:35Z</time>
      </trkpt>
      <trkpt lat="44.45676" lon="0.98312">
        <ele>161.64</ele>
        <time>2016-02-06T13:43:47Z</time>
      </trkpt>
      <trkpt lat="44.4569" lon="0.98372">
        <ele>162.12</ele>
        <time>2016-02-06T13:44:02Z</time>
      </trkpt>
      <trkpt lat="44.45706" lon="0.98423">
        <ele>161.64</ele>
        <time>2016-02-06T13:44:15Z</time>
      </trkpt>
      <trkpt lat="44.45721" lon="0.98468">
        <ele>160.68</ele>
        <time>2016-02-06T13:44:32Z</time>
      </trkpt>
      <trkpt lat="44.45732" lon="0.98504">
        <ele>161.64</ele>
        <time>2016-02-06T13:44:46Z</time>
      </trkpt>
      <trkpt lat="44.45737" lon="0.98528">
        <ele>161.16</ele>
        <time>2016-02-06T13:44:51Z</time>
      </trkpt>
      <trkpt lat="44.45738" lon="0.98534">
        <ele>160.68</ele>
        <time>2016-02-06T13:44:52Z</time>
      </trkpt>
      <trkpt lat="44.45737" lon="0.98549">
        <ele>159.72</ele>
        <time>2016-02-06T13:44:54Z</time>
      </trkpt>
      <trkpt lat="44.45723" lon="0.98658">
        <ele>153.95</ele>
        <time>2016-02-06T13:45:05Z</time>
      </trkpt>
      <trkpt lat="44.45731" lon="0.98759">
        <ele>149.14</ele>
        <time>2016-02-06T13:45:14Z</time>
      </trkpt>
      <trkpt lat="44.45734" lon="0.98767">
        <ele>148.66</ele>
        <time>2016-02-06T13:45:15Z</time>
      </trkpt>
      <trkpt lat="44.45738" lon="0.98774">
        <ele>148.66</ele>
        <time>2016-02-06T13:45:16Z</time>
      </trkpt>
      <trkpt lat="44.45743" lon="0.98778">
        <ele>148.66</ele>
        <time>2016-02-06T13:45:17Z</time>
      </trkpt>
      <trkpt lat="44.45748" lon="0.9878">
        <ele>148.66</ele>
        <time>2016-02-06T13:45:18Z</time>
      </trkpt>
      <trkpt lat="44.45753" lon="0.98781">
        <ele>148.66</ele>
        <time>2016-02-06T13:45:19Z</time>
      </trkpt>
      <trkpt lat="44.45757" lon="0.98781">
        <ele>149.14</ele>
        <time>2016-02-06T13:45:20Z</time>
      </trkpt>
      <trkpt lat="44.45761" lon="0.9878">
        <ele>149.14</ele>
        <time>2016-02-06T13:45:21Z</time>
      </trkpt>
      <trkpt lat="44.45788" lon="0.98744">
        <ele>153.95</ele>
        <time>2016-02-06T13:45:31Z</time>
      </trkpt>
      <trkpt lat="44.45823" lon="0.98688">
        <ele>159.24</ele>
        <time>2016-02-06T13:45:45Z</time>
      </trkpt>
      <trkpt lat="44.45852" lon="0.98677">
        <ele>163.56</ele>
        <time>2016-02-06T13:45:55Z</time>
      </trkpt>
      <trkpt lat="44.45884" lon="0.98688">
        <ele>167.41</ele>
        <time>2016-02-06T13:46:07Z</time>
      </trkpt>
      <trkpt lat="44.45931" lon="0.98699">
        <ele>171.73</ele>
        <time>2016-02-06T13:46:23Z</time>
      </trkpt>
      <trkpt lat="44.45965" lon="0.98724">
        <ele>173.66</ele>
        <time>2016-02-06T13:46:36Z</time>
      </trkpt>
      <trkpt lat="44.45967" lon="0.98736">
        <ele>173.66</ele>
        <time>2016-02-06T13:46:47Z</time>
      </trkpt>
      <trkpt lat="44.45967" lon="0.98736">
        <ele>174.14</ele>
        <time>2016-02-06T13:47:14Z</time>
      </trkpt>
      <trkpt lat="44.45968" lon="0.98736">
        <ele>174.14</ele>
        <time>2016-02-06T13:47:40Z</time>
      </trkpt>
      <trkpt lat="44.45967" lon="0.98736">
        <ele>174.62</ele>
        <time>2016-02-06T13:48:03Z</time>
      </trkpt>
      <trkpt lat="44.45967" lon="0.98736">
        <ele>174.62</ele>
        <time>2016-02-06T13:48:22Z</time>
      </trkpt>
      <trkpt lat="44.45967" lon="0.98736">
        <ele>174.14</ele>
        <time>2016-02-06T13:48:47Z</time>
      </trkpt>
      <trkpt lat="44.45967" lon="0.98736">
        <ele>174.62</ele>
        <time>2016-02-06T13:49:16Z</time>
      </trkpt>
      <trkpt lat="44.45967" lon="0.98736">
        <ele>174.62</ele>
        <time>2016-02-06T13:49:40Z</time>
      </trkpt>
      <trkpt lat="44.45967" lon="0.98736">
        <ele>174.62</ele>
        <time>2016-02-06T13:50:07Z</time>
      </trkpt>
      <trkpt lat="44.45967" lon="0.98736">
        <ele>174.62</ele>
        <time>2016-02-06T13:50:33Z</time>
      </trkpt>
      <trkpt lat="44.45966" lon="0.98738">
        <ele>174.62</ele>
        <time>2016-02-06T13:50:46Z</time>
      </trkpt>
      <trkpt lat="44.45965" lon="0.9874">
        <ele>174.62</ele>
        <time>2016-02-06T13:50:47Z</time>
      </trkpt>
      <trkpt lat="44.45965" lon="0.98743">
        <ele>174.62</ele>
        <time>2016-02-06T13:50:48Z</time>
      </trkpt>
      <trkpt lat="44.45964" lon="0.98746">
        <ele>174.62</ele>
        <time>2016-02-06T13:50:49Z</time>
      </trkpt>
      <trkpt lat="44.45963" lon="0.98749">
        <ele>174.62</ele>
        <time>2016-02-06T13:50:50Z</time>
      </trkpt>
      <trkpt lat="44.45962" lon="0.98752">
        <ele>175.1</ele>
        <time>2016-02-06T13:50:51Z</time>
      </trkpt>
      <trkpt lat="44.45961" lon="0.98755">
        <ele>175.1</ele>
        <time>2016-02-06T13:50:52Z</time>
      </trkpt>
      <trkpt lat="44.4596" lon="0.98757">
        <ele>175.58</ele>
        <time>2016-02-06T13:50:53Z</time>
      </trkpt>
      <trkpt lat="44.45959" lon="0.9876">
        <ele>175.58</ele>
        <time>2016-02-06T13:50:54Z</time>
      </trkpt>
      <trkpt lat="44.45958" lon="0.98762">
        <ele>176.06</ele>
        <time>2016-02-06T13:50:55Z</time>
      </trkpt>
      <trkpt lat="44.45957" lon="0.98764">
        <ele>176.06</ele>
        <time>2016-02-06T13:50:56Z</time>
      </trkpt>
      <trkpt lat="44.45956" lon="0.98767">
        <ele>176.06</ele>
        <time>2016-02-06T13:50:57Z</time>
      </trkpt>
      <trkpt lat="44.45954" lon="0.98769">
        <ele>176.54</ele>
        <time>2016-02-06T13:50:58Z</time>
      </trkpt>
      <trkpt lat="44.45953" lon="0.98771">
        <ele>177.02</ele>
        <time>2016-02-06T13:50:59Z</time>
      </trkpt>
      <trkpt lat="44.45952" lon="0.98774">
        <ele>177.02</ele>
        <time>2016-02-06T13:51:00Z</time>
      </trkpt>
      <trkpt lat="44.4595" lon="0.98776">
        <ele>177.5</ele>
        <time>2016-02-06T13:51:01Z</time>
      </trkpt>
      <trkpt lat="44.45949" lon="0.98779">
        <ele>177.5</ele>
        <time>2016-02-06T13:51:02Z</time>
      </trkpt>
      <trkpt lat="44.45947" lon="0.98782">
        <ele>177.98</ele>
        <time>2016-02-06T13:51:03Z</time>
      </trkpt>
      <trkpt lat="44.45945" lon="0.98784">
        <ele>177.98</ele>
        <time>2016-02-06T13:51:04Z</time>
      </trkpt>
      <trkpt lat="44.45915" lon="0.98824">
        <ele>179.9</ele>
        <time>2016-02-06T13:51:17Z</time>
      </trkpt>
      <trkpt lat="44.45877" lon="0.98873">
        <ele>180.87</ele>
        <time>2016-02-06T13:51:32Z</time>
      </trkpt>
      <trkpt lat="44.45857" lon="0.98941">
        <ele>182.31</ele>
        <time>2016-02-06T13:51:46Z</time>
      </trkpt>
      <trkpt lat="44.45853" lon="0.9901">
        <ele>184.23</ele>
        <time>2016-02-06T13:52:00Z</time>
      </trkpt>
      <trkpt lat="44.45848" lon="0.99069">
        <ele>184.23</ele>
        <time>2016-02-06T13:52:12Z</time>
      </trkpt>
      <trkpt lat="44.45844" lon="0.99113">
        <ele>183.27</ele>
        <time>2016-02-06T13:52:20Z</time>
      </trkpt>
      <trkpt lat="44.45843" lon="0.99118">
        <ele>183.27</ele>
        <time>2016-02-06T13:52:21Z</time>
      </trkpt>
      <trkpt lat="44.45841" lon="0.99136">
        <ele>183.27</ele>
        <time>2016-02-06T13:52:24Z</time>
      </trkpt>
      <trkpt lat="44.45841" lon="0.9916">
        <ele>183.27</ele>
        <time>2016-02-06T13:52:28Z</time>
      </trkpt>
      <trkpt lat="44.45841" lon="0.99166">
        <ele>183.27</ele>
        <time>2016-02-06T13:52:29Z</time>
      </trkpt>
      <trkpt lat="44.45846" lon="0.99184">
        <ele>182.79</ele>
        <time>2016-02-06T13:52:32Z</time>
      </trkpt>
      <trkpt lat="44.45851" lon="0.99194">
        <ele>182.79</ele>
        <time>2016-02-06T13:52:34Z</time>
      </trkpt>
      <trkpt lat="44.45858" lon="0.99203">
        <ele>182.79</ele>
        <time>2016-02-06T13:52:36Z</time>
      </trkpt>
      <trkpt lat="44.45869" lon="0.99214">
        <ele>182.79</ele>
        <time>2016-02-06T13:52:39Z</time>
      </trkpt>
      <trkpt lat="44.45908" lon="0.99243">
        <ele>182.31</ele>
        <time>2016-02-06T13:52:49Z</time>
      </trkpt>
      <trkpt lat="44.45912" lon="0.99246">
        <ele>182.31</ele>
        <time>2016-02-06T13:52:50Z</time>
      </trkpt>
      <trkpt lat="44.45982" lon="0.99302">
        <ele>178.94</ele>
        <time>2016-02-06T13:53:07Z</time>
      </trkpt>
      <trkpt lat="44.46" lon="0.99319">
        <ele>178.46</ele>
        <time>2016-02-06T13:53:11Z</time>
      </trkpt>
      <trkpt lat="44.46004" lon="0.99323">
        <ele>177.98</ele>
        <time>2016-02-06T13:53:12Z</time>
      </trkpt>
      <trkpt lat="44.46025" lon="0.99342">
        <ele>177.98</ele>
        <time>2016-02-06T13:53:17Z</time>
      </trkpt>
      <trkpt lat="44.46029" lon="0.99346">
        <ele>177.98</ele>
        <time>2016-02-06T13:53:18Z</time>
      </trkpt>
      <trkpt lat="44.46064" lon="0.99377">
        <ele>177.98</ele>
        <time>2016-02-06T13:53:27Z</time>
      </trkpt>
      <trkpt lat="44.46093" lon="0.99408">
        <ele>178.46</ele>
        <time>2016-02-06T13:53:35Z</time>
      </trkpt>
      <trkpt lat="44.46096" lon="0.99412">
        <ele>178.94</ele>
        <time>2016-02-06T13:53:36Z</time>
      </trkpt>
      <trkpt lat="44.46107" lon="0.99425">
        <ele>178.94</ele>
        <time>2016-02-06T13:53:39Z</time>
      </trkpt>
      <trkpt lat="44.46137" lon="0.9947">
        <ele>180.87</ele>
        <time>2016-02-06T13:53:49Z</time>
      </trkpt>
      <trkpt lat="44.46139" lon="0.99475">
        <ele>180.87</ele>
        <time>2016-02-06T13:53:50Z</time>
      </trkpt>
      <trkpt lat="44.46142" lon="0.99479">
        <ele>181.35</ele>
        <time>2016-02-06T13:53:51Z</time>
      </trkpt>
      <trkpt lat="44.46144" lon="0.99484">
        <ele>181.35</ele>
        <time>2016-02-06T13:53:52Z</time>
      </trkpt>
      <trkpt lat="44.46146" lon="0.9949">
        <ele>181.83</ele>
        <time>2016-02-06T13:53:53Z</time>
      </trkpt>
      <trkpt lat="44.46159" lon="0.99522">
        <ele>182.31</ele>
        <time>2016-02-06T13:53:59Z</time>
      </trkpt>
      <trkpt lat="44.4616" lon="0.99528">
        <ele>182.31</ele>
        <time>2016-02-06T13:54:00Z</time>
      </trkpt>
      <trkpt lat="44.46162" lon="0.99534">
        <ele>182.31</ele>
        <time>2016-02-06T13:54:01Z</time>
      </trkpt>
      <trkpt lat="44.46166" lon="0.99545">
        <ele>182.31</ele>
        <time>2016-02-06T13:54:03Z</time>
      </trkpt>
      <trkpt lat="44.462" lon="0.99634">
        <ele>183.75</ele>
        <time>2016-02-06T13:54:19Z</time>
      </trkpt>
      <trkpt lat="44.46212" lon="0.9967">
        <ele>185.67</ele>
        <time>2016-02-06T13:54:26Z</time>
      </trkpt>
      <trkpt lat="44.46238" lon="0.99735">
        <ele>188.56</ele>
        <time>2016-02-06T13:54:37Z</time>
      </trkpt>
      <trkpt lat="44.46241" lon="0.99741">
        <ele>189.04</ele>
        <time>2016-02-06T13:54:38Z</time>
      </trkpt>
      <trkpt lat="44.46255" lon="0.99773">
        <ele>190</ele>
        <time>2016-02-06T13:54:43Z</time>
      </trkpt>
      <trkpt lat="44.46257" lon="0.99779">
        <ele>190.48</ele>
        <time>2016-02-06T13:54:44Z</time>
      </trkpt>
      <trkpt lat="44.4626" lon="0.99784">
        <ele>190.48</ele>
        <time>2016-02-06T13:54:45Z</time>
      </trkpt>
      <trkpt lat="44.46261" lon="0.9979">
        <ele>190.96</ele>
        <time>2016-02-06T13:54:46Z</time>
      </trkpt>
      <trkpt lat="44.46263" lon="0.99795">
        <ele>190.96</ele>
        <time>2016-02-06T13:54:47Z</time>
      </trkpt>
      <trkpt lat="44.46266" lon="0.998">
        <ele>190.96</ele>
        <time>2016-02-06T13:54:48Z</time>
      </trkpt>
      <trkpt lat="44.46279" lon="0.99826">
        <ele>190.96</ele>
        <time>2016-02-06T13:54:55Z</time>
      </trkpt>
      <trkpt lat="44.4628" lon="0.99829">
        <ele>190.96</ele>
        <time>2016-02-06T13:54:56Z</time>
      </trkpt>
      <trkpt lat="44.46281" lon="0.99831">
        <ele>190.96</ele>
        <time>2016-02-06T13:54:57Z</time>
      </trkpt>
      <trkpt lat="44.46283" lon="0.99831">
        <ele>191.44</ele>
        <time>2016-02-06T13:54:58Z</time>
      </trkpt>
      <trkpt lat="44.46284" lon="0.99831">
        <ele>191.44</ele>
        <time>2016-02-06T13:54:59Z</time>
      </trkpt>
      <trkpt lat="44.46285" lon="0.99828">
        <ele>191.44</ele>
        <time>2016-02-06T13:55:00Z</time>
      </trkpt>
      <trkpt lat="44.46285" lon="0.99825">
        <ele>191.92</ele>
        <time>2016-02-06T13:55:01Z</time>
      </trkpt>
      <trkpt lat="44.46284" lon="0.99822">
        <ele>192.4</ele>
        <time>2016-02-06T13:55:02Z</time>
      </trkpt>
      <trkpt lat="44.46283" lon="0.99821">
        <ele>192.4</ele>
        <time>2016-02-06T13:55:03Z</time>
      </trkpt>
      <trkpt lat="44.46281" lon="0.9982">
        <ele>192.88</ele>
        <time>2016-02-06T13:55:04Z</time>
      </trkpt>
      <trkpt lat="44.4628" lon="0.99821">
        <ele>192.88</ele>
        <time>2016-02-06T13:55:05Z</time>
      </trkpt>
      <trkpt lat="44.46279" lon="0.99822">
        <ele>192.88</ele>
        <time>2016-02-06T13:55:06Z</time>
      </trkpt>
      <trkpt lat="44.46278" lon="0.99823">
        <ele>192.88</ele>
        <time>2016-02-06T13:55:07Z</time>
      </trkpt>
      <trkpt lat="44.46278" lon="0.99825">
        <ele>192.88</ele>
        <time>2016-02-06T13:55:08Z</time>
      </trkpt>
      <trkpt lat="44.46278" lon="0.99827">
        <ele>192.88</ele>
        <time>2016-02-06T13:55:09Z</time>
      </trkpt>
      <trkpt lat="44.46278" lon="0.99829">
        <ele>192.88</ele>
        <time>2016-02-06T13:55:10Z</time>
      </trkpt>
      <trkpt lat="44.46279" lon="0.99831">
        <ele>192.88</ele>
        <time>2016-02-06T13:55:11Z</time>
      </trkpt>
      <trkpt lat="44.46282" lon="0.99837">
        <ele>193.36</ele>
        <time>2016-02-06T13:55:24Z</time>
      </trkpt>
      <trkpt lat="44.46282" lon="0.99838">
        <ele>193.36</ele>
        <time>2016-02-06T13:55:43Z</time>
      </trkpt>
      <trkpt lat="44.46285" lon="0.99842">
        <ele>193.84</ele>
        <time>2016-02-06T13:56:09Z</time>
      </trkpt>
      <trkpt lat="44.463" lon="0.99883">
        <ele>192.88</ele>
        <time>2016-02-06T13:56:20Z</time>
      </trkpt>
      <trkpt lat="44.46305" lon="0.99898">
        <ele>192.4</ele>
        <time>2016-02-06T13:56:23Z</time>
      </trkpt>
      <trkpt lat="44.46307" lon="0.99904">
        <ele>192.4</ele>
        <time>2016-02-06T13:56:24Z</time>
      </trkpt>
      <trkpt lat="44.46309" lon="0.9991">
        <ele>191.92</ele>
        <time>2016-02-06T13:56:25Z</time>
      </trkpt>
      <trkpt lat="44.46337" lon="1.00005">
        <ele>186.63</ele>
        <time>2016-02-06T13:56:35Z</time>
      </trkpt>
      <trkpt lat="44.46381" lon="1.00127">
        <ele>183.75</ele>
        <time>2016-02-06T13:56:48Z</time>
      </trkpt>
      <trkpt lat="44.46389" lon="1.00161">
        <ele>184.23</ele>
        <time>2016-02-06T13:56:54Z</time>
      </trkpt>
      <trkpt lat="44.46389" lon="1.00167">
        <ele>184.71</ele>
        <time>2016-02-06T13:56:55Z</time>
      </trkpt>
      <trkpt lat="44.4639" lon="1.00172">
        <ele>184.71</ele>
        <time>2016-02-06T13:56:56Z</time>
      </trkpt>
      <trkpt lat="44.4639" lon="1.00178">
        <ele>184.71</ele>
        <time>2016-02-06T13:56:57Z</time>
      </trkpt>
      <trkpt lat="44.46391" lon="1.00183">
        <ele>185.19</ele>
        <time>2016-02-06T13:56:58Z</time>
      </trkpt>
      <trkpt lat="44.46394" lon="1.002">
        <ele>185.67</ele>
        <time>2016-02-06T13:57:01Z</time>
      </trkpt>
      <trkpt lat="44.46395" lon="1.00205">
        <ele>186.15</ele>
        <time>2016-02-06T13:57:02Z</time>
      </trkpt>
      <trkpt lat="44.46401" lon="1.00264">
        <ele>189.04</ele>
        <time>2016-02-06T13:57:13Z</time>
      </trkpt>
      <trkpt lat="44.46401" lon="1.0027">
        <ele>189.04</ele>
        <time>2016-02-06T13:57:14Z</time>
      </trkpt>
      <trkpt lat="44.46401" lon="1.00276">
        <ele>189.52</ele>
        <time>2016-02-06T13:57:15Z</time>
      </trkpt>
      <trkpt lat="44.46401" lon="1.00282">
        <ele>189.52</ele>
        <time>2016-02-06T13:57:16Z</time>
      </trkpt>
      <trkpt lat="44.46401" lon="1.00288">
        <ele>189.52</ele>
        <time>2016-02-06T13:57:17Z</time>
      </trkpt>
      <trkpt lat="44.464" lon="1.00293">
        <ele>190</ele>
        <time>2016-02-06T13:57:18Z</time>
      </trkpt>
      <trkpt lat="44.464" lon="1.00299">
        <ele>190</ele>
        <time>2016-02-06T13:57:19Z</time>
      </trkpt>
      <trkpt lat="44.46399" lon="1.00305">
        <ele>190</ele>
        <time>2016-02-06T13:57:20Z</time>
      </trkpt>
      <trkpt lat="44.46399" lon="1.00311">
        <ele>190</ele>
        <time>2016-02-06T13:57:21Z</time>
      </trkpt>
      <trkpt lat="44.46398" lon="1.00316">
        <ele>190</ele>
        <time>2016-02-06T13:57:22Z</time>
      </trkpt>
      <trkpt lat="44.46397" lon="1.00322">
        <ele>190</ele>
        <time>2016-02-06T13:57:23Z</time>
      </trkpt>
      <trkpt lat="44.46395" lon="1.00333">
        <ele>190</ele>
        <time>2016-02-06T13:57:25Z</time>
      </trkpt>
      <trkpt lat="44.46395" lon="1.00339">
        <ele>190</ele>
        <time>2016-02-06T13:57:26Z</time>
      </trkpt>
      <trkpt lat="44.46384" lon="1.00391">
        <ele>191.92</ele>
        <time>2016-02-06T13:57:37Z</time>
      </trkpt>
      <trkpt lat="44.46409" lon="1.00422">
        <ele>191.92</ele>
        <time>2016-02-06T13:57:47Z</time>
      </trkpt>
      <trkpt lat="44.46415" lon="1.00431">
        <ele>191.92</ele>
        <time>2016-02-06T13:57:49Z</time>
      </trkpt>
      <trkpt lat="44.46435" lon="1.00473">
        <ele>189.52</ele>
        <time>2016-02-06T13:57:56Z</time>
      </trkpt>
      <trkpt lat="44.4644" lon="1.00479">
        <ele>188.56</ele>
        <time>2016-02-06T13:57:57Z</time>
      </trkpt>
      <trkpt lat="44.46445" lon="1.00485">
        <ele>188.08</ele>
        <time>2016-02-06T13:57:58Z</time>
      </trkpt>
      <trkpt lat="44.46452" lon="1.00489">
        <ele>187.59</ele>
        <time>2016-02-06T13:57:59Z</time>
      </trkpt>
      <trkpt lat="44.4646" lon="1.00493">
        <ele>186.63</ele>
        <time>2016-02-06T13:58:00Z</time>
      </trkpt>
      <trkpt lat="44.46504" lon="1.00526">
        <ele>179.42</ele>
        <time>2016-02-06T13:58:07Z</time>
      </trkpt>
      <trkpt lat="44.46538" lon="1.00576">
        <ele>172.21</ele>
        <time>2016-02-06T13:58:14Z</time>
      </trkpt>
      <trkpt lat="44.46567" lon="1.00603">
        <ele>168.85</ele>
        <time>2016-02-06T13:58:20Z</time>
      </trkpt>
      <trkpt lat="44.46572" lon="1.00606">
        <ele>168.37</ele>
        <time>2016-02-06T13:58:21Z</time>
      </trkpt>
      <trkpt lat="44.46606" lon="1.00621">
        <ele>164.52</ele>
        <time>2016-02-06T13:58:28Z</time>
      </trkpt>
      <trkpt lat="44.4661" lon="1.00624">
        <ele>163.56</ele>
        <time>2016-02-06T13:58:29Z</time>
      </trkpt>
      <trkpt lat="44.46613" lon="1.00627">
        <ele>163.08</ele>
        <time>2016-02-06T13:58:30Z</time>
      </trkpt>
      <trkpt lat="44.46617" lon="1.00631">
        <ele>162.6</ele>
        <time>2016-02-06T13:58:31Z</time>
      </trkpt>
      <trkpt lat="44.4662" lon="1.00635">
        <ele>162.12</ele>
        <time>2016-02-06T13:58:32Z</time>
      </trkpt>
      <trkpt lat="44.46625" lon="1.00639">
        <ele>161.64</ele>
        <time>2016-02-06T13:58:33Z</time>
      </trkpt>
      <trkpt lat="44.46629" lon="1.00644">
        <ele>160.68</ele>
        <time>2016-02-06T13:58:34Z</time>
      </trkpt>
      <trkpt lat="44.46633" lon="1.00649">
        <ele>160.2</ele>
        <time>2016-02-06T13:58:35Z</time>
      </trkpt>
      <trkpt lat="44.46641" lon="1.00659">
        <ele>158.75</ele>
        <time>2016-02-06T13:58:37Z</time>
      </trkpt>
      <trkpt lat="44.46645" lon="1.00665">
        <ele>157.79</ele>
        <time>2016-02-06T13:58:38Z</time>
      </trkpt>
      <trkpt lat="44.46662" lon="1.00688">
        <ele>153.95</ele>
        <time>2016-02-06T13:58:42Z</time>
      </trkpt>
      <trkpt lat="44.46712" lon="1.00751">
        <ele>146.26</ele>
        <time>2016-02-06T13:58:51Z</time>
      </trkpt>
      <trkpt lat="44.46714" lon="1.00754">
        <ele>145.3</ele>
        <time>2016-02-06T13:58:59Z</time>
      </trkpt>
      <trkpt lat="44.46717" lon="1.00754">
        <ele>144.82</ele>
        <time>2016-02-06T13:59:15Z</time>
      </trkpt>
      <trkpt lat="44.46716" lon="1.00755">
        <ele>144.34</ele>
        <time>2016-02-06T13:59:33Z</time>
      </trkpt>
      <trkpt lat="44.46715" lon="1.00754">
        <ele>143.85</ele>
        <time>2016-02-06T13:59:57Z</time>
      </trkpt>
      <trkpt lat="44.46714" lon="1.00754">
        <ele>143.37</ele>
        <time>2016-02-06T14:00:07Z</time>
      </trkpt>
      <trkpt lat="44.46715" lon="1.00754">
        <ele>143.37</ele>
        <time>2016-02-06T14:00:08Z</time>
      </trkpt>
      <trkpt lat="44.46718" lon="1.00753">
        <ele>143.37</ele>
        <time>2016-02-06T14:00:09Z</time>
      </trkpt>
      <trkpt lat="44.46732" lon="1.00749">
        <ele>143.37</ele>
        <time>2016-02-06T14:00:13Z</time>
      </trkpt>
      <trkpt lat="44.46737" lon="1.00749">
        <ele>143.37</ele>
        <time>2016-02-06T14:00:14Z</time>
      </trkpt>
      <trkpt lat="44.46742" lon="1.00748">
        <ele>143.37</ele>
        <time>2016-02-06T14:00:15Z</time>
      </trkpt>
      <trkpt lat="44.46751" lon="1.00747">
        <ele>143.37</ele>
        <time>2016-02-06T14:00:17Z</time>
      </trkpt>
      <trkpt lat="44.46756" lon="1.00748">
        <ele>143.37</ele>
        <time>2016-02-06T14:00:18Z</time>
      </trkpt>
      <trkpt lat="44.46768" lon="1.0075">
        <ele>143.85</ele>
        <time>2016-02-06T14:00:21Z</time>
      </trkpt>
      <trkpt lat="44.46776" lon="1.00753">
        <ele>143.85</ele>
        <time>2016-02-06T14:00:23Z</time>
      </trkpt>
      <trkpt lat="44.46813" lon="1.0078">
        <ele>144.34</ele>
        <time>2016-02-06T14:00:33Z</time>
      </trkpt>
      <trkpt lat="44.4682" lon="1.00786">
        <ele>143.85</ele>
        <time>2016-02-06T14:00:35Z</time>
      </trkpt>
      <trkpt lat="44.46824" lon="1.0079">
        <ele>143.37</ele>
        <time>2016-02-06T14:00:36Z</time>
      </trkpt>
      <trkpt lat="44.46832" lon="1.00796">
        <ele>142.41</ele>
        <time>2016-02-06T14:00:38Z</time>
      </trkpt>
      <trkpt lat="44.46836" lon="1.00799">
        <ele>142.41</ele>
        <time>2016-02-06T14:00:39Z</time>
      </trkpt>
      <trkpt lat="44.46845" lon="1.00806">
        <ele>141.93</ele>
        <time>2016-02-06T14:00:41Z</time>
      </trkpt>
      <trkpt lat="44.4686" lon="1.00814">
        <ele>140.97</ele>
        <time>2016-02-06T14:00:44Z</time>
      </trkpt>
      <trkpt lat="44.46886" lon="1.00818">
        <ele>139.53</ele>
        <time>2016-02-06T14:00:48Z</time>
      </trkpt>
      <trkpt lat="44.46981" lon="1.00787">
        <ele>132.8</ele>
        <time>2016-02-06T14:00:59Z</time>
      </trkpt>
      <trkpt lat="44.47117" lon="1.00767">
        <ele>125.59</ele>
        <time>2016-02-06T14:01:13Z</time>
      </trkpt>
      <trkpt lat="44.4718" lon="1.00774">
        <ele>124.15</ele>
        <time>2016-02-06T14:01:22Z</time>
      </trkpt>
      <trkpt lat="44.47184" lon="1.00777">
        <ele>123.67</ele>
        <time>2016-02-06T14:01:30Z</time>
      </trkpt>
      <trkpt lat="44.47185" lon="1.00777">
        <ele>123.19</ele>
        <time>2016-02-06T14:01:53Z</time>
      </trkpt>
      <trkpt lat="44.47185" lon="1.00777">
        <ele>123.19</ele>
        <time>2016-02-06T14:02:07Z</time>
      </trkpt>
      <trkpt lat="44.47186" lon="1.00777">
        <ele>123.67</ele>
        <time>2016-02-06T14:02:08Z</time>
      </trkpt>
      <trkpt lat="44.47188" lon="1.00776">
        <ele>124.15</ele>
        <time>2016-02-06T14:02:09Z</time>
      </trkpt>
      <trkpt lat="44.47191" lon="1.00777">
        <ele>124.15</ele>
        <time>2016-02-06T14:02:10Z</time>
      </trkpt>
      <trkpt lat="44.47195" lon="1.00779">
        <ele>124.63</ele>
        <time>2016-02-06T14:02:11Z</time>
      </trkpt>
      <trkpt lat="44.47198" lon="1.00779">
        <ele>124.63</ele>
        <time>2016-02-06T14:02:12Z</time>
      </trkpt>
      <trkpt lat="44.47263" lon="1.00779">
        <ele>125.11</ele>
        <time>2016-02-06T14:02:26Z</time>
      </trkpt>
      <trkpt lat="44.47319" lon="1.00763">
        <ele>127.51</ele>
        <time>2016-02-06T14:02:38Z</time>
      </trkpt>
      <trkpt lat="44.47328" lon="1.00758">
        <ele>127.51</ele>
        <time>2016-02-06T14:02:40Z</time>
      </trkpt>
      <trkpt lat="44.4738" lon="1.00692">
        <ele>127.99</ele>
        <time>2016-02-06T14:02:55Z</time>
      </trkpt>
      <trkpt lat="44.47411" lon="1.00624">
        <ele>125.11</ele>
        <time>2016-02-06T14:03:06Z</time>
      </trkpt>
      <trkpt lat="44.47421" lon="1.00606">
        <ele>124.63</ele>
        <time>2016-02-06T14:03:09Z</time>
      </trkpt>
      <trkpt lat="44.47434" lon="1.00581">
        <ele>123.67</ele>
        <time>2016-02-06T14:03:13Z</time>
      </trkpt>
      <trkpt lat="44.47439" lon="1.00578">
        <ele>123.67</ele>
        <time>2016-02-06T14:03:14Z</time>
      </trkpt>
      <trkpt lat="44.47444" lon="1.00578">
        <ele>123.67</ele>
        <time>2016-02-06T14:03:15Z</time>
      </trkpt>
      <trkpt lat="44.47449" lon="1.00578">
        <ele>124.15</ele>
        <time>2016-02-06T14:03:16Z</time>
      </trkpt>
      <trkpt lat="44.47454" lon="1.00579">
        <ele>124.63</ele>
        <time>2016-02-06T14:03:17Z</time>
      </trkpt>
      <trkpt lat="44.47477" lon="1.0058">
        <ele>125.11</ele>
        <time>2016-02-06T14:03:22Z</time>
      </trkpt>
      <trkpt lat="44.47482" lon="1.00579">
        <ele>125.11</ele>
        <time>2016-02-06T14:03:23Z</time>
      </trkpt>
      <trkpt lat="44.47487" lon="1.00578">
        <ele>125.11</ele>
        <time>2016-02-06T14:03:24Z</time>
      </trkpt>
      <trkpt lat="44.47492" lon="1.00577">
        <ele>125.11</ele>
        <time>2016-02-06T14:03:25Z</time>
      </trkpt>
      <trkpt lat="44.47497" lon="1.00577">
        <ele>125.11</ele>
        <time>2016-02-06T14:03:26Z</time>
      </trkpt>
      <trkpt lat="44.47503" lon="1.00578">
        <ele>125.11</ele>
        <time>2016-02-06T14:03:27Z</time>
      </trkpt>
      <trkpt lat="44.47508" lon="1.00581">
        <ele>125.11</ele>
        <time>2016-02-06T14:03:28Z</time>
      </trkpt>
      <trkpt lat="44.47513" lon="1.00585">
        <ele>124.63</ele>
        <time>2016-02-06T14:03:29Z</time>
      </trkpt>
      <trkpt lat="44.47518" lon="1.00589">
        <ele>124.15</ele>
        <time>2016-02-06T14:03:30Z</time>
      </trkpt>
      <trkpt lat="44.47594" lon="1.00673">
        <ele>118.38</ele>
        <time>2016-02-06T14:03:42Z</time>
      </trkpt>
      <trkpt lat="44.4766" lon="1.00755">
        <ele>108.77</ele>
        <time>2016-02-06T14:03:51Z</time>
      </trkpt>
      <trkpt lat="44.47665" lon="1.00766">
        <ele>107.81</ele>
        <time>2016-02-06T14:03:52Z</time>
      </trkpt>
      <trkpt lat="44.47669" lon="1.00777">
        <ele>106.36</ele>
        <time>2016-02-06T14:03:53Z</time>
      </trkpt>
      <trkpt lat="44.47672" lon="1.00787">
        <ele>104.92</ele>
        <time>2016-02-06T14:03:54Z</time>
      </trkpt>
      <trkpt lat="44.47676" lon="1.00796">
        <ele>103.96</ele>
        <time>2016-02-06T14:03:55Z</time>
      </trkpt>
      <trkpt lat="44.47682" lon="1.00804">
        <ele>103</ele>
        <time>2016-02-06T14:03:56Z</time>
      </trkpt>
      <trkpt lat="44.47689" lon="1.00809">
        <ele>102.04</ele>
        <time>2016-02-06T14:03:57Z</time>
      </trkpt>
      <trkpt lat="44.47697" lon="1.00812">
        <ele>101.08</ele>
        <time>2016-02-06T14:03:58Z</time>
      </trkpt>
      <trkpt lat="44.47705" lon="1.00812">
        <ele>100.11</ele>
        <time>2016-02-06T14:03:59Z</time>
      </trkpt>
      <trkpt lat="44.47713" lon="1.00809">
        <ele>99.63</ele>
        <time>2016-02-06T14:04:00Z</time>
      </trkpt>
      <trkpt lat="44.47719" lon="1.00804">
        <ele>99.15</ele>
        <time>2016-02-06T14:04:01Z</time>
      </trkpt>
      <trkpt lat="44.47724" lon="1.00798">
        <ele>98.19</ele>
        <time>2016-02-06T14:04:02Z</time>
      </trkpt>
      <trkpt lat="44.4773" lon="1.00792">
        <ele>97.71</ele>
        <time>2016-02-06T14:04:03Z</time>
      </trkpt>
      <trkpt lat="44.47746" lon="1.00772">
        <ele>96.27</ele>
        <time>2016-02-06T14:04:06Z</time>
      </trkpt>
      <trkpt lat="44.47751" lon="1.00768">
        <ele>95.31</ele>
        <time>2016-02-06T14:04:07Z</time>
      </trkpt>
      <trkpt lat="44.47757" lon="1.00765">
        <ele>94.83</ele>
        <time>2016-02-06T14:04:08Z</time>
      </trkpt>
      <trkpt lat="44.47763" lon="1.00763">
        <ele>94.35</ele>
        <time>2016-02-06T14:04:09Z</time>
      </trkpt>
      <trkpt lat="44.47768" lon="1.00762">
        <ele>94.35</ele>
        <time>2016-02-06T14:04:10Z</time>
      </trkpt>
      <trkpt lat="44.47778" lon="1.00759">
        <ele>94.35</ele>
        <time>2016-02-06T14:04:12Z</time>
      </trkpt>
      <trkpt lat="44.47791" lon="1.00753">
        <ele>94.35</ele>
        <time>2016-02-06T14:04:15Z</time>
      </trkpt>
      <trkpt lat="44.47827" lon="1.0073">
        <ele>96.27</ele>
        <time>2016-02-06T14:04:26Z</time>
      </trkpt>
      <trkpt lat="44.47832" lon="1.00729">
        <ele>96.27</ele>
        <time>2016-02-06T14:04:27Z</time>
      </trkpt>
      <trkpt lat="44.47838" lon="1.00728">
        <ele>96.27</ele>
        <time>2016-02-06T14:04:28Z</time>
      </trkpt>
      <trkpt lat="44.47882" lon="1.00723">
        <ele>96.75</ele>
        <time>2016-02-06T14:04:37Z</time>
      </trkpt>
      <trkpt lat="44.47884" lon="1.00728">
        <ele>96.75</ele>
        <time>2016-02-06T14:04:40Z</time>
      </trkpt>
      <trkpt lat="44.47883" lon="1.0073">
        <ele>96.75</ele>
        <time>2016-02-06T14:04:41Z</time>
      </trkpt>
      <trkpt lat="44.47881" lon="1.00733">
        <ele>96.75</ele>
        <time>2016-02-06T14:04:42Z</time>
      </trkpt>
      <trkpt lat="44.4788" lon="1.00736">
        <ele>97.23</ele>
        <time>2016-02-06T14:04:43Z</time>
      </trkpt>
      <trkpt lat="44.47862" lon="1.0077">
        <ele>95.79</ele>
        <time>2016-02-06T14:04:53Z</time>
      </trkpt>
      <trkpt lat="44.4783" lon="1.00817">
        <ele>91.94</ele>
        <time>2016-02-06T14:05:06Z</time>
      </trkpt>
      <trkpt lat="44.47803" lon="1.00856">
        <ele>87.14</ele>
        <time>2016-02-06T14:05:19Z</time>
      </trkpt>
      <trkpt lat="44.47779" lon="1.00882">
        <ele>86.66</ele>
        <time>2016-02-06T14:05:31Z</time>
      </trkpt>
      <trkpt lat="44.47754" lon="1.00906">
        <ele>84.73</ele>
        <time>2016-02-06T14:05:43Z</time>
      </trkpt>
      <trkpt lat="44.47731" lon="1.00929">
        <ele>80.41</ele>
        <time>2016-02-06T14:05:52Z</time>
      </trkpt>
      <trkpt lat="44.47701" lon="1.00959">
        <ele>81.85</ele>
        <time>2016-02-06T14:06:04Z</time>
      </trkpt>
      <trkpt lat="44.47674" lon="1.00994">
        <ele>83.77</ele>
        <time>2016-02-06T14:06:16Z</time>
      </trkpt>
      <trkpt lat="44.47656" lon="1.01022">
        <ele>84.25</ele>
        <time>2016-02-06T14:06:26Z</time>
      </trkpt>
      <trkpt lat="44.47635" lon="1.01049">
        <ele>83.77</ele>
        <time>2016-02-06T14:06:36Z</time>
      </trkpt>
      <trkpt lat="44.47629" lon="1.01055">
        <ele>85.21</ele>
        <time>2016-02-06T14:06:47Z</time>
      </trkpt>
      <trkpt lat="44.47625" lon="1.0106">
        <ele>87.14</ele>
        <time>2016-02-06T14:07:06Z</time>
      </trkpt>
      <trkpt lat="44.47618" lon="1.01066">
        <ele>87.14</ele>
        <time>2016-02-06T14:07:12Z</time>
      </trkpt>
      <trkpt lat="44.47598" lon="1.01082">
        <ele>89.54</ele>
        <time>2016-02-06T14:07:25Z</time>
      </trkpt>
      <trkpt lat="44.47584" lon="1.01089">
        <ele>91.46</ele>
        <time>2016-02-06T14:07:31Z</time>
      </trkpt>
      <trkpt lat="44.47549" lon="1.01105">
        <ele>92.42</ele>
        <time>2016-02-06T14:07:43Z</time>
      </trkpt>
      <trkpt lat="44.47512" lon="1.01121">
        <ele>93.39</ele>
        <time>2016-02-06T14:07:56Z</time>
      </trkpt>
      <trkpt lat="44.47483" lon="1.01142">
        <ele>90.98</ele>
        <time>2016-02-06T14:08:08Z</time>
      </trkpt>
      <trkpt lat="44.47452" lon="1.01171">
        <ele>90.02</ele>
        <time>2016-02-06T14:08:21Z</time>
      </trkpt>
      <trkpt lat="44.47425" lon="1.01194">
        <ele>89.54</ele>
        <time>2016-02-06T14:08:32Z</time>
      </trkpt>
      <trkpt lat="44.47399" lon="1.01217">
        <ele>90.02</ele>
        <time>2016-02-06T14:08:44Z</time>
      </trkpt>
      <trkpt lat="44.47373" lon="1.01232">
        <ele>91.94</ele>
        <time>2016-02-06T14:08:54Z</time>
      </trkpt>
      <trkpt lat="44.47342" lon="1.0124">
        <ele>93.87</ele>
        <time>2016-02-06T14:09:06Z</time>
      </trkpt>
      <trkpt lat="44.47334" lon="1.01239">
        <ele>92.42</ele>
        <time>2016-02-06T14:09:16Z</time>
      </trkpt>
      <trkpt lat="44.47334" lon="1.0124">
        <ele>92.42</ele>
        <time>2016-02-06T14:09:17Z</time>
      </trkpt>
      <trkpt lat="44.47337" lon="1.01242">
        <ele>92.42</ele>
        <time>2016-02-06T14:09:32Z</time>
      </trkpt>
      <trkpt lat="44.47337" lon="1.01244">
        <ele>91.94</ele>
        <time>2016-02-06T14:10:00Z</time>
      </trkpt>
      <trkpt lat="44.47337" lon="1.01244">
        <ele>91.94</ele>
        <time>2016-02-06T14:10:16Z</time>
      </trkpt>
      <trkpt lat="44.47337" lon="1.01262">
        <ele>89.06</ele>
        <time>2016-02-06T14:10:22Z</time>
      </trkpt>
      <trkpt lat="44.47343" lon="1.01287">
        <ele>84.25</ele>
        <time>2016-02-06T14:10:33Z</time>
      </trkpt>
      <trkpt lat="44.47348" lon="1.01294">
        <ele>84.25</ele>
        <time>2016-02-06T14:10:40Z</time>
      </trkpt>
      <trkpt lat="44.47354" lon="1.01307">
        <ele>84.73</ele>
        <time>2016-02-06T14:10:52Z</time>
      </trkpt>
      <trkpt lat="44.47355" lon="1.01307">
        <ele>85.21</ele>
        <time>2016-02-06T14:11:11Z</time>
      </trkpt>
      <trkpt lat="44.47354" lon="1.01307">
        <ele>86.66</ele>
        <time>2016-02-06T14:11:31Z</time>
      </trkpt>
      <trkpt lat="44.47354" lon="1.01308">
        <ele>87.14</ele>
        <time>2016-02-06T14:11:36Z</time>
      </trkpt>
      <trkpt lat="44.47343" lon="1.01337">
        <ele>88.1</ele>
        <time>2016-02-06T14:11:48Z</time>
      </trkpt>
      <trkpt lat="44.47342" lon="1.01378">
        <ele>89.06</ele>
        <time>2016-02-06T14:12:01Z</time>
      </trkpt>
      <trkpt lat="44.47342" lon="1.01386">
        <ele>89.06</ele>
        <time>2016-02-06T14:12:04Z</time>
      </trkpt>
      <trkpt lat="44.47343" lon="1.01405">
        <ele>92.9</ele>
        <time>2016-02-06T14:12:17Z</time>
      </trkpt>
      <trkpt lat="44.47345" lon="1.01422">
        <ele>101.56</ele>
        <time>2016-02-06T14:12:30Z</time>
      </trkpt>
      <trkpt lat="44.47348" lon="1.01433">
        <ele>105.4</ele>
        <time>2016-02-06T14:12:43Z</time>
      </trkpt>
      <trkpt lat="44.47351" lon="1.01448">
        <ele>111.65</ele>
        <time>2016-02-06T14:12:58Z</time>
      </trkpt>
      <trkpt lat="44.47355" lon="1.01466">
        <ele>117.42</ele>
        <time>2016-02-06T14:13:14Z</time>
      </trkpt>
      <trkpt lat="44.4736" lon="1.01469">
        <ele>116.94</ele>
        <time>2016-02-06T14:13:30Z</time>
      </trkpt>
      <trkpt lat="44.4736" lon="1.0147">
        <ele>116.94</ele>
        <time>2016-02-06T14:13:48Z</time>
      </trkpt>
      <trkpt lat="44.47362" lon="1.01473">
        <ele>116.94</ele>
        <time>2016-02-06T14:14:08Z</time>
      </trkpt>
      <trkpt lat="44.47363" lon="1.01476">
        <ele>117.42</ele>
        <time>2016-02-06T14:14:29Z</time>
      </trkpt>
      <trkpt lat="44.47364" lon="1.01476">
        <ele>117.42</ele>
        <time>2016-02-06T14:14:45Z</time>
      </trkpt>
      <trkpt lat="44.47366" lon="1.01474">
        <ele>118.38</ele>
        <time>2016-02-06T14:15:10Z</time>
      </trkpt>
      <trkpt lat="44.47365" lon="1.01475">
        <ele>117.42</ele>
        <time>2016-02-06T14:15:32Z</time>
      </trkpt>
      <trkpt lat="44.47364" lon="1.01475">
        <ele>116.46</ele>
        <time>2016-02-06T14:16:02Z</time>
      </trkpt>
      <trkpt lat="44.47364" lon="1.01475">
        <ele>115.98</ele>
        <time>2016-02-06T14:16:19Z</time>
      </trkpt>
      <trkpt lat="44.47364" lon="1.01476">
        <ele>116.46</ele>
        <time>2016-02-06T14:16:38Z</time>
      </trkpt>
      <trkpt lat="44.47365" lon="1.01476">
        <ele>116.46</ele>
        <time>2016-02-06T14:17:02Z</time>
      </trkpt>
      <trkpt lat="44.47364" lon="1.01475">
        <ele>116.46</ele>
        <time>2016-02-06T14:17:16Z</time>
      </trkpt>
      <trkpt lat="44.47364" lon="1.01475">
        <ele>115.98</ele>
        <time>2016-02-06T14:17:30Z</time>
      </trkpt>
      <trkpt lat="44.47364" lon="1.01475">
        <ele>115.98</ele>
        <time>2016-02-06T14:17:47Z</time>
      </trkpt>
      <trkpt lat="44.47364" lon="1.01475">
        <ele>115.5</ele>
        <time>2016-02-06T14:18:04Z</time>
      </trkpt>
      <trkpt lat="44.47364" lon="1.01474">
        <ele>115.5</ele>
        <time>2016-02-06T14:18:21Z</time>
      </trkpt>
      <trkpt lat="44.47363" lon="1.01474">
        <ele>115.5</ele>
        <time>2016-02-06T14:18:38Z</time>
      </trkpt>
      <trkpt lat="44.47363" lon="1.01474">
        <ele>114.53</ele>
        <time>2016-02-06T14:18:55Z</time>
      </trkpt>
      <trkpt lat="44.47364" lon="1.01475">
        <ele>114.53</ele>
        <time>2016-02-06T14:19:11Z</time>
      </trkpt>
      <trkpt lat="44.47366" lon="1.01473">
        <ele>115.01</ele>
        <time>2016-02-06T14:19:27Z</time>
      </trkpt>
      <trkpt lat="44.47366" lon="1.01474">
        <ele>114.53</ele>
        <time>2016-02-06T14:19:56Z</time>
      </trkpt>
      <trkpt lat="44.47367" lon="1.01476">
        <ele>114.05</ele>
        <time>2016-02-06T14:20:26Z</time>
      </trkpt>
      <trkpt lat="44.47367" lon="1.01477">
        <ele>113.09</ele>
        <time>2016-02-06T14:20:58Z</time>
      </trkpt>
      <trkpt lat="44.47369" lon="1.01476">
        <ele>114.53</ele>
        <time>2016-02-06T14:21:25Z</time>
      </trkpt>
      <trkpt lat="44.47368" lon="1.01476">
        <ele>114.53</ele>
        <time>2016-02-06T14:21:42Z</time>
      </trkpt>
      <trkpt lat="44.47366" lon="1.01476">
        <ele>115.01</ele>
        <time>2016-02-06T14:22:06Z</time>
      </trkpt>
      <trkpt lat="44.47366" lon="1.01476">
        <ele>114.53</ele>
        <time>2016-02-06T14:22:31Z</time>
      </trkpt>
      <trkpt lat="44.47368" lon="1.01474">
        <ele>113.57</ele>
        <time>2016-02-06T14:22:54Z</time>
      </trkpt>
      <trkpt lat="44.47368" lon="1.01476">
        <ele>113.57</ele>
        <time>2016-02-06T14:23:18Z</time>
      </trkpt>
      <trkpt lat="44.47368" lon="1.01476">
        <ele>114.53</ele>
        <time>2016-02-06T14:23:49Z</time>
      </trkpt>
      <trkpt lat="44.47368" lon="1.01476">
        <ele>115.01</ele>
        <time>2016-02-06T14:24:12Z</time>
      </trkpt>
      <trkpt lat="44.47366" lon="1.01476">
        <ele>116.46</ele>
        <time>2016-02-06T14:24:44Z</time>
      </trkpt>
      <trkpt lat="44.47367" lon="1.01476">
        <ele>116.94</ele>
        <time>2016-02-06T14:25:02Z</time>
      </trkpt>
      <trkpt lat="44.47366" lon="1.01477">
        <ele>115.98</ele>
        <time>2016-02-06T14:25:17Z</time>
      </trkpt>
      <trkpt lat="44.47366" lon="1.01477">
        <ele>115.98</ele>
        <time>2016-02-06T14:25:37Z</time>
      </trkpt>
      <trkpt lat="44.47367" lon="1.01477">
        <ele>115.98</ele>
        <time>2016-02-06T14:25:49Z</time>
      </trkpt>
      <trkpt lat="44.47366" lon="1.01477">
        <ele>115.01</ele>
        <time>2016-02-06T14:26:10Z</time>
      </trkpt>
      <trkpt lat="44.47366" lon="1.01478">
        <ele>115.98</ele>
        <time>2016-02-06T14:26:32Z</time>
      </trkpt>
      <trkpt lat="44.47366" lon="1.01477">
        <ele>116.94</ele>
        <time>2016-02-06T14:26:54Z</time>
      </trkpt>
      <trkpt lat="44.47367" lon="1.01476">
        <ele>117.42</ele>
        <time>2016-02-06T14:27:20Z</time>
      </trkpt>
      <trkpt lat="44.47367" lon="1.01476">
        <ele>117.42</ele>
        <time>2016-02-06T14:27:45Z</time>
      </trkpt>
      <trkpt lat="44.47368" lon="1.01476">
        <ele>117.9</ele>
        <time>2016-02-06T14:28:05Z</time>
      </trkpt>
      <trkpt lat="44.4737" lon="1.01479">
        <ele>117.9</ele>
        <time>2016-02-06T14:28:26Z</time>
      </trkpt>
      <trkpt lat="44.4737" lon="1.0148">
        <ele>117.42</ele>
        <time>2016-02-06T14:28:42Z</time>
      </trkpt>
      <trkpt lat="44.4737" lon="1.01482">
        <ele>117.9</ele>
        <time>2016-02-06T14:29:03Z</time>
      </trkpt>
      <trkpt lat="44.47392" lon="1.01502">
        <ele>119.34</ele>
        <time>2016-02-06T14:29:14Z</time>
      </trkpt>
      <trkpt lat="44.47407" lon="1.01524">
        <ele>120.78</ele>
        <time>2016-02-06T14:29:23Z</time>
      </trkpt>
      <trkpt lat="44.47432" lon="1.0155">
        <ele>122.22</ele>
        <time>2016-02-06T14:29:35Z</time>
      </trkpt>
      <trkpt lat="44.4746" lon="1.01579">
        <ele>125.59</ele>
        <time>2016-02-06T14:29:49Z</time>
      </trkpt>
      <trkpt lat="44.47483" lon="1.01591">
        <ele>127.03</ele>
        <time>2016-02-06T14:29:59Z</time>
      </trkpt>
      <trkpt lat="44.47505" lon="1.01619">
        <ele>127.03</ele>
        <time>2016-02-06T14:30:10Z</time>
      </trkpt>
      <trkpt lat="44.47525" lon="1.01641">
        <ele>128.95</ele>
        <time>2016-02-06T14:30:20Z</time>
      </trkpt>
      <trkpt lat="44.47533" lon="1.01666">
        <ele>130.4</ele>
        <time>2016-02-06T14:30:32Z</time>
      </trkpt>
      <trkpt lat="44.4753" lon="1.01671">
        <ele>131.36</ele>
        <time>2016-02-06T14:30:35Z</time>
      </trkpt>
      <trkpt lat="44.47528" lon="1.01677">
        <ele>132.32</ele>
        <time>2016-02-06T14:30:47Z</time>
      </trkpt>
      <trkpt lat="44.47527" lon="1.01678">
        <ele>132.32</ele>
        <time>2016-02-06T14:30:56Z</time>
      </trkpt>
      <trkpt lat="44.47514" lon="1.01707">
        <ele>136.16</ele>
        <time>2016-02-06T14:31:11Z</time>
      </trkpt>
      <trkpt lat="44.47511" lon="1.01712">
        <ele>136.64</ele>
        <time>2016-02-06T14:31:14Z</time>
      </trkpt>
      <trkpt lat="44.47497" lon="1.01748">
        <ele>141.45</ele>
        <time>2016-02-06T14:31:31Z</time>
      </trkpt>
      <trkpt lat="44.47483" lon="1.01781">
        <ele>143.85</ele>
        <time>2016-02-06T14:31:46Z</time>
      </trkpt>
      <trkpt lat="44.47475" lon="1.01801">
        <ele>145.3</ele>
        <time>2016-02-06T14:31:56Z</time>
      </trkpt>
      <trkpt lat="44.47472" lon="1.0181">
        <ele>145.78</ele>
        <time>2016-02-06T14:32:00Z</time>
      </trkpt>
      <trkpt lat="44.47466" lon="1.01825">
        <ele>146.74</ele>
        <time>2016-02-06T14:32:07Z</time>
      </trkpt>
      <trkpt lat="44.47463" lon="1.01836">
        <ele>148.66</ele>
        <time>2016-02-06T14:32:12Z</time>
      </trkpt>
      <trkpt lat="44.47461" lon="1.01839">
        <ele>149.14</ele>
        <time>2016-02-06T14:32:14Z</time>
      </trkpt>
      <trkpt lat="44.47458" lon="1.01847">
        <ele>150.1</ele>
        <time>2016-02-06T14:32:18Z</time>
      </trkpt>
      <trkpt lat="44.47452" lon="1.0186">
        <ele>152.03</ele>
        <time>2016-02-06T14:32:24Z</time>
      </trkpt>
      <trkpt lat="44.4744" lon="1.01887">
        <ele>156.35</ele>
        <time>2016-02-06T14:32:38Z</time>
      </trkpt>
      <trkpt lat="44.47431" lon="1.01904">
        <ele>158.75</ele>
        <time>2016-02-06T14:32:47Z</time>
      </trkpt>
      <trkpt lat="44.4743" lon="1.01905">
        <ele>159.24</ele>
        <time>2016-02-06T14:32:48Z</time>
      </trkpt>
      <trkpt lat="44.47422" lon="1.01918">
        <ele>160.68</ele>
        <time>2016-02-06T14:33:01Z</time>
      </trkpt>
      <trkpt lat="44.4741" lon="1.01935">
        <ele>164.04</ele>
        <time>2016-02-06T14:33:17Z</time>
      </trkpt>
      <trkpt lat="44.47401" lon="1.01955">
        <ele>165.96</ele>
        <time>2016-02-06T14:33:32Z</time>
      </trkpt>
      <trkpt lat="44.47392" lon="1.01975">
        <ele>168.37</ele>
        <time>2016-02-06T14:33:48Z</time>
      </trkpt>
      <trkpt lat="44.4739" lon="1.0198">
        <ele>168.85</ele>
        <time>2016-02-06T14:33:53Z</time>
      </trkpt>
      <trkpt lat="44.47389" lon="1.01982">
        <ele>168.85</ele>
        <time>2016-02-06T14:33:54Z</time>
      </trkpt>
      <trkpt lat="44.47389" lon="1.01983">
        <ele>168.85</ele>
        <time>2016-02-06T14:33:55Z</time>
      </trkpt>
      <trkpt lat="44.4738" lon="1.02003">
        <ele>171.73</ele>
        <time>2016-02-06T14:34:11Z</time>
      </trkpt>
      <trkpt lat="44.4737" lon="1.02035">
        <ele>175.1</ele>
        <time>2016-02-06T14:34:32Z</time>
      </trkpt>
      <trkpt lat="44.47366" lon="1.02047">
        <ele>175.1</ele>
        <time>2016-02-06T14:34:43Z</time>
      </trkpt>
      <trkpt lat="44.47352" lon="1.0209">
        <ele>177.02</ele>
        <time>2016-02-06T14:34:55Z</time>
      </trkpt>
      <trkpt lat="44.47335" lon="1.02137">
        <ele>177.5</ele>
        <time>2016-02-06T14:35:08Z</time>
      </trkpt>
      <trkpt lat="44.47323" lon="1.02185">
        <ele>177.5</ele>
        <time>2016-02-06T14:35:22Z</time>
      </trkpt>
      <trkpt lat="44.47318" lon="1.02225">
        <ele>176.54</ele>
        <time>2016-02-06T14:35:36Z</time>
      </trkpt>
      <trkpt lat="44.47319" lon="1.02232">
        <ele>177.02</ele>
        <time>2016-02-06T14:35:47Z</time>
      </trkpt>
      <trkpt lat="44.47318" lon="1.02232">
        <ele>177.02</ele>
        <time>2016-02-06T14:36:00Z</time>
      </trkpt>
      <trkpt lat="44.47318" lon="1.02234">
        <ele>177.98</ele>
        <time>2016-02-06T14:36:21Z</time>
      </trkpt>
      <trkpt lat="44.47317" lon="1.02235">
        <ele>177.98</ele>
        <time>2016-02-06T14:36:45Z</time>
      </trkpt>
      <trkpt lat="44.47316" lon="1.02235">
        <ele>177.98</ele>
        <time>2016-02-06T14:37:22Z</time>
      </trkpt>
      <trkpt lat="44.47316" lon="1.02234">
        <ele>177.5</ele>
        <time>2016-02-06T14:37:41Z</time>
      </trkpt>
      <trkpt lat="44.47316" lon="1.02234">
        <ele>177.98</ele>
        <time>2016-02-06T14:38:06Z</time>
      </trkpt>
      <trkpt lat="44.47316" lon="1.02235">
        <ele>177.98</ele>
        <time>2016-02-06T14:38:33Z</time>
      </trkpt>
      <trkpt lat="44.47316" lon="1.02234">
        <ele>177.98</ele>
        <time>2016-02-06T14:38:54Z</time>
      </trkpt>
      <trkpt lat="44.47316" lon="1.02235">
        <ele>177.5</ele>
        <time>2016-02-06T14:39:17Z</time>
      </trkpt>
      <trkpt lat="44.47317" lon="1.02235">
        <ele>177.5</ele>
        <time>2016-02-06T14:39:40Z</time>
      </trkpt>
      <trkpt lat="44.47317" lon="1.02236">
        <ele>177.5</ele>
        <time>2016-02-06T14:40:08Z</time>
      </trkpt>
      <trkpt lat="44.47317" lon="1.02235">
        <ele>177.98</ele>
        <time>2016-02-06T14:40:33Z</time>
      </trkpt>
      <trkpt lat="44.47318" lon="1.02235">
        <ele>177.98</ele>
        <time>2016-02-06T14:41:01Z</time>
      </trkpt>
      <trkpt lat="44.47317" lon="1.02236">
        <ele>177.02</ele>
        <time>2016-02-06T14:41:30Z</time>
      </trkpt>
      <trkpt lat="44.47317" lon="1.02236">
        <ele>177.5</ele>
        <time>2016-02-06T14:41:55Z</time>
      </trkpt>
      <trkpt lat="44.47317" lon="1.02235">
        <ele>177.02</ele>
        <time>2016-02-06T14:42:17Z</time>
      </trkpt>
      <trkpt lat="44.47313" lon="1.02259">
        <ele>175.1</ele>
        <time>2016-02-06T14:42:28Z</time>
      </trkpt>
      <trkpt lat="44.47314" lon="1.02267">
        <ele>174.62</ele>
        <time>2016-02-06T14:42:38Z</time>
      </trkpt>
      <trkpt lat="44.47312" lon="1.02278">
        <ele>173.17</ele>
        <time>2016-02-06T14:42:42Z</time>
      </trkpt>
      <trkpt lat="44.47312" lon="1.02291">
        <ele>170.77</ele>
        <time>2016-02-06T14:42:46Z</time>
      </trkpt>
      <trkpt lat="44.47312" lon="1.02306">
        <ele>167.41</ele>
        <time>2016-02-06T14:42:51Z</time>
      </trkpt>
      <trkpt lat="44.47319" lon="1.02316">
        <ele>165.48</ele>
        <time>2016-02-06T14:42:56Z</time>
      </trkpt>
      <trkpt lat="44.4732" lon="1.0233">
        <ele>160.68</ele>
        <time>2016-02-06T14:43:04Z</time>
      </trkpt>
      <trkpt lat="44.47318" lon="1.02333">
        <ele>159.72</ele>
        <time>2016-02-06T14:43:06Z</time>
      </trkpt>
      <trkpt lat="44.47315" lon="1.02341">
        <ele>157.31</ele>
        <time>2016-02-06T14:43:15Z</time>
      </trkpt>
      <trkpt lat="44.47316" lon="1.02343">
        <ele>156.83</ele>
        <time>2016-02-06T14:43:20Z</time>
      </trkpt>
      <trkpt lat="44.47319" lon="1.02353">
        <ele>155.39</ele>
        <time>2016-02-06T14:43:24Z</time>
      </trkpt>
      <trkpt lat="44.4732" lon="1.02363">
        <ele>152.99</ele>
        <time>2016-02-06T14:43:29Z</time>
      </trkpt>
      <trkpt lat="44.47315" lon="1.02376">
        <ele>151.06</ele>
        <time>2016-02-06T14:43:35Z</time>
      </trkpt>
      <trkpt lat="44.47316" lon="1.02402">
        <ele>150.1</ele>
        <time>2016-02-06T14:43:42Z</time>
      </trkpt>
      <trkpt lat="44.47317" lon="1.02423">
        <ele>147.7</ele>
        <time>2016-02-06T14:43:46Z</time>
      </trkpt>
      <trkpt lat="44.47317" lon="1.02431">
        <ele>146.74</ele>
        <time>2016-02-06T14:43:48Z</time>
      </trkpt>
      <trkpt lat="44.47316" lon="1.02445">
        <ele>144.34</ele>
        <time>2016-02-06T14:43:57Z</time>
      </trkpt>
      <trkpt lat="44.47318" lon="1.02445">
        <ele>144.34</ele>
        <time>2016-02-06T14:44:18Z</time>
      </trkpt>
      <trkpt lat="44.47318" lon="1.02446">
        <ele>144.34</ele>
        <time>2016-02-06T14:44:43Z</time>
      </trkpt>
      <trkpt lat="44.47319" lon="1.02447">
        <ele>143.85</ele>
        <time>2016-02-06T14:45:12Z</time>
      </trkpt>
      <trkpt lat="44.47316" lon="1.0247">
        <ele>143.37</ele>
        <time>2016-02-06T14:45:20Z</time>
      </trkpt>
      <trkpt lat="44.47315" lon="1.025">
        <ele>141.45</ele>
        <time>2016-02-06T14:45:29Z</time>
      </trkpt>
      <trkpt lat="44.47315" lon="1.02505">
        <ele>140.97</ele>
        <time>2016-02-06T14:45:33Z</time>
      </trkpt>
      <trkpt lat="44.47315" lon="1.02519">
        <ele>139.05</ele>
        <time>2016-02-06T14:45:39Z</time>
      </trkpt>
      <trkpt lat="44.47308" lon="1.0256">
        <ele>134.72</ele>
        <time>2016-02-06T14:45:52Z</time>
      </trkpt>
      <trkpt lat="44.473" lon="1.02584">
        <ele>135.2</ele>
        <time>2016-02-06T14:45:59Z</time>
      </trkpt>
      <trkpt lat="44.47304" lon="1.02586">
        <ele>136.64</ele>
        <time>2016-02-06T14:46:03Z</time>
      </trkpt>
      <trkpt lat="44.47307" lon="1.02585">
        <ele>137.61</ele>
        <time>2016-02-06T14:46:16Z</time>
      </trkpt>
      <trkpt lat="44.47307" lon="1.02583">
        <ele>138.57</ele>
        <time>2016-02-06T14:46:32Z</time>
      </trkpt>
      <trkpt lat="44.47307" lon="1.02583">
        <ele>139.53</ele>
        <time>2016-02-06T14:46:53Z</time>
      </trkpt>
      <trkpt lat="44.47306" lon="1.02582">
        <ele>139.53</ele>
        <time>2016-02-06T14:47:10Z</time>
      </trkpt>
      <trkpt lat="44.47306" lon="1.02583">
        <ele>139.53</ele>
        <time>2016-02-06T14:47:24Z</time>
      </trkpt>
      <trkpt lat="44.47306" lon="1.02584">
        <ele>139.05</ele>
        <time>2016-02-06T14:47:43Z</time>
      </trkpt>
      <trkpt lat="44.47306" lon="1.02585">
        <ele>139.05</ele>
        <time>2016-02-06T14:48:05Z</time>
      </trkpt>
      <trkpt lat="44.47305" lon="1.02586">
        <ele>138.57</ele>
        <time>2016-02-06T14:48:21Z</time>
      </trkpt>
      <trkpt lat="44.47305" lon="1.02586">
        <ele>138.57</ele>
        <time>2016-02-06T14:48:23Z</time>
      </trkpt>
      <trkpt lat="44.47302" lon="1.02595">
        <ele>139.05</ele>
        <time>2016-02-06T14:48:31Z</time>
      </trkpt>
      <trkpt lat="44.47303" lon="1.02592">
        <ele>139.53</ele>
        <time>2016-02-06T14:48:45Z</time>
      </trkpt>
      <trkpt lat="44.47303" lon="1.02593">
        <ele>139.53</ele>
        <time>2016-02-06T14:48:57Z</time>
      </trkpt>
      <trkpt lat="44.47303" lon="1.02593">
        <ele>139.53</ele>
        <time>2016-02-06T14:49:01Z</time>
      </trkpt>
      <trkpt lat="44.47295" lon="1.02626">
        <ele>142.89</ele>
        <time>2016-02-06T14:49:15Z</time>
      </trkpt>
      <trkpt lat="44.47288" lon="1.02658">
        <ele>146.74</ele>
        <time>2016-02-06T14:49:27Z</time>
      </trkpt>
      <trkpt lat="44.47282" lon="1.02687">
        <ele>148.66</ele>
        <time>2016-02-06T14:49:38Z</time>
      </trkpt>
      <trkpt lat="44.47281" lon="1.02694">
        <ele>149.62</ele>
        <time>2016-02-06T14:49:45Z</time>
      </trkpt>
      <trkpt lat="44.47275" lon="1.0271">
        <ele>149.14</ele>
        <time>2016-02-06T14:49:58Z</time>
      </trkpt>
      <trkpt lat="44.47275" lon="1.0271">
        <ele>149.14</ele>
        <time>2016-02-06T14:50:00Z</time>
      </trkpt>
      <trkpt lat="44.47273" lon="1.02717">
        <ele>149.14</ele>
        <time>2016-02-06T14:50:04Z</time>
      </trkpt>
      <trkpt lat="44.47268" lon="1.02743">
        <ele>152.03</ele>
        <time>2016-02-06T14:50:15Z</time>
      </trkpt>
      <trkpt lat="44.47268" lon="1.02743">
        <ele>152.03</ele>
        <time>2016-02-06T14:50:16Z</time>
      </trkpt>
      <trkpt lat="44.47261" lon="1.02768">
        <ele>153.47</ele>
        <time>2016-02-06T14:50:27Z</time>
      </trkpt>
      <trkpt lat="44.47259" lon="1.0278">
        <ele>154.43</ele>
        <time>2016-02-06T14:50:31Z</time>
      </trkpt>
      <trkpt lat="44.47256" lon="1.02799">
        <ele>155.87</ele>
        <time>2016-02-06T14:50:41Z</time>
      </trkpt>
      <trkpt lat="44.47256" lon="1.02799">
        <ele>155.39</ele>
        <time>2016-02-06T14:50:57Z</time>
      </trkpt>
      <trkpt lat="44.47257" lon="1.02799">
        <ele>155.87</ele>
        <time>2016-02-06T14:51:16Z</time>
      </trkpt>
      <trkpt lat="44.47257" lon="1.028">
        <ele>155.39</ele>
        <time>2016-02-06T14:51:39Z</time>
      </trkpt>
      <trkpt lat="44.47257" lon="1.02801">
        <ele>154.91</ele>
        <time>2016-02-06T14:51:57Z</time>
      </trkpt>
      <trkpt lat="44.47252" lon="1.02808">
        <ele>154.91</ele>
        <time>2016-02-06T14:52:05Z</time>
      </trkpt>
      <trkpt lat="44.47244" lon="1.02855">
        <ele>155.87</ele>
        <time>2016-02-06T14:52:19Z</time>
      </trkpt>
      <trkpt lat="44.47248" lon="1.02903">
        <ele>155.87</ele>
        <time>2016-02-06T14:52:31Z</time>
      </trkpt>
      <trkpt lat="44.47255" lon="1.02954">
        <ele>151.54</ele>
        <time>2016-02-06T14:52:45Z</time>
      </trkpt>
      <trkpt lat="44.47254" lon="1.02963">
        <ele>150.1</ele>
        <time>2016-02-06T14:52:48Z</time>
      </trkpt>
      <trkpt lat="44.47258" lon="1.02978">
        <ele>148.18</ele>
        <time>2016-02-06T14:52:57Z</time>
      </trkpt>
      <trkpt lat="44.47258" lon="1.02984">
        <ele>149.14</ele>
        <time>2016-02-06T14:53:10Z</time>
      </trkpt>
      <trkpt lat="44.47254" lon="1.02986">
        <ele>148.66</ele>
        <time>2016-02-06T14:53:22Z</time>
      </trkpt>
      <trkpt lat="44.47254" lon="1.02988">
        <ele>149.14</ele>
        <time>2016-02-06T14:53:35Z</time>
      </trkpt>
      <trkpt lat="44.47257" lon="1.02989">
        <ele>150.58</ele>
        <time>2016-02-06T14:53:47Z</time>
      </trkpt>
      <trkpt lat="44.47258" lon="1.02989">
        <ele>151.06</ele>
        <time>2016-02-06T14:54:03Z</time>
      </trkpt>
      <trkpt lat="44.47258" lon="1.02988">
        <ele>150.58</ele>
        <time>2016-02-06T14:54:08Z</time>
      </trkpt>
      <trkpt lat="44.47259" lon="1.02979">
        <ele>151.06</ele>
        <time>2016-02-06T14:54:15Z</time>
      </trkpt>
      <trkpt lat="44.47252" lon="1.02971">
        <ele>153.47</ele>
        <time>2016-02-06T14:54:28Z</time>
      </trkpt>
      <trkpt lat="44.4725" lon="1.02969">
        <ele>153.47</ele>
        <time>2016-02-06T14:54:42Z</time>
      </trkpt>
      <trkpt lat="44.47254" lon="1.02966">
        <ele>154.43</ele>
        <time>2016-02-06T14:54:57Z</time>
      </trkpt>
      <trkpt lat="44.47254" lon="1.02949">
        <ele>157.79</ele>
        <time>2016-02-06T14:55:13Z</time>
      </trkpt>
      <trkpt lat="44.47253" lon="1.02924">
        <ele>157.31</ele>
        <time>2016-02-06T14:55:26Z</time>
      </trkpt>
      <trkpt lat="44.47251" lon="1.0292">
        <ele>157.79</ele>
        <time>2016-02-06T14:55:29Z</time>
      </trkpt>
      <trkpt lat="44.47252" lon="1.02919">
        <ele>158.27</ele>
        <time>2016-02-06T14:55:36Z</time>
      </trkpt>
      <trkpt lat="44.47247" lon="1.02891">
        <ele>157.79</ele>
        <time>2016-02-06T14:55:48Z</time>
      </trkpt>
      <trkpt lat="44.47247" lon="1.02849">
        <ele>158.27</ele>
        <time>2016-02-06T14:56:02Z</time>
      </trkpt>
      <trkpt lat="44.47253" lon="1.02809">
        <ele>156.83</ele>
        <time>2016-02-06T14:56:14Z</time>
      </trkpt>
      <trkpt lat="44.47261" lon="1.0278">
        <ele>154.91</ele>
        <time>2016-02-06T14:56:23Z</time>
      </trkpt>
      <trkpt lat="44.47266" lon="1.02765">
        <ele>153.95</ele>
        <time>2016-02-06T14:56:28Z</time>
      </trkpt>
      <trkpt lat="44.47269" lon="1.02744">
        <ele>151.54</ele>
        <time>2016-02-06T14:56:33Z</time>
      </trkpt>
      <trkpt lat="44.47269" lon="1.02736">
        <ele>150.1</ele>
        <time>2016-02-06T14:56:38Z</time>
      </trkpt>
      <trkpt lat="44.47271" lon="1.02728">
        <ele>149.14</ele>
        <time>2016-02-06T14:56:45Z</time>
      </trkpt>
      <trkpt lat="44.47268" lon="1.02732">
        <ele>147.22</ele>
        <time>2016-02-06T14:57:00Z</time>
      </trkpt>
      <trkpt lat="44.47269" lon="1.02733">
        <ele>146.26</ele>
        <time>2016-02-06T14:57:22Z</time>
      </trkpt>
      <trkpt lat="44.47272" lon="1.02725">
        <ele>147.22</ele>
        <time>2016-02-06T14:57:33Z</time>
      </trkpt>
      <trkpt lat="44.47275" lon="1.02717">
        <ele>147.7</ele>
        <time>2016-02-06T14:57:38Z</time>
      </trkpt>
      <trkpt lat="44.47278" lon="1.02711">
        <ele>148.18</ele>
        <time>2016-02-06T14:57:41Z</time>
      </trkpt>
      <trkpt lat="44.47281" lon="1.02701">
        <ele>149.14</ele>
        <time>2016-02-06T14:57:52Z</time>
      </trkpt>
      <trkpt lat="44.47282" lon="1.027">
        <ele>148.66</ele>
        <time>2016-02-06T14:58:16Z</time>
      </trkpt>
      <trkpt lat="44.47282" lon="1.027">
        <ele>148.18</ele>
        <time>2016-02-06T14:58:33Z</time>
      </trkpt>
      <trkpt lat="44.47282" lon="1.027">
        <ele>148.18</ele>
        <time>2016-02-06T14:58:48Z</time>
      </trkpt>
      <trkpt lat="44.47284" lon="1.02704">
        <ele>146.74</ele>
        <time>2016-02-06T14:58:52Z</time>
      </trkpt>
      <trkpt lat="44.47291" lon="1.02728">
        <ele>141.93</ele>
        <time>2016-02-06T14:59:01Z</time>
      </trkpt>
      <trkpt lat="44.47288" lon="1.02761">
        <ele>136.16</ele>
        <time>2016-02-06T14:59:12Z</time>
      </trkpt>
      <trkpt lat="44.47293" lon="1.02795">
        <ele>131.36</ele>
        <time>2016-02-06T14:59:22Z</time>
      </trkpt>
      <trkpt lat="44.47297" lon="1.02838">
        <ele>122.71</ele>
        <time>2016-02-06T14:59:34Z</time>
      </trkpt>
      <trkpt lat="44.47301" lon="1.02876">
        <ele>114.05</ele>
        <time>2016-02-06T14:59:43Z</time>
      </trkpt>
      <trkpt lat="44.47301" lon="1.0288">
        <ele>113.09</ele>
        <time>2016-02-06T14:59:44Z</time>
      </trkpt>
      <trkpt lat="44.473" lon="1.029">
        <ele>107.32</ele>
        <time>2016-02-06T14:59:54Z</time>
      </trkpt>
      <trkpt lat="44.47304" lon="1.02904">
        <ele>106.84</ele>
        <time>2016-02-06T15:00:07Z</time>
      </trkpt>
      <trkpt lat="44.47308" lon="1.02906">
        <ele>106.84</ele>
        <time>2016-02-06T15:00:27Z</time>
      </trkpt>
      <trkpt lat="44.47311" lon="1.02907">
        <ele>110.21</ele>
        <time>2016-02-06T15:00:46Z</time>
      </trkpt>
      <trkpt lat="44.47313" lon="1.02914">
        <ele>108.77</ele>
        <time>2016-02-06T15:00:59Z</time>
      </trkpt>
      <trkpt lat="44.47311" lon="1.02963">
        <ele>99.63</ele>
        <time>2016-02-06T15:01:08Z</time>
      </trkpt>
      <trkpt lat="44.47312" lon="1.0297">
        <ele>98.67</ele>
        <time>2016-02-06T15:01:10Z</time>
      </trkpt>
      <trkpt lat="44.47315" lon="1.0301">
        <ele>89.06</ele>
        <time>2016-02-06T15:01:19Z</time>
      </trkpt>
      <trkpt lat="44.47313" lon="1.03028">
        <ele>79.45</ele>
        <time>2016-02-06T15:01:28Z</time>
      </trkpt>
      <trkpt lat="44.47318" lon="1.03036">
        <ele>80.89</ele>
        <time>2016-02-06T15:01:49Z</time>
      </trkpt>
      <trkpt lat="44.47319" lon="1.0304">
        <ele>80.41</ele>
        <time>2016-02-06T15:01:52Z</time>
      </trkpt>
      <trkpt lat="44.47318" lon="1.03054">
        <ele>77.52</ele>
        <time>2016-02-06T15:01:56Z</time>
      </trkpt>
      <trkpt lat="44.47319" lon="1.03067">
        <ele>73.68</ele>
        <time>2016-02-06T15:01:59Z</time>
      </trkpt>
      <trkpt lat="44.47319" lon="1.03088">
        <ele>65.51</ele>
        <time>2016-02-06T15:02:05Z</time>
      </trkpt>
      <trkpt lat="44.47319" lon="1.03098">
        <ele>60.7</ele>
        <time>2016-02-06T15:02:08Z</time>
      </trkpt>
      <trkpt lat="44.4732" lon="1.03119">
        <ele>53.49</ele>
        <time>2016-02-06T15:02:14Z</time>
      </trkpt>
      <trkpt lat="44.47321" lon="1.03152">
        <ele>42.44</ele>
        <time>2016-02-06T15:02:26Z</time>
      </trkpt>
      <trkpt lat="44.47323" lon="1.03156">
        <ele>41.95</ele>
        <time>2016-02-06T15:02:32Z</time>
      </trkpt>
      <trkpt lat="44.47326" lon="1.03161">
        <ele>41.47</ele>
        <time>2016-02-06T15:02:35Z</time>
      </trkpt>
      <trkpt lat="44.47334" lon="1.03175">
        <ele>40.99</ele>
        <time>2016-02-06T15:02:41Z</time>
      </trkpt>
      <trkpt lat="44.4735" lon="1.03184">
        <ele>49.65</ele>
        <time>2016-02-06T15:02:55Z</time>
      </trkpt>
      <trkpt lat="44.47361" lon="1.03187">
        <ele>56.86</ele>
        <time>2016-02-06T15:03:13Z</time>
      </trkpt>
      <trkpt lat="44.47362" lon="1.03188">
        <ele>58.3</ele>
        <time>2016-02-06T15:03:22Z</time>
      </trkpt>
      <trkpt lat="44.47363" lon="1.03193">
        <ele>57.82</ele>
        <time>2016-02-06T15:03:25Z</time>
      </trkpt>
      <trkpt lat="44.47363" lon="1.03197">
        <ele>57.82</ele>
        <time>2016-02-06T15:03:26Z</time>
      </trkpt>
      <trkpt lat="44.47364" lon="1.032">
        <ele>57.82</ele>
        <time>2016-02-06T15:03:27Z</time>
      </trkpt>
      <trkpt lat="44.47365" lon="1.03202">
        <ele>57.34</ele>
        <time>2016-02-06T15:03:28Z</time>
      </trkpt>
      <trkpt lat="44.47366" lon="1.03206">
        <ele>56.86</ele>
        <time>2016-02-06T15:03:29Z</time>
      </trkpt>
      <trkpt lat="44.47367" lon="1.03209">
        <ele>56.86</ele>
        <time>2016-02-06T15:03:30Z</time>
      </trkpt>
      <trkpt lat="44.47368" lon="1.03214">
        <ele>56.37</ele>
        <time>2016-02-06T15:03:31Z</time>
      </trkpt>
      <trkpt lat="44.47369" lon="1.03219">
        <ele>55.89</ele>
        <time>2016-02-06T15:03:32Z</time>
      </trkpt>
      <trkpt lat="44.47371" lon="1.03225">
        <ele>55.41</ele>
        <time>2016-02-06T15:03:33Z</time>
      </trkpt>
      <trkpt lat="44.47372" lon="1.0323">
        <ele>54.93</ele>
        <time>2016-02-06T15:03:34Z</time>
      </trkpt>
      <trkpt lat="44.47373" lon="1.03237">
        <ele>54.45</ele>
        <time>2016-02-06T15:03:35Z</time>
      </trkpt>
      <trkpt lat="44.47372" lon="1.03286">
        <ele>53.01</ele>
        <time>2016-02-06T15:03:43Z</time>
      </trkpt>
      <trkpt lat="44.47372" lon="1.03292">
        <ele>53.01</ele>
        <time>2016-02-06T15:03:44Z</time>
      </trkpt>
      <trkpt lat="44.47371" lon="1.03297">
        <ele>53.01</ele>
        <time>2016-02-06T15:03:45Z</time>
      </trkpt>
      <trkpt lat="44.4737" lon="1.03302">
        <ele>53.01</ele>
        <time>2016-02-06T15:03:46Z</time>
      </trkpt>
      <trkpt lat="44.4737" lon="1.03307">
        <ele>53.01</ele>
        <time>2016-02-06T15:03:47Z</time>
      </trkpt>
      <trkpt lat="44.4737" lon="1.03313">
        <ele>53.01</ele>
        <time>2016-02-06T15:03:48Z</time>
      </trkpt>
      <trkpt lat="44.4737" lon="1.03319">
        <ele>53.49</ele>
        <time>2016-02-06T15:03:49Z</time>
      </trkpt>
      <trkpt lat="44.4737" lon="1.03338">
        <ele>53.97</ele>
        <time>2016-02-06T15:03:52Z</time>
      </trkpt>
      <trkpt lat="44.47371" lon="1.03343">
        <ele>53.49</ele>
        <time>2016-02-06T15:03:53Z</time>
      </trkpt>
      <trkpt lat="44.47372" lon="1.03401">
        <ele>54.93</ele>
        <time>2016-02-06T15:04:02Z</time>
      </trkpt>
      <trkpt lat="44.47373" lon="1.03407">
        <ele>54.93</ele>
        <time>2016-02-06T15:04:03Z</time>
      </trkpt>
      <trkpt lat="44.47374" lon="1.03414">
        <ele>54.93</ele>
        <time>2016-02-06T15:04:04Z</time>
      </trkpt>
      <trkpt lat="44.47374" lon="1.03418">
        <ele>54.93</ele>
        <time>2016-02-06T15:04:05Z</time>
      </trkpt>
      <trkpt lat="44.47373" lon="1.03422">
        <ele>54.45</ele>
        <time>2016-02-06T15:04:06Z</time>
      </trkpt>
      <trkpt lat="44.47372" lon="1.03427">
        <ele>53.97</ele>
        <time>2016-02-06T15:04:07Z</time>
      </trkpt>
      <trkpt lat="44.47371" lon="1.03432">
        <ele>53.97</ele>
        <time>2016-02-06T15:04:08Z</time>
      </trkpt>
      <trkpt lat="44.4737" lon="1.03436">
        <ele>53.49</ele>
        <time>2016-02-06T15:04:09Z</time>
      </trkpt>
      <trkpt lat="44.47364" lon="1.03455">
        <ele>51.09</ele>
        <time>2016-02-06T15:04:13Z</time>
      </trkpt>
      <trkpt lat="44.4736" lon="1.03474">
        <ele>48.2</ele>
        <time>2016-02-06T15:04:17Z</time>
      </trkpt>
      <trkpt lat="44.47372" lon="1.03544">
        <ele>48.68</ele>
        <time>2016-02-06T15:04:28Z</time>
      </trkpt>
      <trkpt lat="44.47377" lon="1.03582">
        <ele>48.2</ele>
        <time>2016-02-06T15:04:34Z</time>
      </trkpt>
      <trkpt lat="44.47379" lon="1.03612">
        <ele>47.72</ele>
        <time>2016-02-06T15:04:39Z</time>
      </trkpt>
      <trkpt lat="44.47383" lon="1.03631">
        <ele>48.2</ele>
        <time>2016-02-06T15:04:42Z</time>
      </trkpt>
      <trkpt lat="44.47384" lon="1.03638">
        <ele>48.2</ele>
        <time>2016-02-06T15:04:43Z</time>
      </trkpt>
      <trkpt lat="44.47385" lon="1.03644">
        <ele>48.68</ele>
        <time>2016-02-06T15:04:44Z</time>
      </trkpt>
      <trkpt lat="44.47387" lon="1.0365">
        <ele>48.68</ele>
        <time>2016-02-06T15:04:45Z</time>
      </trkpt>
      <trkpt lat="44.47388" lon="1.03656">
        <ele>49.16</ele>
        <time>2016-02-06T15:04:46Z</time>
      </trkpt>
      <trkpt lat="44.4739" lon="1.03663">
        <ele>49.16</ele>
        <time>2016-02-06T15:04:47Z</time>
      </trkpt>
      <trkpt lat="44.47392" lon="1.03669">
        <ele>49.16</ele>
        <time>2016-02-06T15:04:48Z</time>
      </trkpt>
      <trkpt lat="44.47393" lon="1.03675">
        <ele>49.16</ele>
        <time>2016-02-06T15:04:49Z</time>
      </trkpt>
      <trkpt lat="44.47395" lon="1.03681">
        <ele>49.16</ele>
        <time>2016-02-06T15:04:50Z</time>
      </trkpt>
      <trkpt lat="44.47398" lon="1.03693">
        <ele>49.16</ele>
        <time>2016-02-06T15:04:52Z</time>
      </trkpt>
      <trkpt lat="44.47399" lon="1.03699">
        <ele>48.68</ele>
        <time>2016-02-06T15:04:53Z</time>
      </trkpt>
      <trkpt lat="44.47409" lon="1.03767">
        <ele>47.24</ele>
        <time>2016-02-06T15:05:05Z</time>
      </trkpt>
      <trkpt lat="44.47412" lon="1.03785">
        <ele>47.24</ele>
        <time>2016-02-06T15:05:08Z</time>
      </trkpt>
      <trkpt lat="44.47419" lon="1.03834">
        <ele>46.28</ele>
        <time>2016-02-06T15:05:17Z</time>
      </trkpt>
      <trkpt lat="44.4742" lon="1.0384">
        <ele>46.28</ele>
        <time>2016-02-06T15:05:18Z</time>
      </trkpt>
      <trkpt lat="44.47421" lon="1.03846">
        <ele>45.8</ele>
        <time>2016-02-06T15:05:19Z</time>
      </trkpt>
      <trkpt lat="44.47421" lon="1.03852">
        <ele>45.8</ele>
        <time>2016-02-06T15:05:20Z</time>
      </trkpt>
      <trkpt lat="44.47422" lon="1.03858">
        <ele>45.32</ele>
        <time>2016-02-06T15:05:21Z</time>
      </trkpt>
      <trkpt lat="44.47422" lon="1.03864">
        <ele>45.32</ele>
        <time>2016-02-06T15:05:22Z</time>
      </trkpt>
      <trkpt lat="44.47423" lon="1.03871">
        <ele>45.32</ele>
        <time>2016-02-06T15:05:23Z</time>
      </trkpt>
      <trkpt lat="44.47429" lon="1.03896">
        <ele>45.8</ele>
        <time>2016-02-06T15:05:27Z</time>
      </trkpt>
      <trkpt lat="44.47431" lon="1.03902">
        <ele>45.8</ele>
        <time>2016-02-06T15:05:28Z</time>
      </trkpt>
      <trkpt lat="44.47436" lon="1.0392">
        <ele>46.76</ele>
        <time>2016-02-06T15:05:31Z</time>
      </trkpt>
      <trkpt lat="44.47438" lon="1.03926">
        <ele>47.24</ele>
        <time>2016-02-06T15:05:32Z</time>
      </trkpt>
      <trkpt lat="44.47449" lon="1.03964">
        <ele>49.16</ele>
        <time>2016-02-06T15:05:38Z</time>
      </trkpt>
      <trkpt lat="44.47453" lon="1.0397">
        <ele>50.13</ele>
        <time>2016-02-06T15:05:39Z</time>
      </trkpt>
      <trkpt lat="44.47501" lon="1.0407">
        <ele>61.18</ele>
        <time>2016-02-06T15:05:54Z</time>
      </trkpt>
      <trkpt lat="44.47514" lon="1.04124">
        <ele>61.18</ele>
        <time>2016-02-06T15:06:03Z</time>
      </trkpt>
      <trkpt lat="44.47516" lon="1.04135">
        <ele>61.18</ele>
        <time>2016-02-06T15:06:05Z</time>
      </trkpt>
      <trkpt lat="44.47518" lon="1.04141">
        <ele>61.18</ele>
        <time>2016-02-06T15:06:06Z</time>
      </trkpt>
      <trkpt lat="44.47519" lon="1.04146">
        <ele>61.18</ele>
        <time>2016-02-06T15:06:07Z</time>
      </trkpt>
      <trkpt lat="44.47523" lon="1.04163">
        <ele>61.18</ele>
        <time>2016-02-06T15:06:10Z</time>
      </trkpt>
      <trkpt lat="44.4754" lon="1.04221">
        <ele>64.07</ele>
        <time>2016-02-06T15:06:23Z</time>
      </trkpt>
      <trkpt lat="44.47544" lon="1.04227">
        <ele>64.55</ele>
        <time>2016-02-06T15:06:32Z</time>
      </trkpt>
      <trkpt lat="44.47544" lon="1.04226">
        <ele>65.51</ele>
        <time>2016-02-06T15:07:04Z</time>
      </trkpt>
      <trkpt lat="44.47544" lon="1.04228">
        <ele>66.95</ele>
        <time>2016-02-06T15:07:16Z</time>
      </trkpt>
      <trkpt lat="44.47548" lon="1.04235">
        <ele>65.99</ele>
        <time>2016-02-06T15:07:25Z</time>
      </trkpt>
      <trkpt lat="44.47552" lon="1.0425">
        <ele>65.51</ele>
        <time>2016-02-06T15:07:30Z</time>
      </trkpt>
      <trkpt lat="44.47552" lon="1.04253">
        <ele>65.03</ele>
        <time>2016-02-06T15:07:31Z</time>
      </trkpt>
      <trkpt lat="44.47552" lon="1.04257">
        <ele>64.55</ele>
        <time>2016-02-06T15:07:32Z</time>
      </trkpt>
      <trkpt lat="44.47552" lon="1.04262">
        <ele>63.58</ele>
        <time>2016-02-06T15:07:33Z</time>
      </trkpt>
      <trkpt lat="44.47554" lon="1.04267">
        <ele>63.1</ele>
        <time>2016-02-06T15:07:34Z</time>
      </trkpt>
      <trkpt lat="44.4757" lon="1.04318">
        <ele>60.22</ele>
        <time>2016-02-06T15:07:46Z</time>
      </trkpt>
      <trkpt lat="44.47581" lon="1.04345">
        <ele>60.22</ele>
        <time>2016-02-06T15:07:54Z</time>
      </trkpt>
      <trkpt lat="44.47581" lon="1.04348">
        <ele>60.22</ele>
        <time>2016-02-06T15:07:55Z</time>
      </trkpt>
      <trkpt lat="44.47582" lon="1.04351">
        <ele>60.7</ele>
        <time>2016-02-06T15:07:56Z</time>
      </trkpt>
      <trkpt lat="44.47584" lon="1.04355">
        <ele>60.7</ele>
        <time>2016-02-06T15:07:57Z</time>
      </trkpt>
      <trkpt lat="44.47585" lon="1.04358">
        <ele>61.18</ele>
        <time>2016-02-06T15:07:58Z</time>
      </trkpt>
      <trkpt lat="44.47586" lon="1.0436">
        <ele>61.18</ele>
        <time>2016-02-06T15:07:59Z</time>
      </trkpt>
      <trkpt lat="44.47586" lon="1.04363">
        <ele>61.18</ele>
        <time>2016-02-06T15:08:00Z</time>
      </trkpt>
      <trkpt lat="44.47586" lon="1.04365">
        <ele>61.18</ele>
        <time>2016-02-06T15:08:01Z</time>
      </trkpt>
      <trkpt lat="44.47585" lon="1.04368">
        <ele>61.66</ele>
        <time>2016-02-06T15:08:02Z</time>
      </trkpt>
      <trkpt lat="44.47585" lon="1.04371">
        <ele>61.66</ele>
        <time>2016-02-06T15:08:03Z</time>
      </trkpt>
      <trkpt lat="44.47585" lon="1.04374">
        <ele>61.66</ele>
        <time>2016-02-06T15:08:04Z</time>
      </trkpt>
      <trkpt lat="44.47584" lon="1.04393">
        <ele>61.66</ele>
        <time>2016-02-06T15:08:11Z</time>
      </trkpt>
      <trkpt lat="44.47584" lon="1.04395">
        <ele>61.66</ele>
        <time>2016-02-06T15:08:12Z</time>
      </trkpt>
      <trkpt lat="44.47584" lon="1.04398">
        <ele>61.66</ele>
        <time>2016-02-06T15:08:13Z</time>
      </trkpt>
      <trkpt lat="44.47584" lon="1.044">
        <ele>61.66</ele>
        <time>2016-02-06T15:08:14Z</time>
      </trkpt>
      <trkpt lat="44.47584" lon="1.04403">
        <ele>62.14</ele>
        <time>2016-02-06T15:08:15Z</time>
      </trkpt>
      <trkpt lat="44.47585" lon="1.04406">
        <ele>62.14</ele>
        <time>2016-02-06T15:08:16Z</time>
      </trkpt>
      <trkpt lat="44.47585" lon="1.04408">
        <ele>62.14</ele>
        <time>2016-02-06T15:08:17Z</time>
      </trkpt>
      <trkpt lat="44.47585" lon="1.04411">
        <ele>62.14</ele>
        <time>2016-02-06T15:08:18Z</time>
      </trkpt>
      <trkpt lat="44.47585" lon="1.04413">
        <ele>62.14</ele>
        <time>2016-02-06T15:08:19Z</time>
      </trkpt>
      <trkpt lat="44.47585" lon="1.04415">
        <ele>62.14</ele>
        <time>2016-02-06T15:08:20Z</time>
      </trkpt>
      <trkpt lat="44.47585" lon="1.04417">
        <ele>62.14</ele>
        <time>2016-02-06T15:08:21Z</time>
      </trkpt>
      <trkpt lat="44.47584" lon="1.0442">
        <ele>61.66</ele>
        <time>2016-02-06T15:08:22Z</time>
      </trkpt>
      <trkpt lat="44.47585" lon="1.04424">
        <ele>61.66</ele>
        <time>2016-02-06T15:08:24Z</time>
      </trkpt>
      <trkpt lat="44.47587" lon="1.04429">
        <ele>62.14</ele>
        <time>2016-02-06T15:08:26Z</time>
      </trkpt>
      <trkpt lat="44.47589" lon="1.04431">
        <ele>62.14</ele>
        <time>2016-02-06T15:08:27Z</time>
      </trkpt>
      <trkpt lat="44.4759" lon="1.04434">
        <ele>62.62</ele>
        <time>2016-02-06T15:08:28Z</time>
      </trkpt>
      <trkpt lat="44.47592" lon="1.04435">
        <ele>63.1</ele>
        <time>2016-02-06T15:08:29Z</time>
      </trkpt>
      <trkpt lat="44.47592" lon="1.04437">
        <ele>63.58</ele>
        <time>2016-02-06T15:08:30Z</time>
      </trkpt>
      <trkpt lat="44.47593" lon="1.04439">
        <ele>64.07</ele>
        <time>2016-02-06T15:08:31Z</time>
      </trkpt>
      <trkpt lat="44.47596" lon="1.04442">
        <ele>64.55</ele>
        <time>2016-02-06T15:08:32Z</time>
      </trkpt>
      <trkpt lat="44.47598" lon="1.04445">
        <ele>65.03</ele>
        <time>2016-02-06T15:08:33Z</time>
      </trkpt>
      <trkpt lat="44.47601" lon="1.04453">
        <ele>65.99</ele>
        <time>2016-02-06T15:08:36Z</time>
      </trkpt>
      <trkpt lat="44.47602" lon="1.04456">
        <ele>65.99</ele>
        <time>2016-02-06T15:08:37Z</time>
      </trkpt>
      <trkpt lat="44.47603" lon="1.04459">
        <ele>66.95</ele>
        <time>2016-02-06T15:08:38Z</time>
      </trkpt>
      <trkpt lat="44.47605" lon="1.04462">
        <ele>66.95</ele>
        <time>2016-02-06T15:08:39Z</time>
      </trkpt>
      <trkpt lat="44.47607" lon="1.04465">
        <ele>67.91</ele>
        <time>2016-02-06T15:08:40Z</time>
      </trkpt>
      <trkpt lat="44.47609" lon="1.04468">
        <ele>68.39</ele>
        <time>2016-02-06T15:08:41Z</time>
      </trkpt>
      <trkpt lat="44.47611" lon="1.0447">
        <ele>68.87</ele>
        <time>2016-02-06T15:08:42Z</time>
      </trkpt>
      <trkpt lat="44.47618" lon="1.04482">
        <ele>68.39</ele>
        <time>2016-02-06T15:08:47Z</time>
      </trkpt>
      <trkpt lat="44.47618" lon="1.04484">
        <ele>67.91</ele>
        <time>2016-02-06T15:08:48Z</time>
      </trkpt>
      <trkpt lat="44.47618" lon="1.04487">
        <ele>67.91</ele>
        <time>2016-02-06T15:08:49Z</time>
      </trkpt>
      <trkpt lat="44.47619" lon="1.0449">
        <ele>67.91</ele>
        <time>2016-02-06T15:08:50Z</time>
      </trkpt>
      <trkpt lat="44.4762" lon="1.04493">
        <ele>67.91</ele>
        <time>2016-02-06T15:08:51Z</time>
      </trkpt>
      <trkpt lat="44.47621" lon="1.04496">
        <ele>67.91</ele>
        <time>2016-02-06T15:08:52Z</time>
      </trkpt>
      <trkpt lat="44.47622" lon="1.04499">
        <ele>67.91</ele>
        <time>2016-02-06T15:08:53Z</time>
      </trkpt>
      <trkpt lat="44.47632" lon="1.04522">
        <ele>65.99</ele>
        <time>2016-02-06T15:09:01Z</time>
      </trkpt>
      <trkpt lat="44.47631" lon="1.04525">
        <ele>65.51</ele>
        <time>2016-02-06T15:09:02Z</time>
      </trkpt>
      <trkpt lat="44.47633" lon="1.04528">
        <ele>63.58</ele>
        <time>2016-02-06T15:09:05Z</time>
      </trkpt>
      <trkpt lat="44.47633" lon="1.04531">
        <ele>62.62</ele>
        <time>2016-02-06T15:09:06Z</time>
      </trkpt>
      <trkpt lat="44.47633" lon="1.04534">
        <ele>62.14</ele>
        <time>2016-02-06T15:09:07Z</time>
      </trkpt>
      <trkpt lat="44.47635" lon="1.04538">
        <ele>62.14</ele>
        <time>2016-02-06T15:09:08Z</time>
      </trkpt>
      <trkpt lat="44.47637" lon="1.04542">
        <ele>61.66</ele>
        <time>2016-02-06T15:09:09Z</time>
      </trkpt>
      <trkpt lat="44.47639" lon="1.04545">
        <ele>61.66</ele>
        <time>2016-02-06T15:09:10Z</time>
      </trkpt>
      <trkpt lat="44.4764" lon="1.04548">
        <ele>61.66</ele>
        <time>2016-02-06T15:09:11Z</time>
      </trkpt>
      <trkpt lat="44.47641" lon="1.04551">
        <ele>61.66</ele>
        <time>2016-02-06T15:09:12Z</time>
      </trkpt>
      <trkpt lat="44.47651" lon="1.04574">
        <ele>61.66</ele>
        <time>2016-02-06T15:09:21Z</time>
      </trkpt>
      <trkpt lat="44.47656" lon="1.0458">
        <ele>64.07</ele>
        <time>2016-02-06T15:09:33Z</time>
      </trkpt>
      <trkpt lat="44.47666" lon="1.04588">
        <ele>66.47</ele>
        <time>2016-02-06T15:09:47Z</time>
      </trkpt>
      <trkpt lat="44.47672" lon="1.046">
        <ele>67.43</ele>
        <time>2016-02-06T15:10:00Z</time>
      </trkpt>
      <trkpt lat="44.47673" lon="1.046">
        <ele>66.95</ele>
        <time>2016-02-06T15:10:01Z</time>
      </trkpt>
      <trkpt lat="44.47676" lon="1.04605">
        <ele>67.91</ele>
        <time>2016-02-06T15:10:07Z</time>
      </trkpt>
      <trkpt lat="44.4768" lon="1.04613">
        <ele>67.43</ele>
        <time>2016-02-06T15:10:19Z</time>
      </trkpt>
      <trkpt lat="44.47681" lon="1.04618">
        <ele>66.47</ele>
        <time>2016-02-06T15:10:22Z</time>
      </trkpt>
      <trkpt lat="44.47693" lon="1.04637">
        <ele>64.07</ele>
        <time>2016-02-06T15:10:34Z</time>
      </trkpt>
      <trkpt lat="44.47693" lon="1.04639">
        <ele>62.62</ele>
        <time>2016-02-06T15:10:40Z</time>
      </trkpt>
      <trkpt lat="44.4769" lon="1.04646">
        <ele>61.66</ele>
        <time>2016-02-06T15:10:45Z</time>
      </trkpt>
      <trkpt lat="44.47697" lon="1.0467">
        <ele>59.74</ele>
        <time>2016-02-06T15:10:55Z</time>
      </trkpt>
      <trkpt lat="44.477" lon="1.04678">
        <ele>59.74</ele>
        <time>2016-02-06T15:10:58Z</time>
      </trkpt>
      <trkpt lat="44.47701" lon="1.04686">
        <ele>59.26</ele>
        <time>2016-02-06T15:11:01Z</time>
      </trkpt>
      <trkpt lat="44.47705" lon="1.04703">
        <ele>57.82</ele>
        <time>2016-02-06T15:11:10Z</time>
      </trkpt>
      <trkpt lat="44.47708" lon="1.04707">
        <ele>57.82</ele>
        <time>2016-02-06T15:11:15Z</time>
      </trkpt>
      <trkpt lat="44.47712" lon="1.04713">
        <ele>58.3</ele>
        <time>2016-02-06T15:11:19Z</time>
      </trkpt>
      <trkpt lat="44.47715" lon="1.04721">
        <ele>58.78</ele>
        <time>2016-02-06T15:11:27Z</time>
      </trkpt>
      <trkpt lat="44.47719" lon="1.04731">
        <ele>58.78</ele>
        <time>2016-02-06T15:11:32Z</time>
      </trkpt>
      <trkpt lat="44.47721" lon="1.04733">
        <ele>58.78</ele>
        <time>2016-02-06T15:11:33Z</time>
      </trkpt>
      <trkpt lat="44.47723" lon="1.04736">
        <ele>58.78</ele>
        <time>2016-02-06T15:11:34Z</time>
      </trkpt>
      <trkpt lat="44.47727" lon="1.04742">
        <ele>58.3</ele>
        <time>2016-02-06T15:11:36Z</time>
      </trkpt>
      <trkpt lat="44.4773" lon="1.04745">
        <ele>58.3</ele>
        <time>2016-02-06T15:11:37Z</time>
      </trkpt>
      <trkpt lat="44.47741" lon="1.04759">
        <ele>58.78</ele>
        <time>2016-02-06T15:11:46Z</time>
      </trkpt>
      <trkpt lat="44.47743" lon="1.04762">
        <ele>59.26</ele>
        <time>2016-02-06T15:11:48Z</time>
      </trkpt>
      <trkpt lat="44.47744" lon="1.04764">
        <ele>59.26</ele>
        <time>2016-02-06T15:11:49Z</time>
      </trkpt>
      <trkpt lat="44.47744" lon="1.04766">
        <ele>59.74</ele>
        <time>2016-02-06T15:11:50Z</time>
      </trkpt>
      <trkpt lat="44.47746" lon="1.04769">
        <ele>60.22</ele>
        <time>2016-02-06T15:11:51Z</time>
      </trkpt>
      <trkpt lat="44.47747" lon="1.04771">
        <ele>60.7</ele>
        <time>2016-02-06T15:11:52Z</time>
      </trkpt>
      <trkpt lat="44.47747" lon="1.04773">
        <ele>60.7</ele>
        <time>2016-02-06T15:11:53Z</time>
      </trkpt>
      <trkpt lat="44.47765" lon="1.04801">
        <ele>65.99</ele>
        <time>2016-02-06T15:12:04Z</time>
      </trkpt>
      <trkpt lat="44.47768" lon="1.04804">
        <ele>65.99</ele>
        <time>2016-02-06T15:12:12Z</time>
      </trkpt>
      <trkpt lat="44.47768" lon="1.04806">
        <ele>65.99</ele>
        <time>2016-02-06T15:12:13Z</time>
      </trkpt>
      <trkpt lat="44.47769" lon="1.04808">
        <ele>66.47</ele>
        <time>2016-02-06T15:12:14Z</time>
      </trkpt>
      <trkpt lat="44.4777" lon="1.0481">
        <ele>66.47</ele>
        <time>2016-02-06T15:12:15Z</time>
      </trkpt>
      <trkpt lat="44.4777" lon="1.04812">
        <ele>66.95</ele>
        <time>2016-02-06T15:12:16Z</time>
      </trkpt>
      <trkpt lat="44.47771" lon="1.04813">
        <ele>66.95</ele>
        <time>2016-02-06T15:12:17Z</time>
      </trkpt>
      <trkpt lat="44.47771" lon="1.04815">
        <ele>66.95</ele>
        <time>2016-02-06T15:12:18Z</time>
      </trkpt>
      <trkpt lat="44.47773" lon="1.04818">
        <ele>67.43</ele>
        <time>2016-02-06T15:12:28Z</time>
      </trkpt>
      <trkpt lat="44.47773" lon="1.04819">
        <ele>67.43</ele>
        <time>2016-02-06T15:12:57Z</time>
      </trkpt>
      <trkpt lat="44.47775" lon="1.04823">
        <ele>68.87</ele>
        <time>2016-02-06T15:13:07Z</time>
      </trkpt>
      <trkpt lat="44.47776" lon="1.04823">
        <ele>68.87</ele>
        <time>2016-02-06T15:13:27Z</time>
      </trkpt>
      <trkpt lat="44.47778" lon="1.04824">
        <ele>68.87</ele>
        <time>2016-02-06T15:13:31Z</time>
      </trkpt>
      <trkpt lat="44.47779" lon="1.04825">
        <ele>68.39</ele>
        <time>2016-02-06T15:13:32Z</time>
      </trkpt>
      <trkpt lat="44.47782" lon="1.0483">
        <ele>68.87</ele>
        <time>2016-02-06T15:13:34Z</time>
      </trkpt>
      <trkpt lat="44.47783" lon="1.04833">
        <ele>68.87</ele>
        <time>2016-02-06T15:13:35Z</time>
      </trkpt>
      <trkpt lat="44.47803" lon="1.04868">
        <ele>69.35</ele>
        <time>2016-02-06T15:13:46Z</time>
      </trkpt>
      <trkpt lat="44.47805" lon="1.04872">
        <ele>69.35</ele>
        <time>2016-02-06T15:13:50Z</time>
      </trkpt>
      <trkpt lat="44.47807" lon="1.04875">
        <ele>69.83</ele>
        <time>2016-02-06T15:13:52Z</time>
      </trkpt>
      <trkpt lat="44.47809" lon="1.04875">
        <ele>69.83</ele>
        <time>2016-02-06T15:13:53Z</time>
      </trkpt>
      <trkpt lat="44.47822" lon="1.04883">
        <ele>69.35</ele>
        <time>2016-02-06T15:13:58Z</time>
      </trkpt>
      <trkpt lat="44.47843" lon="1.049">
        <ele>66.95</ele>
        <time>2016-02-06T15:14:10Z</time>
      </trkpt>
      <trkpt lat="44.47846" lon="1.04898">
        <ele>66.95</ele>
        <time>2016-02-06T15:14:24Z</time>
      </trkpt>
      <trkpt lat="44.47848" lon="1.04898">
        <ele>66.95</ele>
        <time>2016-02-06T15:14:51Z</time>
      </trkpt>
      <trkpt lat="44.47847" lon="1.04898">
        <ele>69.83</ele>
        <time>2016-02-06T15:15:21Z</time>
      </trkpt>
      <trkpt lat="44.47848" lon="1.049">
        <ele>66.95</ele>
        <time>2016-02-06T15:15:59Z</time>
      </trkpt>
      <trkpt lat="44.47848" lon="1.049">
        <ele>65.51</ele>
        <time>2016-02-06T15:16:27Z</time>
      </trkpt>
      <trkpt lat="44.47847" lon="1.04897">
        <ele>64.55</ele>
        <time>2016-02-06T15:17:01Z</time>
      </trkpt>
      <trkpt lat="44.47848" lon="1.04897">
        <ele>64.55</ele>
        <time>2016-02-06T15:17:35Z</time>
      </trkpt>
      <trkpt lat="44.47847" lon="1.04899">
        <ele>64.55</ele>
        <time>2016-02-06T15:18:08Z</time>
      </trkpt>
      <trkpt lat="44.47848" lon="1.04901">
        <ele>65.51</ele>
        <time>2016-02-06T15:18:39Z</time>
      </trkpt>
      <trkpt lat="44.47849" lon="1.049">
        <ele>65.03</ele>
        <time>2016-02-06T15:19:07Z</time>
      </trkpt>
      <trkpt lat="44.47851" lon="1.04903">
        <ele>61.18</ele>
        <time>2016-02-06T15:19:37Z</time>
      </trkpt>
      <trkpt lat="44.4785" lon="1.04903">
        <ele>60.22</ele>
        <time>2016-02-06T15:20:05Z</time>
      </trkpt>
      <trkpt lat="44.47852" lon="1.04906">
        <ele>61.18</ele>
        <time>2016-02-06T15:20:38Z</time>
      </trkpt>
      <trkpt lat="44.47853" lon="1.04904">
        <ele>62.62</ele>
        <time>2016-02-06T15:21:09Z</time>
      </trkpt>
      <trkpt lat="44.47852" lon="1.04902">
        <ele>64.55</ele>
        <time>2016-02-06T15:21:33Z</time>
      </trkpt>
      <trkpt lat="44.47851" lon="1.04903">
        <ele>65.51</ele>
        <time>2016-02-06T15:21:54Z</time>
      </trkpt>
      <trkpt lat="44.47847" lon="1.04906">
        <ele>66.47</ele>
        <time>2016-02-06T15:22:33Z</time>
      </trkpt>
      <trkpt lat="44.47848" lon="1.04903">
        <ele>69.35</ele>
        <time>2016-02-06T15:23:01Z</time>
      </trkpt>
      <trkpt lat="44.47848" lon="1.04904">
        <ele>68.87</ele>
        <time>2016-02-06T15:23:31Z</time>
      </trkpt>
      <trkpt lat="44.47848" lon="1.04904">
        <ele>69.83</ele>
        <time>2016-02-06T15:23:54Z</time>
      </trkpt>
      <trkpt lat="44.47849" lon="1.04902">
        <ele>70.79</ele>
        <time>2016-02-06T15:24:22Z</time>
      </trkpt>
      <trkpt lat="44.4785" lon="1.04904">
        <ele>69.83</ele>
        <time>2016-02-06T15:24:46Z</time>
      </trkpt>
      <trkpt lat="44.47852" lon="1.04903">
        <ele>68.87</ele>
        <time>2016-02-06T15:25:27Z</time>
      </trkpt>
      <trkpt lat="44.4785" lon="1.049">
        <ele>68.39</ele>
        <time>2016-02-06T15:26:11Z</time>
      </trkpt>
      <trkpt lat="44.47851" lon="1.04901">
        <ele>66.47</ele>
        <time>2016-02-06T15:26:40Z</time>
      </trkpt>
      <trkpt lat="44.47851" lon="1.04902">
        <ele>66.47</ele>
        <time>2016-02-06T15:27:04Z</time>
      </trkpt>
      <trkpt lat="44.47849" lon="1.04902">
        <ele>66.95</ele>
        <time>2016-02-06T15:27:40Z</time>
      </trkpt>
      <trkpt lat="44.47848" lon="1.04902">
        <ele>67.43</ele>
        <time>2016-02-06T15:28:09Z</time>
      </trkpt>
      <trkpt lat="44.47848" lon="1.04903">
        <ele>67.91</ele>
        <time>2016-02-06T15:28:35Z</time>
      </trkpt>
      <trkpt lat="44.47848" lon="1.04902">
        <ele>66.47</ele>
        <time>2016-02-06T15:29:02Z</time>
      </trkpt>
      <trkpt lat="44.47846" lon="1.04904">
        <ele>66.47</ele>
        <time>2016-02-06T15:29:17Z</time>
      </trkpt>
      <trkpt lat="44.47847" lon="1.04904">
        <ele>65.99</ele>
        <time>2016-02-06T15:29:33Z</time>
      </trkpt>
      <trkpt lat="44.47846" lon="1.04907">
        <ele>66.47</ele>
        <time>2016-02-06T15:29:45Z</time>
      </trkpt>
      <trkpt lat="44.47845" lon="1.04908">
        <ele>66.47</ele>
        <time>2016-02-06T15:30:04Z</time>
      </trkpt>
      <trkpt lat="44.47845" lon="1.04909">
        <ele>65.99</ele>
        <time>2016-02-06T15:30:14Z</time>
      </trkpt>
      <trkpt lat="44.47845" lon="1.0491">
        <ele>65.99</ele>
        <time>2016-02-06T15:30:15Z</time>
      </trkpt>
      <trkpt lat="44.47844" lon="1.04912">
        <ele>65.99</ele>
        <time>2016-02-06T15:30:16Z</time>
      </trkpt>
      <trkpt lat="44.47843" lon="1.04914">
        <ele>65.99</ele>
        <time>2016-02-06T15:30:17Z</time>
      </trkpt>
      <trkpt lat="44.47843" lon="1.04917">
        <ele>65.99</ele>
        <time>2016-02-06T15:30:18Z</time>
      </trkpt>
      <trkpt lat="44.47843" lon="1.0492">
        <ele>65.99</ele>
        <time>2016-02-06T15:30:19Z</time>
      </trkpt>
      <trkpt lat="44.47843" lon="1.04923">
        <ele>65.99</ele>
        <time>2016-02-06T15:30:20Z</time>
      </trkpt>
      <trkpt lat="44.47844" lon="1.04926">
        <ele>65.51</ele>
        <time>2016-02-06T15:30:21Z</time>
      </trkpt>
      <trkpt lat="44.47845" lon="1.0493">
        <ele>65.99</ele>
        <time>2016-02-06T15:30:22Z</time>
      </trkpt>
      <trkpt lat="44.47846" lon="1.04933">
        <ele>65.51</ele>
        <time>2016-02-06T15:30:23Z</time>
      </trkpt>
      <trkpt lat="44.47848" lon="1.04936">
        <ele>65.51</ele>
        <time>2016-02-06T15:30:24Z</time>
      </trkpt>
      <trkpt lat="44.4785" lon="1.04939">
        <ele>65.51</ele>
        <time>2016-02-06T15:30:25Z</time>
      </trkpt>
      <trkpt lat="44.47852" lon="1.04942">
        <ele>65.51</ele>
        <time>2016-02-06T15:30:26Z</time>
      </trkpt>
      <trkpt lat="44.47868" lon="1.04966">
        <ele>65.51</ele>
        <time>2016-02-06T15:30:34Z</time>
      </trkpt>
      <trkpt lat="44.4787" lon="1.04969">
        <ele>65.51</ele>
        <time>2016-02-06T15:30:35Z</time>
      </trkpt>
      <trkpt lat="44.47872" lon="1.04972">
        <ele>65.51</ele>
        <time>2016-02-06T15:30:36Z</time>
      </trkpt>
      <trkpt lat="44.47874" lon="1.04976">
        <ele>65.51</ele>
        <time>2016-02-06T15:30:37Z</time>
      </trkpt>
      <trkpt lat="44.47877" lon="1.04979">
        <ele>65.51</ele>
        <time>2016-02-06T15:30:38Z</time>
      </trkpt>
      <trkpt lat="44.47902" lon="1.05029">
        <ele>65.99</ele>
        <time>2016-02-06T15:30:52Z</time>
      </trkpt>
      <trkpt lat="44.47918" lon="1.05062">
        <ele>69.83</ele>
        <time>2016-02-06T15:31:04Z</time>
      </trkpt>
      <trkpt lat="44.47935" lon="1.05085">
        <ele>72.24</ele>
        <time>2016-02-06T15:31:14Z</time>
      </trkpt>
      <trkpt lat="44.4794" lon="1.05094">
        <ele>71.76</ele>
        <time>2016-02-06T15:31:25Z</time>
      </trkpt>
      <trkpt lat="44.47942" lon="1.05095">
        <ele>71.76</ele>
        <time>2016-02-06T15:31:26Z</time>
      </trkpt>
      <trkpt lat="44.47979" lon="1.05127">
        <ele>70.31</ele>
        <time>2016-02-06T15:31:41Z</time>
      </trkpt>
      <trkpt lat="44.48003" lon="1.05153">
        <ele>69.35</ele>
        <time>2016-02-06T15:31:54Z</time>
      </trkpt>
      <trkpt lat="44.48014" lon="1.05193">
        <ele>69.35</ele>
        <time>2016-02-06T15:32:07Z</time>
      </trkpt>
      <trkpt lat="44.48017" lon="1.0523">
        <ele>68.39</ele>
        <time>2016-02-06T15:32:18Z</time>
      </trkpt>
      <trkpt lat="44.4803" lon="1.05264">
        <ele>68.87</ele>
        <time>2016-02-06T15:32:29Z</time>
      </trkpt>
      <trkpt lat="44.48031" lon="1.05266">
        <ele>69.35</ele>
        <time>2016-02-06T15:32:30Z</time>
      </trkpt>
      <trkpt lat="44.48031" lon="1.05268">
        <ele>69.35</ele>
        <time>2016-02-06T15:32:31Z</time>
      </trkpt>
      <trkpt lat="44.48031" lon="1.0527">
        <ele>69.35</ele>
        <time>2016-02-06T15:32:32Z</time>
      </trkpt>
      <trkpt lat="44.48031" lon="1.05273">
        <ele>69.35</ele>
        <time>2016-02-06T15:32:45Z</time>
      </trkpt>
      <trkpt lat="44.48025" lon="1.05292">
        <ele>69.83</ele>
        <time>2016-02-06T15:32:56Z</time>
      </trkpt>
      <trkpt lat="44.48017" lon="1.05308">
        <ele>69.35</ele>
        <time>2016-02-06T15:33:02Z</time>
      </trkpt>
      <trkpt lat="44.48015" lon="1.0531">
        <ele>69.35</ele>
        <time>2016-02-06T15:33:03Z</time>
      </trkpt>
      <trkpt lat="44.47992" lon="1.05338">
        <ele>70.79</ele>
        <time>2016-02-06T15:33:15Z</time>
      </trkpt>
      <trkpt lat="44.47963" lon="1.05361">
        <ele>75.6</ele>
        <time>2016-02-06T15:33:27Z</time>
      </trkpt>
      <trkpt lat="44.47917" lon="1.05383">
        <ele>77.52</ele>
        <time>2016-02-06T15:33:42Z</time>
      </trkpt>
      <trkpt lat="44.47872" lon="1.05406">
        <ele>78.97</ele>
        <time>2016-02-06T15:33:57Z</time>
      </trkpt>
      <trkpt lat="44.47842" lon="1.05426">
        <ele>80.89</ele>
        <time>2016-02-06T15:34:10Z</time>
      </trkpt>
      <trkpt lat="44.47814" lon="1.05445">
        <ele>84.73</ele>
        <time>2016-02-06T15:34:23Z</time>
      </trkpt>
      <trkpt lat="44.4778" lon="1.05466">
        <ele>85.69</ele>
        <time>2016-02-06T15:34:38Z</time>
      </trkpt>
      <trkpt lat="44.47758" lon="1.05474">
        <ele>88.58</ele>
        <time>2016-02-06T15:34:48Z</time>
      </trkpt>
      <trkpt lat="44.47737" lon="1.05475">
        <ele>91.46</ele>
        <time>2016-02-06T15:34:57Z</time>
      </trkpt>
      <trkpt lat="44.47735" lon="1.05475">
        <ele>91.94</ele>
        <time>2016-02-06T15:34:58Z</time>
      </trkpt>
      <trkpt lat="44.47705" lon="1.05475">
        <ele>93.87</ele>
        <time>2016-02-06T15:35:10Z</time>
      </trkpt>
      <trkpt lat="44.47682" lon="1.05469">
        <ele>93.39</ele>
        <time>2016-02-06T15:35:19Z</time>
      </trkpt>
      <trkpt lat="44.47675" lon="1.05453">
        <ele>93.39</ele>
        <time>2016-02-06T15:35:25Z</time>
      </trkpt>
      <trkpt lat="44.47678" lon="1.05431">
        <ele>96.27</ele>
        <time>2016-02-06T15:35:32Z</time>
      </trkpt>
      <trkpt lat="44.47682" lon="1.0539">
        <ele>99.63</ele>
        <time>2016-02-06T15:35:43Z</time>
      </trkpt>
      <trkpt lat="44.47688" lon="1.05358">
        <ele>101.56</ele>
        <time>2016-02-06T15:35:54Z</time>
      </trkpt>
      <trkpt lat="44.47695" lon="1.05343">
        <ele>103</ele>
        <time>2016-02-06T15:36:00Z</time>
      </trkpt>
      <trkpt lat="44.47696" lon="1.05341">
        <ele>103</ele>
        <time>2016-02-06T15:36:01Z</time>
      </trkpt>
      <trkpt lat="44.47698" lon="1.05338">
        <ele>103</ele>
        <time>2016-02-06T15:36:02Z</time>
      </trkpt>
      <trkpt lat="44.47699" lon="1.05336">
        <ele>103.48</ele>
        <time>2016-02-06T15:36:03Z</time>
      </trkpt>
      <trkpt lat="44.477" lon="1.05333">
        <ele>103.48</ele>
        <time>2016-02-06T15:36:04Z</time>
      </trkpt>
      <trkpt lat="44.47715" lon="1.05301">
        <ele>104.92</ele>
        <time>2016-02-06T15:36:16Z</time>
      </trkpt>
      <trkpt lat="44.47731" lon="1.05266">
        <ele>107.32</ele>
        <time>2016-02-06T15:36:29Z</time>
      </trkpt>
      <trkpt lat="44.47748" lon="1.05235">
        <ele>109.25</ele>
        <time>2016-02-06T15:36:42Z</time>
      </trkpt>
      <trkpt lat="44.47754" lon="1.05226">
        <ele>110.21</ele>
        <time>2016-02-06T15:36:51Z</time>
      </trkpt>
      <trkpt lat="44.47754" lon="1.05223">
        <ele>111.17</ele>
        <time>2016-02-06T15:37:05Z</time>
      </trkpt>
      <trkpt lat="44.47755" lon="1.0522">
        <ele>110.69</ele>
        <time>2016-02-06T15:37:12Z</time>
      </trkpt>
      <trkpt lat="44.47756" lon="1.05219">
        <ele>111.17</ele>
        <time>2016-02-06T15:37:13Z</time>
      </trkpt>
      <trkpt lat="44.47768" lon="1.05194">
        <ele>113.57</ele>
        <time>2016-02-06T15:37:22Z</time>
      </trkpt>
      <trkpt lat="44.47771" lon="1.05188">
        <ele>114.05</ele>
        <time>2016-02-06T15:37:24Z</time>
      </trkpt>
      <trkpt lat="44.47773" lon="1.05185">
        <ele>114.53</ele>
        <time>2016-02-06T15:37:25Z</time>
      </trkpt>
      <trkpt lat="44.47774" lon="1.05182">
        <ele>114.53</ele>
        <time>2016-02-06T15:37:26Z</time>
      </trkpt>
      <trkpt lat="44.47776" lon="1.0518">
        <ele>115.01</ele>
        <time>2016-02-06T15:37:27Z</time>
      </trkpt>
      <trkpt lat="44.47778" lon="1.05177">
        <ele>115.5</ele>
        <time>2016-02-06T15:37:28Z</time>
      </trkpt>
      <trkpt lat="44.478" lon="1.0515">
        <ele>117.9</ele>
        <time>2016-02-06T15:37:40Z</time>
      </trkpt>
      <trkpt lat="44.4782" lon="1.05126">
        <ele>121.26</ele>
        <time>2016-02-06T15:37:51Z</time>
      </trkpt>
      <trkpt lat="44.47828" lon="1.05117">
        <ele>123.19</ele>
        <time>2016-02-06T15:38:01Z</time>
      </trkpt>
      <trkpt lat="44.47828" lon="1.05116">
        <ele>123.19</ele>
        <time>2016-02-06T15:38:07Z</time>
      </trkpt>
      <trkpt lat="44.47829" lon="1.05114">
        <ele>123.19</ele>
        <time>2016-02-06T15:38:08Z</time>
      </trkpt>
      <trkpt lat="44.4783" lon="1.05112">
        <ele>123.67</ele>
        <time>2016-02-06T15:38:09Z</time>
      </trkpt>
      <trkpt lat="44.47831" lon="1.0511">
        <ele>123.67</ele>
        <time>2016-02-06T15:38:10Z</time>
      </trkpt>
      <trkpt lat="44.47833" lon="1.05107">
        <ele>124.15</ele>
        <time>2016-02-06T15:38:11Z</time>
      </trkpt>
      <trkpt lat="44.47837" lon="1.05103">
        <ele>124.63</ele>
        <time>2016-02-06T15:38:22Z</time>
      </trkpt>
      <trkpt lat="44.47839" lon="1.051">
        <ele>125.11</ele>
        <time>2016-02-06T15:38:45Z</time>
      </trkpt>
      <trkpt lat="44.47839" lon="1.05099">
        <ele>124.63</ele>
        <time>2016-02-06T15:38:52Z</time>
      </trkpt>
      <trkpt lat="44.4784" lon="1.05094">
        <ele>124.63</ele>
        <time>2016-02-06T15:39:04Z</time>
      </trkpt>
      <trkpt lat="44.47837" lon="1.05082">
        <ele>124.63</ele>
        <time>2016-02-06T15:39:20Z</time>
      </trkpt>
      <trkpt lat="44.47836" lon="1.05079">
        <ele>125.11</ele>
        <time>2016-02-06T15:39:24Z</time>
      </trkpt>
      <trkpt lat="44.47829" lon="1.05074">
        <ele>124.15</ele>
        <time>2016-02-06T15:39:28Z</time>
      </trkpt>
      <trkpt lat="44.47828" lon="1.05073">
        <ele>123.67</ele>
        <time>2016-02-06T15:39:29Z</time>
      </trkpt>
      <trkpt lat="44.47826" lon="1.05071">
        <ele>123.19</ele>
        <time>2016-02-06T15:39:30Z</time>
      </trkpt>
      <trkpt lat="44.47824" lon="1.05069">
        <ele>122.71</ele>
        <time>2016-02-06T15:39:31Z</time>
      </trkpt>
      <trkpt lat="44.47822" lon="1.05067">
        <ele>122.22</ele>
        <time>2016-02-06T15:39:32Z</time>
      </trkpt>
      <trkpt lat="44.47821" lon="1.05064">
        <ele>121.74</ele>
        <time>2016-02-06T15:39:33Z</time>
      </trkpt>
      <trkpt lat="44.47819" lon="1.05062">
        <ele>121.26</ele>
        <time>2016-02-06T15:39:34Z</time>
      </trkpt>
      <trkpt lat="44.47818" lon="1.05059">
        <ele>121.26</ele>
        <time>2016-02-06T15:39:35Z</time>
      </trkpt>
      <trkpt lat="44.47816" lon="1.05057">
        <ele>121.26</ele>
        <time>2016-02-06T15:39:36Z</time>
      </trkpt>
      <trkpt lat="44.47795" lon="1.05026">
        <ele>121.74</ele>
        <time>2016-02-06T15:39:49Z</time>
      </trkpt>
      <trkpt lat="44.47793" lon="1.05023">
        <ele>121.74</ele>
        <time>2016-02-06T15:39:50Z</time>
      </trkpt>
      <trkpt lat="44.47774" lon="1.04999">
        <ele>122.71</ele>
        <time>2016-02-06T15:40:02Z</time>
      </trkpt>
      <trkpt lat="44.47767" lon="1.04991">
        <ele>123.19</ele>
        <time>2016-02-06T15:40:07Z</time>
      </trkpt>
      <trkpt lat="44.47766" lon="1.04989">
        <ele>122.71</ele>
        <time>2016-02-06T15:40:08Z</time>
      </trkpt>
      <trkpt lat="44.47765" lon="1.04986">
        <ele>122.71</ele>
        <time>2016-02-06T15:40:09Z</time>
      </trkpt>
      <trkpt lat="44.47764" lon="1.04984">
        <ele>122.71</ele>
        <time>2016-02-06T15:40:10Z</time>
      </trkpt>
      <trkpt lat="44.47764" lon="1.04982">
        <ele>123.19</ele>
        <time>2016-02-06T15:40:11Z</time>
      </trkpt>
      <trkpt lat="44.47763" lon="1.04979">
        <ele>123.67</ele>
        <time>2016-02-06T15:40:12Z</time>
      </trkpt>
      <trkpt lat="44.47756" lon="1.0495">
        <ele>128.47</ele>
        <time>2016-02-06T15:40:23Z</time>
      </trkpt>
      <trkpt lat="44.47754" lon="1.04945">
        <ele>129.43</ele>
        <time>2016-02-06T15:40:25Z</time>
      </trkpt>
      <trkpt lat="44.47752" lon="1.04943">
        <ele>129.43</ele>
        <time>2016-02-06T15:40:26Z</time>
      </trkpt>
      <trkpt lat="44.4775" lon="1.04941">
        <ele>129.92</ele>
        <time>2016-02-06T15:40:27Z</time>
      </trkpt>
      <trkpt lat="44.47735" lon="1.04919">
        <ele>132.32</ele>
        <time>2016-02-06T15:40:38Z</time>
      </trkpt>
      <trkpt lat="44.47734" lon="1.04917">
        <ele>132.32</ele>
        <time>2016-02-06T15:40:39Z</time>
      </trkpt>
      <trkpt lat="44.47733" lon="1.04916">
        <ele>132.8</ele>
        <time>2016-02-06T15:40:40Z</time>
      </trkpt>
      <trkpt lat="44.47731" lon="1.04915">
        <ele>132.8</ele>
        <time>2016-02-06T15:40:41Z</time>
      </trkpt>
      <trkpt lat="44.4773" lon="1.04913">
        <ele>132.8</ele>
        <time>2016-02-06T15:40:42Z</time>
      </trkpt>
      <trkpt lat="44.47723" lon="1.04907">
        <ele>132.8</ele>
        <time>2016-02-06T15:40:46Z</time>
      </trkpt>
      <trkpt lat="44.47722" lon="1.04906">
        <ele>132.8</ele>
        <time>2016-02-06T15:40:47Z</time>
      </trkpt>
      <trkpt lat="44.47721" lon="1.04904">
        <ele>132.8</ele>
        <time>2016-02-06T15:40:48Z</time>
      </trkpt>
      <trkpt lat="44.47704" lon="1.04886">
        <ele>133.76</ele>
        <time>2016-02-06T15:41:00Z</time>
      </trkpt>
      <trkpt lat="44.47689" lon="1.04869">
        <ele>133.76</ele>
        <time>2016-02-06T15:41:11Z</time>
      </trkpt>
      <trkpt lat="44.47683" lon="1.04858">
        <ele>133.76</ele>
        <time>2016-02-06T15:41:17Z</time>
      </trkpt>
      <trkpt lat="44.47682" lon="1.04856">
        <ele>134.24</ele>
        <time>2016-02-06T15:41:18Z</time>
      </trkpt>
      <trkpt lat="44.47681" lon="1.04855">
        <ele>134.72</ele>
        <time>2016-02-06T15:41:19Z</time>
      </trkpt>
      <trkpt lat="44.4768" lon="1.04853">
        <ele>134.72</ele>
        <time>2016-02-06T15:41:20Z</time>
      </trkpt>
      <trkpt lat="44.4768" lon="1.0485">
        <ele>135.2</ele>
        <time>2016-02-06T15:41:21Z</time>
      </trkpt>
      <trkpt lat="44.47679" lon="1.04848">
        <ele>135.68</ele>
        <time>2016-02-06T15:41:22Z</time>
      </trkpt>
      <trkpt lat="44.47675" lon="1.04839">
        <ele>136.16</ele>
        <time>2016-02-06T15:41:26Z</time>
      </trkpt>
      <trkpt lat="44.47674" lon="1.04837">
        <ele>136.64</ele>
        <time>2016-02-06T15:41:27Z</time>
      </trkpt>
      <trkpt lat="44.47674" lon="1.04834">
        <ele>137.13</ele>
        <time>2016-02-06T15:41:28Z</time>
      </trkpt>
      <trkpt lat="44.47669" lon="1.04824">
        <ele>138.09</ele>
        <time>2016-02-06T15:41:32Z</time>
      </trkpt>
      <trkpt lat="44.47669" lon="1.04822">
        <ele>138.57</ele>
        <time>2016-02-06T15:41:33Z</time>
      </trkpt>
      <trkpt lat="44.47669" lon="1.0482">
        <ele>139.05</ele>
        <time>2016-02-06T15:41:34Z</time>
      </trkpt>
      <trkpt lat="44.47668" lon="1.04818">
        <ele>139.05</ele>
        <time>2016-02-06T15:41:35Z</time>
      </trkpt>
      <trkpt lat="44.47668" lon="1.04816">
        <ele>139.53</ele>
        <time>2016-02-06T15:41:36Z</time>
      </trkpt>
      <trkpt lat="44.47667" lon="1.04814">
        <ele>139.53</ele>
        <time>2016-02-06T15:41:37Z</time>
      </trkpt>
      <trkpt lat="44.47662" lon="1.04789">
        <ele>142.41</ele>
        <time>2016-02-06T15:41:45Z</time>
      </trkpt>
      <trkpt lat="44.47662" lon="1.04786">
        <ele>142.89</ele>
        <time>2016-02-06T15:41:46Z</time>
      </trkpt>
      <trkpt lat="44.47661" lon="1.04782">
        <ele>143.37</ele>
        <time>2016-02-06T15:41:47Z</time>
      </trkpt>
      <trkpt lat="44.47661" lon="1.04779">
        <ele>143.85</ele>
        <time>2016-02-06T15:41:48Z</time>
      </trkpt>
      <trkpt lat="44.4766" lon="1.04776">
        <ele>144.34</ele>
        <time>2016-02-06T15:41:49Z</time>
      </trkpt>
      <trkpt lat="44.47659" lon="1.04773">
        <ele>144.82</ele>
        <time>2016-02-06T15:41:50Z</time>
      </trkpt>
      <trkpt lat="44.47658" lon="1.04771">
        <ele>145.3</ele>
        <time>2016-02-06T15:41:51Z</time>
      </trkpt>
      <trkpt lat="44.47656" lon="1.04768">
        <ele>145.3</ele>
        <time>2016-02-06T15:41:52Z</time>
      </trkpt>
      <trkpt lat="44.47637" lon="1.04742">
        <ele>148.66</ele>
        <time>2016-02-06T15:42:04Z</time>
      </trkpt>
      <trkpt lat="44.47616" lon="1.04718">
        <ele>148.18</ele>
        <time>2016-02-06T15:42:17Z</time>
      </trkpt>
      <trkpt lat="44.47604" lon="1.04701">
        <ele>149.14</ele>
        <time>2016-02-06T15:42:25Z</time>
      </trkpt>
      <trkpt lat="44.47602" lon="1.04699">
        <ele>149.14</ele>
        <time>2016-02-06T15:42:26Z</time>
      </trkpt>
      <trkpt lat="44.47596" lon="1.04693">
        <ele>149.14</ele>
        <time>2016-02-06T15:42:29Z</time>
      </trkpt>
      <trkpt lat="44.47594" lon="1.04692">
        <ele>149.14</ele>
        <time>2016-02-06T15:42:30Z</time>
      </trkpt>
      <trkpt lat="44.47592" lon="1.0469">
        <ele>149.14</ele>
        <time>2016-02-06T15:42:31Z</time>
      </trkpt>
      <trkpt lat="44.47591" lon="1.04688">
        <ele>149.14</ele>
        <time>2016-02-06T15:42:32Z</time>
      </trkpt>
      <trkpt lat="44.47589" lon="1.04688">
        <ele>149.14</ele>
        <time>2016-02-06T15:42:33Z</time>
      </trkpt>
      <trkpt lat="44.47587" lon="1.04687">
        <ele>149.14</ele>
        <time>2016-02-06T15:42:34Z</time>
      </trkpt>
      <trkpt lat="44.47584" lon="1.04687">
        <ele>149.14</ele>
        <time>2016-02-06T15:42:35Z</time>
      </trkpt>
      <trkpt lat="44.47582" lon="1.04688">
        <ele>149.62</ele>
        <time>2016-02-06T15:42:36Z</time>
      </trkpt>
      <trkpt lat="44.4758" lon="1.04688">
        <ele>149.62</ele>
        <time>2016-02-06T15:42:37Z</time>
      </trkpt>
      <trkpt lat="44.47578" lon="1.04688">
        <ele>150.1</ele>
        <time>2016-02-06T15:42:38Z</time>
      </trkpt>
      <trkpt lat="44.47576" lon="1.04689">
        <ele>150.1</ele>
        <time>2016-02-06T15:42:39Z</time>
      </trkpt>
      <trkpt lat="44.47574" lon="1.0469">
        <ele>150.58</ele>
        <time>2016-02-06T15:42:40Z</time>
      </trkpt>
      <trkpt lat="44.47572" lon="1.0469">
        <ele>150.58</ele>
        <time>2016-02-06T15:42:41Z</time>
      </trkpt>
      <trkpt lat="44.4757" lon="1.04691">
        <ele>151.06</ele>
        <time>2016-02-06T15:42:42Z</time>
      </trkpt>
      <trkpt lat="44.47568" lon="1.04693">
        <ele>151.06</ele>
        <time>2016-02-06T15:42:43Z</time>
      </trkpt>
      <trkpt lat="44.4755" lon="1.04708">
        <ele>154.43</ele>
        <time>2016-02-06T15:42:54Z</time>
      </trkpt>
      <trkpt lat="44.47536" lon="1.04715">
        <ele>155.87</ele>
        <time>2016-02-06T15:43:02Z</time>
      </trkpt>
      <trkpt lat="44.47534" lon="1.04715">
        <ele>155.87</ele>
        <time>2016-02-06T15:43:03Z</time>
      </trkpt>
      <trkpt lat="44.47532" lon="1.04715">
        <ele>155.87</ele>
        <time>2016-02-06T15:43:04Z</time>
      </trkpt>
      <trkpt lat="44.47531" lon="1.04714">
        <ele>155.39</ele>
        <time>2016-02-06T15:43:05Z</time>
      </trkpt>
      <trkpt lat="44.47529" lon="1.04713">
        <ele>155.39</ele>
        <time>2016-02-06T15:43:06Z</time>
      </trkpt>
      <trkpt lat="44.47527" lon="1.04713">
        <ele>155.39</ele>
        <time>2016-02-06T15:43:07Z</time>
      </trkpt>
      <trkpt lat="44.47525" lon="1.04711">
        <ele>155.39</ele>
        <time>2016-02-06T15:43:08Z</time>
      </trkpt>
      <trkpt lat="44.47523" lon="1.04709">
        <ele>155.87</ele>
        <time>2016-02-06T15:43:09Z</time>
      </trkpt>
      <trkpt lat="44.47519" lon="1.04704">
        <ele>155.87</ele>
        <time>2016-02-06T15:43:12Z</time>
      </trkpt>
      <trkpt lat="44.47518" lon="1.04702">
        <ele>155.87</ele>
        <time>2016-02-06T15:43:13Z</time>
      </trkpt>
      <trkpt lat="44.47518" lon="1.04699">
        <ele>155.87</ele>
        <time>2016-02-06T15:43:14Z</time>
      </trkpt>
      <trkpt lat="44.47518" lon="1.04696">
        <ele>155.87</ele>
        <time>2016-02-06T15:43:15Z</time>
      </trkpt>
      <trkpt lat="44.47518" lon="1.04693">
        <ele>156.35</ele>
        <time>2016-02-06T15:43:16Z</time>
      </trkpt>
      <trkpt lat="44.47519" lon="1.0469">
        <ele>156.83</ele>
        <time>2016-02-06T15:43:17Z</time>
      </trkpt>
      <trkpt lat="44.47519" lon="1.04686">
        <ele>157.31</ele>
        <time>2016-02-06T15:43:18Z</time>
      </trkpt>
      <trkpt lat="44.47518" lon="1.04683">
        <ele>158.27</ele>
        <time>2016-02-06T15:43:19Z</time>
      </trkpt>
      <trkpt lat="44.47518" lon="1.0468">
        <ele>159.24</ele>
        <time>2016-02-06T15:43:20Z</time>
      </trkpt>
      <trkpt lat="44.47519" lon="1.04677">
        <ele>160.2</ele>
        <time>2016-02-06T15:43:21Z</time>
      </trkpt>
      <trkpt lat="44.47519" lon="1.04673">
        <ele>161.64</ele>
        <time>2016-02-06T15:43:22Z</time>
      </trkpt>
      <trkpt lat="44.47518" lon="1.04669">
        <ele>163.08</ele>
        <time>2016-02-06T15:43:23Z</time>
      </trkpt>
      <trkpt lat="44.47518" lon="1.04666">
        <ele>164.04</ele>
        <time>2016-02-06T15:43:24Z</time>
      </trkpt>
      <trkpt lat="44.47519" lon="1.04663">
        <ele>165</ele>
        <time>2016-02-06T15:43:25Z</time>
      </trkpt>
      <trkpt lat="44.47519" lon="1.04659">
        <ele>166.45</ele>
        <time>2016-02-06T15:43:26Z</time>
      </trkpt>
      <trkpt lat="44.47519" lon="1.04655">
        <ele>167.41</ele>
        <time>2016-02-06T15:43:27Z</time>
      </trkpt>
      <trkpt lat="44.47519" lon="1.04652">
        <ele>168.85</ele>
        <time>2016-02-06T15:43:28Z</time>
      </trkpt>
      <trkpt lat="44.4752" lon="1.04649">
        <ele>169.81</ele>
        <time>2016-02-06T15:43:29Z</time>
      </trkpt>
      <trkpt lat="44.47519" lon="1.04646">
        <ele>170.77</ele>
        <time>2016-02-06T15:43:30Z</time>
      </trkpt>
      <trkpt lat="44.47519" lon="1.04643">
        <ele>172.21</ele>
        <time>2016-02-06T15:43:31Z</time>
      </trkpt>
      <trkpt lat="44.47522" lon="1.04617">
        <ele>183.27</ele>
        <time>2016-02-06T15:43:39Z</time>
      </trkpt>
      <trkpt lat="44.47523" lon="1.04614">
        <ele>184.71</ele>
        <time>2016-02-06T15:43:40Z</time>
      </trkpt>
      <trkpt lat="44.47524" lon="1.04611">
        <ele>186.15</ele>
        <time>2016-02-06T15:43:41Z</time>
      </trkpt>
      <trkpt lat="44.4753" lon="1.04585">
        <ele>194.8</ele>
        <time>2016-02-06T15:43:49Z</time>
      </trkpt>
      <trkpt lat="44.47531" lon="1.04582">
        <ele>195.28</ele>
        <time>2016-02-06T15:43:50Z</time>
      </trkpt>
      <trkpt lat="44.47532" lon="1.04578">
        <ele>196.25</ele>
        <time>2016-02-06T15:43:51Z</time>
      </trkpt>
      <trkpt lat="44.47533" lon="1.04575">
        <ele>196.73</ele>
        <time>2016-02-06T15:43:52Z</time>
      </trkpt>
      <trkpt lat="44.47534" lon="1.04572">
        <ele>196.73</ele>
        <time>2016-02-06T15:43:53Z</time>
      </trkpt>
      <trkpt lat="44.47534" lon="1.04569">
        <ele>196.73</ele>
        <time>2016-02-06T15:43:54Z</time>
      </trkpt>
      <trkpt lat="44.47534" lon="1.04565">
        <ele>196.73</ele>
        <time>2016-02-06T15:43:55Z</time>
      </trkpt>
      <trkpt lat="44.47534" lon="1.04562">
        <ele>196.73</ele>
        <time>2016-02-06T15:43:56Z</time>
      </trkpt>
      <trkpt lat="44.47535" lon="1.04559">
        <ele>197.21</ele>
        <time>2016-02-06T15:43:57Z</time>
      </trkpt>
      <trkpt lat="44.47536" lon="1.04534">
        <ele>198.65</ele>
        <time>2016-02-06T15:44:05Z</time>
      </trkpt>
      <trkpt lat="44.47535" lon="1.04532">
        <ele>198.65</ele>
        <time>2016-02-06T15:44:06Z</time>
      </trkpt>
      <trkpt lat="44.47535" lon="1.04529">
        <ele>199.13</ele>
        <time>2016-02-06T15:44:07Z</time>
      </trkpt>
      <trkpt lat="44.47534" lon="1.04527">
        <ele>199.13</ele>
        <time>2016-02-06T15:44:08Z</time>
      </trkpt>
      <trkpt lat="44.47533" lon="1.04524">
        <ele>199.13</ele>
        <time>2016-02-06T15:44:09Z</time>
      </trkpt>
      <trkpt lat="44.47518" lon="1.04493">
        <ele>198.17</ele>
        <time>2016-02-06T15:44:19Z</time>
      </trkpt>
      <trkpt lat="44.47498" lon="1.04467">
        <ele>194.32</ele>
        <time>2016-02-06T15:44:28Z</time>
      </trkpt>
      <trkpt lat="44.47496" lon="1.04464">
        <ele>193.36</ele>
        <time>2016-02-06T15:44:29Z</time>
      </trkpt>
      <trkpt lat="44.47494" lon="1.04461">
        <ele>192.88</ele>
        <time>2016-02-06T15:44:30Z</time>
      </trkpt>
      <trkpt lat="44.47492" lon="1.04459">
        <ele>192.88</ele>
        <time>2016-02-06T15:44:31Z</time>
      </trkpt>
      <trkpt lat="44.47489" lon="1.04458">
        <ele>192.88</ele>
        <time>2016-02-06T15:44:32Z</time>
      </trkpt>
      <trkpt lat="44.47487" lon="1.04456">
        <ele>192.4</ele>
        <time>2016-02-06T15:44:33Z</time>
      </trkpt>
      <trkpt lat="44.47482" lon="1.04455">
        <ele>191.92</ele>
        <time>2016-02-06T15:44:35Z</time>
      </trkpt>
      <trkpt lat="44.4748" lon="1.04455">
        <ele>191.92</ele>
        <time>2016-02-06T15:44:36Z</time>
      </trkpt>
      <trkpt lat="44.47477" lon="1.04456">
        <ele>191.44</ele>
        <time>2016-02-06T15:44:37Z</time>
      </trkpt>
      <trkpt lat="44.47474" lon="1.04456">
        <ele>191.44</ele>
        <time>2016-02-06T15:44:38Z</time>
      </trkpt>
      <trkpt lat="44.47471" lon="1.04457">
        <ele>190.96</ele>
        <time>2016-02-06T15:44:39Z</time>
      </trkpt>
      <trkpt lat="44.47469" lon="1.04459">
        <ele>190.48</ele>
        <time>2016-02-06T15:44:40Z</time>
      </trkpt>
      <trkpt lat="44.47467" lon="1.04461">
        <ele>190.48</ele>
        <time>2016-02-06T15:44:41Z</time>
      </trkpt>
      <trkpt lat="44.47465" lon="1.04464">
        <ele>190</ele>
        <time>2016-02-06T15:44:42Z</time>
      </trkpt>
      <trkpt lat="44.47448" lon="1.04494">
        <ele>189.52</ele>
        <time>2016-02-06T15:44:54Z</time>
      </trkpt>
      <trkpt lat="44.47431" lon="1.04528">
        <ele>186.63</ele>
        <time>2016-02-06T15:45:06Z</time>
      </trkpt>
      <trkpt lat="44.47418" lon="1.04566">
        <ele>187.11</ele>
        <time>2016-02-06T15:45:18Z</time>
      </trkpt>
      <trkpt lat="44.47407" lon="1.046">
        <ele>189.04</ele>
        <time>2016-02-06T15:45:29Z</time>
      </trkpt>
      <trkpt lat="44.47399" lon="1.04641">
        <ele>189.52</ele>
        <time>2016-02-06T15:45:42Z</time>
      </trkpt>
      <trkpt lat="44.47396" lon="1.04676">
        <ele>190.48</ele>
        <time>2016-02-06T15:45:53Z</time>
      </trkpt>
      <trkpt lat="44.47392" lon="1.04722">
        <ele>190.48</ele>
        <time>2016-02-06T15:46:07Z</time>
      </trkpt>
      <trkpt lat="44.47387" lon="1.04765">
        <ele>190.96</ele>
        <time>2016-02-06T15:46:21Z</time>
      </trkpt>
      <trkpt lat="44.47376" lon="1.04803">
        <ele>192.88</ele>
        <time>2016-02-06T15:46:34Z</time>
      </trkpt>
      <trkpt lat="44.47359" lon="1.0485">
        <ele>197.21</ele>
        <time>2016-02-06T15:46:50Z</time>
      </trkpt>
      <trkpt lat="44.47339" lon="1.04892">
        <ele>200.09</ele>
        <time>2016-02-06T15:47:06Z</time>
      </trkpt>
      <trkpt lat="44.47319" lon="1.04937">
        <ele>203.94</ele>
        <time>2016-02-06T15:47:21Z</time>
      </trkpt>
      <trkpt lat="44.47292" lon="1.04964">
        <ele>207.3</ele>
        <time>2016-02-06T15:47:35Z</time>
      </trkpt>
      <trkpt lat="44.47268" lon="1.0498">
        <ele>209.7</ele>
        <time>2016-02-06T15:47:46Z</time>
      </trkpt>
      <trkpt lat="44.47234" lon="1.05003">
        <ele>212.11</ele>
        <time>2016-02-06T15:48:00Z</time>
      </trkpt>
      <trkpt lat="44.47195" lon="1.05027">
        <ele>214.99</ele>
        <time>2016-02-06T15:48:15Z</time>
      </trkpt>
      <trkpt lat="44.4716" lon="1.05047">
        <ele>217.4</ele>
        <time>2016-02-06T15:48:30Z</time>
      </trkpt>
      <trkpt lat="44.47154" lon="1.05051">
        <ele>217.88</ele>
        <time>2016-02-06T15:48:33Z</time>
      </trkpt>
      <trkpt lat="44.47153" lon="1.05052">
        <ele>218.36</ele>
        <time>2016-02-06T15:48:34Z</time>
      </trkpt>
      <trkpt lat="44.47152" lon="1.05052">
        <ele>218.36</ele>
        <time>2016-02-06T15:48:35Z</time>
      </trkpt>
      <trkpt lat="44.47151" lon="1.05052">
        <ele>218.84</ele>
        <time>2016-02-06T15:48:36Z</time>
      </trkpt>
      <trkpt lat="44.4715" lon="1.05049">
        <ele>218.36</ele>
        <time>2016-02-06T15:48:49Z</time>
      </trkpt>
      <trkpt lat="44.47151" lon="1.0505">
        <ele>217.88</ele>
        <time>2016-02-06T15:49:07Z</time>
      </trkpt>
      <trkpt lat="44.47151" lon="1.05051">
        <ele>217.88</ele>
        <time>2016-02-06T15:49:25Z</time>
      </trkpt>
      <trkpt lat="44.4715" lon="1.05049">
        <ele>218.36</ele>
        <time>2016-02-06T15:49:39Z</time>
      </trkpt>
      <trkpt lat="44.47149" lon="1.05047">
        <ele>218.36</ele>
        <time>2016-02-06T15:49:40Z</time>
      </trkpt>
      <trkpt lat="44.47147" lon="1.05046">
        <ele>218.36</ele>
        <time>2016-02-06T15:49:41Z</time>
      </trkpt>
      <trkpt lat="44.47133" lon="1.05036">
        <ele>219.32</ele>
        <time>2016-02-06T15:49:47Z</time>
      </trkpt>
      <trkpt lat="44.4713" lon="1.05035">
        <ele>219.32</ele>
        <time>2016-02-06T15:49:48Z</time>
      </trkpt>
      <trkpt lat="44.47128" lon="1.05032">
        <ele>219.32</ele>
        <time>2016-02-06T15:49:49Z</time>
      </trkpt>
      <trkpt lat="44.47092" lon="1.05">
        <ele>221.24</ele>
        <time>2016-02-06T15:50:02Z</time>
      </trkpt>
      <trkpt lat="44.47048" lon="1.04963">
        <ele>222.2</ele>
        <time>2016-02-06T15:50:16Z</time>
      </trkpt>
      <trkpt lat="44.47041" lon="1.04956">
        <ele>221.72</ele>
        <time>2016-02-06T15:50:18Z</time>
      </trkpt>
      <trkpt lat="44.47025" lon="1.04942">
        <ele>221.24</ele>
        <time>2016-02-06T15:50:22Z</time>
      </trkpt>
      <trkpt lat="44.47021" lon="1.04939">
        <ele>221.24</ele>
        <time>2016-02-06T15:50:23Z</time>
      </trkpt>
      <trkpt lat="44.47016" lon="1.04936">
        <ele>221.24</ele>
        <time>2016-02-06T15:50:24Z</time>
      </trkpt>
      <trkpt lat="44.46999" lon="1.04924">
        <ele>220.76</ele>
        <time>2016-02-06T15:50:28Z</time>
      </trkpt>
      <trkpt lat="44.46991" lon="1.04916">
        <ele>220.28</ele>
        <time>2016-02-06T15:50:30Z</time>
      </trkpt>
      <trkpt lat="44.46987" lon="1.04913">
        <ele>220.28</ele>
        <time>2016-02-06T15:50:31Z</time>
      </trkpt>
      <trkpt lat="44.46978" lon="1.04907">
        <ele>219.8</ele>
        <time>2016-02-06T15:50:33Z</time>
      </trkpt>
      <trkpt lat="44.46974" lon="1.04904">
        <ele>219.8</ele>
        <time>2016-02-06T15:50:34Z</time>
      </trkpt>
      <trkpt lat="44.46932" lon="1.0487">
        <ele>218.84</ele>
        <time>2016-02-06T15:50:43Z</time>
      </trkpt>
      <trkpt lat="44.46924" lon="1.04862">
        <ele>218.84</ele>
        <time>2016-02-06T15:50:45Z</time>
      </trkpt>
      <trkpt lat="44.46921" lon="1.04857">
        <ele>218.84</ele>
        <time>2016-02-06T15:50:46Z</time>
      </trkpt>
      <trkpt lat="44.46918" lon="1.04852">
        <ele>218.84</ele>
        <time>2016-02-06T15:50:47Z</time>
      </trkpt>
      <trkpt lat="44.46916" lon="1.04845">
        <ele>218.36</ele>
        <time>2016-02-06T15:50:48Z</time>
      </trkpt>
      <trkpt lat="44.46914" lon="1.04839">
        <ele>218.36</ele>
        <time>2016-02-06T15:50:49Z</time>
      </trkpt>
      <trkpt lat="44.46912" lon="1.04832">
        <ele>218.36</ele>
        <time>2016-02-06T15:50:50Z</time>
      </trkpt>
      <trkpt lat="44.46909" lon="1.04825">
        <ele>218.36</ele>
        <time>2016-02-06T15:50:51Z</time>
      </trkpt>
      <trkpt lat="44.46907" lon="1.04818">
        <ele>217.88</ele>
        <time>2016-02-06T15:50:52Z</time>
      </trkpt>
      <trkpt lat="44.46904" lon="1.04812">
        <ele>217.88</ele>
        <time>2016-02-06T15:50:53Z</time>
      </trkpt>
      <trkpt lat="44.46902" lon="1.04806">
        <ele>217.88</ele>
        <time>2016-02-06T15:50:54Z</time>
      </trkpt>
      <trkpt lat="44.46869" lon="1.04733">
        <ele>217.4</ele>
        <time>2016-02-06T15:51:06Z</time>
      </trkpt>
      <trkpt lat="44.46863" lon="1.04722">
        <ele>217.4</ele>
        <time>2016-02-06T15:51:08Z</time>
      </trkpt>
      <trkpt lat="44.46859" lon="1.04718">
        <ele>217.4</ele>
        <time>2016-02-06T15:51:09Z</time>
      </trkpt>
      <trkpt lat="44.46854" lon="1.04714">
        <ele>216.91</ele>
        <time>2016-02-06T15:51:10Z</time>
      </trkpt>
      <trkpt lat="44.46849" lon="1.04712">
        <ele>216.91</ele>
        <time>2016-02-06T15:51:11Z</time>
      </trkpt>
      <trkpt lat="44.46843" lon="1.0471">
        <ele>216.43</ele>
        <time>2016-02-06T15:51:12Z</time>
      </trkpt>
      <trkpt lat="44.46827" lon="1.04701">
        <ele>215.47</ele>
        <time>2016-02-06T15:51:15Z</time>
      </trkpt>
      <trkpt lat="44.46818" lon="1.04694">
        <ele>214.99</ele>
        <time>2016-02-06T15:51:17Z</time>
      </trkpt>
      <trkpt lat="44.46757" lon="1.04663">
        <ele>210.67</ele>
        <time>2016-02-06T15:51:28Z</time>
      </trkpt>
      <trkpt lat="44.46756" lon="1.0466">
        <ele>210.67</ele>
        <time>2016-02-06T15:51:29Z</time>
      </trkpt>
      <trkpt lat="44.46757" lon="1.04657">
        <ele>210.67</ele>
        <time>2016-02-06T15:51:30Z</time>
      </trkpt>
      <trkpt lat="44.46758" lon="1.04654">
        <ele>210.67</ele>
        <time>2016-02-06T15:51:31Z</time>
      </trkpt>
      <trkpt lat="44.46759" lon="1.04651">
        <ele>210.67</ele>
        <time>2016-02-06T15:51:32Z</time>
      </trkpt>
      <trkpt lat="44.4676" lon="1.04647">
        <ele>210.67</ele>
        <time>2016-02-06T15:51:33Z</time>
      </trkpt>
      <trkpt lat="44.46761" lon="1.04643">
        <ele>210.67</ele>
        <time>2016-02-06T15:51:34Z</time>
      </trkpt>
      <trkpt lat="44.46762" lon="1.04639">
        <ele>210.67</ele>
        <time>2016-02-06T15:51:35Z</time>
      </trkpt>
      <trkpt lat="44.46764" lon="1.04634">
        <ele>210.67</ele>
        <time>2016-02-06T15:51:36Z</time>
      </trkpt>
      <trkpt lat="44.46794" lon="1.04565">
        <ele>209.7</ele>
        <time>2016-02-06T15:51:52Z</time>
      </trkpt>
      <trkpt lat="44.46802" lon="1.04536">
        <ele>210.19</ele>
        <time>2016-02-06T15:51:59Z</time>
      </trkpt>
      <trkpt lat="44.46801" lon="1.04534">
        <ele>210.19</ele>
        <time>2016-02-06T15:52:00Z</time>
      </trkpt>
      <trkpt lat="44.468" lon="1.04531">
        <ele>210.19</ele>
        <time>2016-02-06T15:52:11Z</time>
      </trkpt>
      <trkpt lat="44.468" lon="1.04532">
        <ele>211.63</ele>
        <time>2016-02-06T15:52:51Z</time>
      </trkpt>
      <trkpt lat="44.46801" lon="1.04532">
        <ele>211.15</ele>
        <time>2016-02-06T15:53:28Z</time>
      </trkpt>
      <trkpt lat="44.46801" lon="1.04531">
        <ele>211.15</ele>
        <time>2016-02-06T15:54:03Z</time>
      </trkpt>
      <trkpt lat="44.46801" lon="1.04532">
        <ele>211.15</ele>
        <time>2016-02-06T15:54:36Z</time>
      </trkpt>
      <trkpt lat="44.46801" lon="1.04533">
        <ele>209.7</ele>
        <time>2016-02-06T15:55:05Z</time>
      </trkpt>
      <trkpt lat="44.46801" lon="1.04532">
        <ele>210.19</ele>
        <time>2016-02-06T15:55:10Z</time>
      </trkpt>
      <trkpt lat="44.46802" lon="1.04529">
        <ele>210.67</ele>
        <time>2016-02-06T15:55:12Z</time>
      </trkpt>
      <trkpt lat="44.46804" lon="1.04528">
        <ele>210.67</ele>
        <time>2016-02-06T15:55:13Z</time>
      </trkpt>
      <trkpt lat="44.46805" lon="1.04525">
        <ele>211.15</ele>
        <time>2016-02-06T15:55:14Z</time>
      </trkpt>
      <trkpt lat="44.46805" lon="1.04522">
        <ele>211.15</ele>
        <time>2016-02-06T15:55:15Z</time>
      </trkpt>
      <trkpt lat="44.46806" lon="1.04519">
        <ele>211.15</ele>
        <time>2016-02-06T15:55:16Z</time>
      </trkpt>
      <trkpt lat="44.46806" lon="1.04515">
        <ele>211.63</ele>
        <time>2016-02-06T15:55:17Z</time>
      </trkpt>
      <trkpt lat="44.46805" lon="1.04511">
        <ele>211.63</ele>
        <time>2016-02-06T15:55:18Z</time>
      </trkpt>
      <trkpt lat="44.46804" lon="1.04507">
        <ele>211.15</ele>
        <time>2016-02-06T15:55:19Z</time>
      </trkpt>
      <trkpt lat="44.46804" lon="1.04502">
        <ele>211.15</ele>
        <time>2016-02-06T15:55:20Z</time>
      </trkpt>
      <trkpt lat="44.46804" lon="1.04492">
        <ele>211.15</ele>
        <time>2016-02-06T15:55:22Z</time>
      </trkpt>
      <trkpt lat="44.46806" lon="1.04487">
        <ele>211.15</ele>
        <time>2016-02-06T15:55:23Z</time>
      </trkpt>
      <trkpt lat="44.46808" lon="1.04482">
        <ele>211.15</ele>
        <time>2016-02-06T15:55:24Z</time>
      </trkpt>
      <trkpt lat="44.46811" lon="1.04478">
        <ele>211.15</ele>
        <time>2016-02-06T15:55:25Z</time>
      </trkpt>
      <trkpt lat="44.46813" lon="1.04473">
        <ele>211.15</ele>
        <time>2016-02-06T15:55:26Z</time>
      </trkpt>
      <trkpt lat="44.46817" lon="1.04469">
        <ele>211.15</ele>
        <time>2016-02-06T15:55:27Z</time>
      </trkpt>
      <trkpt lat="44.46823" lon="1.04461">
        <ele>211.63</ele>
        <time>2016-02-06T15:55:29Z</time>
      </trkpt>
      <trkpt lat="44.46874" lon="1.04412">
        <ele>212.59</ele>
        <time>2016-02-06T15:55:44Z</time>
      </trkpt>
      <trkpt lat="44.46882" lon="1.04406">
        <ele>212.59</ele>
        <time>2016-02-06T15:55:46Z</time>
      </trkpt>
      <trkpt lat="44.46885" lon="1.04404">
        <ele>213.07</ele>
        <time>2016-02-06T15:55:47Z</time>
      </trkpt>
      <trkpt lat="44.46888" lon="1.04401">
        <ele>213.07</ele>
        <time>2016-02-06T15:55:48Z</time>
      </trkpt>
      <trkpt lat="44.46892" lon="1.04398">
        <ele>213.07</ele>
        <time>2016-02-06T15:55:49Z</time>
      </trkpt>
      <trkpt lat="44.46896" lon="1.04395">
        <ele>213.07</ele>
        <time>2016-02-06T15:55:50Z</time>
      </trkpt>
      <trkpt lat="44.469" lon="1.04392">
        <ele>213.07</ele>
        <time>2016-02-06T15:55:51Z</time>
      </trkpt>
      <trkpt lat="44.46903" lon="1.04388">
        <ele>212.59</ele>
        <time>2016-02-06T15:55:52Z</time>
      </trkpt>
      <trkpt lat="44.4691" lon="1.04379">
        <ele>212.59</ele>
        <time>2016-02-06T15:55:54Z</time>
      </trkpt>
      <trkpt lat="44.46916" lon="1.04368">
        <ele>212.11</ele>
        <time>2016-02-06T15:55:56Z</time>
      </trkpt>
      <trkpt lat="44.46918" lon="1.04363">
        <ele>212.11</ele>
        <time>2016-02-06T15:55:57Z</time>
      </trkpt>
      <trkpt lat="44.46964" lon="1.04269">
        <ele>209.7</ele>
        <time>2016-02-06T15:56:13Z</time>
      </trkpt>
      <trkpt lat="44.46981" lon="1.04235">
        <ele>210.19</ele>
        <time>2016-02-06T15:56:20Z</time>
      </trkpt>
      <trkpt lat="44.46983" lon="1.0423">
        <ele>210.19</ele>
        <time>2016-02-06T15:56:21Z</time>
      </trkpt>
      <trkpt lat="44.46986" lon="1.04225">
        <ele>210.19</ele>
        <time>2016-02-06T15:56:22Z</time>
      </trkpt>
      <trkpt lat="44.47015" lon="1.04152">
        <ele>211.15</ele>
        <time>2016-02-06T15:56:35Z</time>
      </trkpt>
      <trkpt lat="44.47024" lon="1.04123">
        <ele>210.67</ele>
        <time>2016-02-06T15:56:40Z</time>
      </trkpt>
      <trkpt lat="44.47054" lon="1.04031">
        <ele>208.74</ele>
        <time>2016-02-06T15:56:54Z</time>
      </trkpt>
      <trkpt lat="44.47056" lon="1.04025">
        <ele>208.74</ele>
        <time>2016-02-06T15:56:55Z</time>
      </trkpt>
      <trkpt lat="44.47058" lon="1.04019">
        <ele>208.74</ele>
        <time>2016-02-06T15:56:56Z</time>
      </trkpt>
      <trkpt lat="44.47064" lon="1.04">
        <ele>208.26</ele>
        <time>2016-02-06T15:56:59Z</time>
      </trkpt>
      <trkpt lat="44.47066" lon="1.03994">
        <ele>208.26</ele>
        <time>2016-02-06T15:57:00Z</time>
      </trkpt>
      <trkpt lat="44.47082" lon="1.03957">
        <ele>208.26</ele>
        <time>2016-02-06T15:57:06Z</time>
      </trkpt>
      <trkpt lat="44.47085" lon="1.03952">
        <ele>208.26</ele>
        <time>2016-02-06T15:57:07Z</time>
      </trkpt>
      <trkpt lat="44.47095" lon="1.03925">
        <ele>207.78</ele>
        <time>2016-02-06T15:57:11Z</time>
      </trkpt>
      <trkpt lat="44.47132" lon="1.03828">
        <ele>206.82</ele>
        <time>2016-02-06T15:57:26Z</time>
      </trkpt>
      <trkpt lat="44.47136" lon="1.03817">
        <ele>206.82</ele>
        <time>2016-02-06T15:57:28Z</time>
      </trkpt>
      <trkpt lat="44.47139" lon="1.03812">
        <ele>206.82</ele>
        <time>2016-02-06T15:57:29Z</time>
      </trkpt>
      <trkpt lat="44.47141" lon="1.03807">
        <ele>206.82</ele>
        <time>2016-02-06T15:57:30Z</time>
      </trkpt>
      <trkpt lat="44.47142" lon="1.03802">
        <ele>206.82</ele>
        <time>2016-02-06T15:57:31Z</time>
      </trkpt>
      <trkpt lat="44.47144" lon="1.03797">
        <ele>206.82</ele>
        <time>2016-02-06T15:57:32Z</time>
      </trkpt>
      <trkpt lat="44.47145" lon="1.03792">
        <ele>206.82</ele>
        <time>2016-02-06T15:57:33Z</time>
      </trkpt>
      <trkpt lat="44.47146" lon="1.03788">
        <ele>206.82</ele>
        <time>2016-02-06T15:57:34Z</time>
      </trkpt>
      <trkpt lat="44.47147" lon="1.03783">
        <ele>206.82</ele>
        <time>2016-02-06T15:57:35Z</time>
      </trkpt>
      <trkpt lat="44.47148" lon="1.03778">
        <ele>206.82</ele>
        <time>2016-02-06T15:57:36Z</time>
      </trkpt>
      <trkpt lat="44.47149" lon="1.03772">
        <ele>206.82</ele>
        <time>2016-02-06T15:57:37Z</time>
      </trkpt>
      <trkpt lat="44.4716" lon="1.03716">
        <ele>207.3</ele>
        <time>2016-02-06T15:57:48Z</time>
      </trkpt>
      <trkpt lat="44.47171" lon="1.03664">
        <ele>206.82</ele>
        <time>2016-02-06T15:57:58Z</time>
      </trkpt>
      <trkpt lat="44.47182" lon="1.0362">
        <ele>202.49</ele>
        <time>2016-02-06T15:58:07Z</time>
      </trkpt>
      <trkpt lat="44.47196" lon="1.03559">
        <ele>196.25</ele>
        <time>2016-02-06T15:58:18Z</time>
      </trkpt>
      <trkpt lat="44.47197" lon="1.03553">
        <ele>195.77</ele>
        <time>2016-02-06T15:58:19Z</time>
      </trkpt>
      <trkpt lat="44.47198" lon="1.03547">
        <ele>194.8</ele>
        <time>2016-02-06T15:58:20Z</time>
      </trkpt>
      <trkpt lat="44.47201" lon="1.03514">
        <ele>192.4</ele>
        <time>2016-02-06T15:58:25Z</time>
      </trkpt>
      <trkpt lat="44.47201" lon="1.035">
        <ele>191.44</ele>
        <time>2016-02-06T15:58:27Z</time>
      </trkpt>
      <trkpt lat="44.47198" lon="1.03468">
        <ele>189.04</ele>
        <time>2016-02-06T15:58:31Z</time>
      </trkpt>
      <trkpt lat="44.47197" lon="1.03461">
        <ele>188.56</ele>
        <time>2016-02-06T15:58:32Z</time>
      </trkpt>
      <trkpt lat="44.47196" lon="1.03454">
        <ele>188.08</ele>
        <time>2016-02-06T15:58:33Z</time>
      </trkpt>
      <trkpt lat="44.47187" lon="1.03415">
        <ele>183.75</ele>
        <time>2016-02-06T15:58:42Z</time>
      </trkpt>
      <trkpt lat="44.4718" lon="1.03374">
        <ele>179.42</ele>
        <time>2016-02-06T15:58:52Z</time>
      </trkpt>
      <trkpt lat="44.47177" lon="1.03348">
        <ele>177.02</ele>
        <time>2016-02-06T15:59:03Z</time>
      </trkpt>
      <trkpt lat="44.47176" lon="1.03333">
        <ele>173.17</ele>
        <time>2016-02-06T15:59:15Z</time>
      </trkpt>
      <trkpt lat="44.47173" lon="1.03315">
        <ele>170.29</ele>
        <time>2016-02-06T15:59:29Z</time>
      </trkpt>
      <trkpt lat="44.47171" lon="1.03299">
        <ele>167.89</ele>
        <time>2016-02-06T15:59:44Z</time>
      </trkpt>
      <trkpt lat="44.47171" lon="1.03297">
        <ele>167.41</ele>
        <time>2016-02-06T15:59:45Z</time>
      </trkpt>
      <trkpt lat="44.47169" lon="1.0327">
        <ele>164.04</ele>
        <time>2016-02-06T15:59:57Z</time>
      </trkpt>
      <trkpt lat="44.47169" lon="1.03268">
        <ele>164.04</ele>
        <time>2016-02-06T15:59:58Z</time>
      </trkpt>
      <trkpt lat="44.4717" lon="1.03266">
        <ele>164.04</ele>
        <time>2016-02-06T15:59:59Z</time>
      </trkpt>
      <trkpt lat="44.4717" lon="1.03264">
        <ele>163.56</ele>
        <time>2016-02-06T16:00:00Z</time>
      </trkpt>
      <trkpt lat="44.4717" lon="1.03262">
        <ele>163.56</ele>
        <time>2016-02-06T16:00:01Z</time>
      </trkpt>
      <trkpt lat="44.47174" lon="1.03226">
        <ele>160.2</ele>
        <time>2016-02-06T16:00:12Z</time>
      </trkpt>
      <trkpt lat="44.47175" lon="1.03196">
        <ele>158.27</ele>
        <time>2016-02-06T16:00:17Z</time>
      </trkpt>
      <trkpt lat="44.47174" lon="1.03188">
        <ele>157.79</ele>
        <time>2016-02-06T16:00:18Z</time>
      </trkpt>
      <trkpt lat="44.47163" lon="1.03088">
        <ele>154.91</ele>
        <time>2016-02-06T16:00:32Z</time>
      </trkpt>
      <trkpt lat="44.47164" lon="1.03081">
        <ele>154.91</ele>
        <time>2016-02-06T16:00:33Z</time>
      </trkpt>
      <trkpt lat="44.47178" lon="1.03003">
        <ele>151.06</ele>
        <time>2016-02-06T16:00:42Z</time>
      </trkpt>
      <trkpt lat="44.47178" lon="1.02993">
        <ele>150.58</ele>
        <time>2016-02-06T16:00:43Z</time>
      </trkpt>
      <trkpt lat="44.47178" lon="1.02982">
        <ele>150.1</ele>
        <time>2016-02-06T16:00:44Z</time>
      </trkpt>
      <trkpt lat="44.47161" lon="1.02817">
        <ele>145.3</ele>
        <time>2016-02-06T16:00:58Z</time>
      </trkpt>
      <trkpt lat="44.47159" lon="1.02807">
        <ele>144.82</ele>
        <time>2016-02-06T16:00:59Z</time>
      </trkpt>
      <trkpt lat="44.47132" lon="1.02727">
        <ele>143.37</ele>
        <time>2016-02-06T16:01:07Z</time>
      </trkpt>
      <trkpt lat="44.47131" lon="1.02718">
        <ele>143.37</ele>
        <time>2016-02-06T16:01:08Z</time>
      </trkpt>
      <trkpt lat="44.4713" lon="1.0271">
        <ele>143.37</ele>
        <time>2016-02-06T16:01:09Z</time>
      </trkpt>
      <trkpt lat="44.4713" lon="1.02701">
        <ele>143.85</ele>
        <time>2016-02-06T16:01:10Z</time>
      </trkpt>
      <trkpt lat="44.47131" lon="1.02693">
        <ele>143.85</ele>
        <time>2016-02-06T16:01:11Z</time>
      </trkpt>
      <trkpt lat="44.47131" lon="1.02684">
        <ele>144.34</ele>
        <time>2016-02-06T16:01:12Z</time>
      </trkpt>
      <trkpt lat="44.47137" lon="1.02632">
        <ele>145.3</ele>
        <time>2016-02-06T16:01:18Z</time>
      </trkpt>
      <trkpt lat="44.47138" lon="1.02624">
        <ele>145.3</ele>
        <time>2016-02-06T16:01:19Z</time>
      </trkpt>
      <trkpt lat="44.47148" lon="1.02574">
        <ele>144.82</ele>
        <time>2016-02-06T16:01:25Z</time>
      </trkpt>
      <trkpt lat="44.4717" lon="1.02513">
        <ele>143.37</ele>
        <time>2016-02-06T16:01:32Z</time>
      </trkpt>
      <trkpt lat="44.47172" lon="1.02502">
        <ele>142.89</ele>
        <time>2016-02-06T16:01:33Z</time>
      </trkpt>
      <trkpt lat="44.47174" lon="1.02491">
        <ele>142.41</ele>
        <time>2016-02-06T16:01:34Z</time>
      </trkpt>
      <trkpt lat="44.47174" lon="1.02479">
        <ele>141.93</ele>
        <time>2016-02-06T16:01:35Z</time>
      </trkpt>
      <trkpt lat="44.47173" lon="1.02467">
        <ele>141.45</ele>
        <time>2016-02-06T16:01:36Z</time>
      </trkpt>
      <trkpt lat="44.47172" lon="1.02455">
        <ele>140.97</ele>
        <time>2016-02-06T16:01:37Z</time>
      </trkpt>
      <trkpt lat="44.47168" lon="1.02431">
        <ele>140.01</ele>
        <time>2016-02-06T16:01:39Z</time>
      </trkpt>
      <trkpt lat="44.47133" lon="1.02265">
        <ele>132.32</ele>
        <time>2016-02-06T16:01:52Z</time>
      </trkpt>
      <trkpt lat="44.47094" lon="1.02106">
        <ele>124.15</ele>
        <time>2016-02-06T16:02:04Z</time>
      </trkpt>
      <trkpt lat="44.47075" lon="1.01935">
        <ele>118.86</ele>
        <time>2016-02-06T16:02:17Z</time>
      </trkpt>
      <trkpt lat="44.47077" lon="1.01875">
        <ele>118.38</ele>
        <time>2016-02-06T16:02:23Z</time>
      </trkpt>
      <trkpt lat="44.47093" lon="1.01749">
        <ele>115.01</ele>
        <time>2016-02-06T16:02:36Z</time>
      </trkpt>
      <trkpt lat="44.471" lon="1.01593">
        <ele>108.29</ele>
        <time>2016-02-06T16:02:48Z</time>
      </trkpt>
      <trkpt lat="44.47094" lon="1.01469">
        <ele>105.4</ele>
        <time>2016-02-06T16:02:57Z</time>
      </trkpt>
      <trkpt lat="44.47089" lon="1.01394">
        <ele>109.73</ele>
        <time>2016-02-06T16:03:08Z</time>
      </trkpt>
      <trkpt lat="44.47088" lon="1.01383">
        <ele>111.17</ele>
        <time>2016-02-06T16:03:10Z</time>
      </trkpt>
      <trkpt lat="44.47087" lon="1.01372">
        <ele>112.13</ele>
        <time>2016-02-06T16:03:12Z</time>
      </trkpt>
      <trkpt lat="44.47087" lon="1.01366">
        <ele>112.61</ele>
        <time>2016-02-06T16:03:13Z</time>
      </trkpt>
      <trkpt lat="44.47087" lon="1.01336">
        <ele>115.98</ele>
        <time>2016-02-06T16:03:18Z</time>
      </trkpt>
      <trkpt lat="44.47087" lon="1.0133">
        <ele>116.46</ele>
        <time>2016-02-06T16:03:19Z</time>
      </trkpt>
      <trkpt lat="44.47088" lon="1.01324">
        <ele>116.94</ele>
        <time>2016-02-06T16:03:20Z</time>
      </trkpt>
      <trkpt lat="44.47089" lon="1.01318">
        <ele>117.42</ele>
        <time>2016-02-06T16:03:21Z</time>
      </trkpt>
      <trkpt lat="44.47089" lon="1.01312">
        <ele>117.9</ele>
        <time>2016-02-06T16:03:22Z</time>
      </trkpt>
      <trkpt lat="44.47091" lon="1.01259">
        <ele>120.78</ele>
        <time>2016-02-06T16:03:33Z</time>
      </trkpt>
      <trkpt lat="44.47092" lon="1.01237">
        <ele>121.26</ele>
        <time>2016-02-06T16:03:41Z</time>
      </trkpt>
      <trkpt lat="44.47091" lon="1.01238">
        <ele>122.71</ele>
        <time>2016-02-06T16:04:04Z</time>
      </trkpt>
      <trkpt lat="44.47091" lon="1.01236">
        <ele>123.19</ele>
        <time>2016-02-06T16:04:18Z</time>
      </trkpt>
      <trkpt lat="44.47092" lon="1.01235">
        <ele>123.19</ele>
        <time>2016-02-06T16:04:40Z</time>
      </trkpt>
      <trkpt lat="44.47092" lon="1.01234">
        <ele>123.67</ele>
        <time>2016-02-06T16:05:04Z</time>
      </trkpt>
      <trkpt lat="44.47093" lon="1.01217">
        <ele>124.15</ele>
        <time>2016-02-06T16:05:11Z</time>
      </trkpt>
      <trkpt lat="44.47092" lon="1.01212">
        <ele>123.67</ele>
        <time>2016-02-06T16:05:12Z</time>
      </trkpt>
      <trkpt lat="44.47091" lon="1.01208">
        <ele>123.19</ele>
        <time>2016-02-06T16:05:13Z</time>
      </trkpt>
      <trkpt lat="44.4709" lon="1.0119">
        <ele>121.26</ele>
        <time>2016-02-06T16:05:16Z</time>
      </trkpt>
      <trkpt lat="44.47086" lon="1.0115">
        <ele>118.86</ele>
        <time>2016-02-06T16:05:21Z</time>
      </trkpt>
      <trkpt lat="44.47087" lon="1.01142">
        <ele>118.86</ele>
        <time>2016-02-06T16:05:22Z</time>
      </trkpt>
      <trkpt lat="44.47087" lon="1.01134">
        <ele>118.38</ele>
        <time>2016-02-06T16:05:23Z</time>
      </trkpt>
      <trkpt lat="44.47089" lon="1.01127">
        <ele>118.86</ele>
        <time>2016-02-06T16:05:24Z</time>
      </trkpt>
      <trkpt lat="44.4709" lon="1.01121">
        <ele>118.86</ele>
        <time>2016-02-06T16:05:25Z</time>
      </trkpt>
      <trkpt lat="44.47093" lon="1.01115">
        <ele>118.86</ele>
        <time>2016-02-06T16:05:26Z</time>
      </trkpt>
      <trkpt lat="44.47095" lon="1.0111">
        <ele>119.34</ele>
        <time>2016-02-06T16:05:27Z</time>
      </trkpt>
      <trkpt lat="44.47098" lon="1.01105">
        <ele>119.34</ele>
        <time>2016-02-06T16:05:28Z</time>
      </trkpt>
      <trkpt lat="44.47102" lon="1.01095">
        <ele>120.3</ele>
        <time>2016-02-06T16:05:30Z</time>
      </trkpt>
      <trkpt lat="44.47105" lon="1.0109">
        <ele>120.78</ele>
        <time>2016-02-06T16:05:31Z</time>
      </trkpt>
      <trkpt lat="44.47125" lon="1.01042">
        <ele>128.47</ele>
        <time>2016-02-06T16:05:43Z</time>
      </trkpt>
      <trkpt lat="44.47137" lon="1.00998">
        <ele>130.4</ele>
        <time>2016-02-06T16:05:53Z</time>
      </trkpt>
      <trkpt lat="44.47151" lon="1.0095">
        <ele>131.36</ele>
        <time>2016-02-06T16:06:04Z</time>
      </trkpt>
      <trkpt lat="44.47174" lon="1.0089">
        <ele>128.95</ele>
        <time>2016-02-06T16:06:17Z</time>
      </trkpt>
      <trkpt lat="44.47182" lon="1.00863">
        <ele>128.47</ele>
        <time>2016-02-06T16:06:22Z</time>
      </trkpt>
      <trkpt lat="44.47183" lon="1.00857">
        <ele>128.47</ele>
        <time>2016-02-06T16:06:23Z</time>
      </trkpt>
      <trkpt lat="44.47194" lon="1.00806">
        <ele>127.03</ele>
        <time>2016-02-06T16:06:31Z</time>
      </trkpt>
      <trkpt lat="44.47195" lon="1.008">
        <ele>127.03</ele>
        <time>2016-02-06T16:06:32Z</time>
      </trkpt>
      <trkpt lat="44.47196" lon="1.00793">
        <ele>126.55</ele>
        <time>2016-02-06T16:06:33Z</time>
      </trkpt>
      <trkpt lat="44.47198" lon="1.00787">
        <ele>126.55</ele>
        <time>2016-02-06T16:06:34Z</time>
      </trkpt>
      <trkpt lat="44.47201" lon="1.00783">
        <ele>126.07</ele>
        <time>2016-02-06T16:06:35Z</time>
      </trkpt>
      <trkpt lat="44.47205" lon="1.0078">
        <ele>126.07</ele>
        <time>2016-02-06T16:06:36Z</time>
      </trkpt>
      <trkpt lat="44.47209" lon="1.0078">
        <ele>125.59</ele>
        <time>2016-02-06T16:06:37Z</time>
      </trkpt>
      <trkpt lat="44.47214" lon="1.00779">
        <ele>125.59</ele>
        <time>2016-02-06T16:06:38Z</time>
      </trkpt>
      <trkpt lat="44.47227" lon="1.00779">
        <ele>125.59</ele>
        <time>2016-02-06T16:06:41Z</time>
      </trkpt>
      <trkpt lat="44.47239" lon="1.00779">
        <ele>125.59</ele>
        <time>2016-02-06T16:06:44Z</time>
      </trkpt>
      <trkpt lat="44.47243" lon="1.00779">
        <ele>125.59</ele>
        <time>2016-02-06T16:06:45Z</time>
      </trkpt>
      <trkpt lat="44.47272" lon="1.00775">
        <ele>125.11</ele>
        <time>2016-02-06T16:06:53Z</time>
      </trkpt>
      <trkpt lat="44.47285" lon="1.00774">
        <ele>125.11</ele>
        <time>2016-02-06T16:06:56Z</time>
      </trkpt>
      <trkpt lat="44.47289" lon="1.00773">
        <ele>125.59</ele>
        <time>2016-02-06T16:06:57Z</time>
      </trkpt>
      <trkpt lat="44.47327" lon="1.00758">
        <ele>127.03</ele>
        <time>2016-02-06T16:07:07Z</time>
      </trkpt>
      <trkpt lat="44.47335" lon="1.00753">
        <ele>127.03</ele>
        <time>2016-02-06T16:07:09Z</time>
      </trkpt>
      <trkpt lat="44.47342" lon="1.00746">
        <ele>127.03</ele>
        <time>2016-02-06T16:07:11Z</time>
      </trkpt>
      <trkpt lat="44.47346" lon="1.00743">
        <ele>127.03</ele>
        <time>2016-02-06T16:07:12Z</time>
      </trkpt>
      <trkpt lat="44.47349" lon="1.0074">
        <ele>127.03</ele>
        <time>2016-02-06T16:07:13Z</time>
      </trkpt>
      <trkpt lat="44.47353" lon="1.00736">
        <ele>127.03</ele>
        <time>2016-02-06T16:07:14Z</time>
      </trkpt>
      <trkpt lat="44.47356" lon="1.00733">
        <ele>127.03</ele>
        <time>2016-02-06T16:07:15Z</time>
      </trkpt>
      <trkpt lat="44.47359" lon="1.00729">
        <ele>127.03</ele>
        <time>2016-02-06T16:07:16Z</time>
      </trkpt>
      <trkpt lat="44.47362" lon="1.00724">
        <ele>127.03</ele>
        <time>2016-02-06T16:07:17Z</time>
      </trkpt>
      <trkpt lat="44.47365" lon="1.00719">
        <ele>127.03</ele>
        <time>2016-02-06T16:07:18Z</time>
      </trkpt>
      <trkpt lat="44.47367" lon="1.00714">
        <ele>127.03</ele>
        <time>2016-02-06T16:07:19Z</time>
      </trkpt>
      <trkpt lat="44.4737" lon="1.00709">
        <ele>127.03</ele>
        <time>2016-02-06T16:07:20Z</time>
      </trkpt>
      <trkpt lat="44.47373" lon="1.00704">
        <ele>127.03</ele>
        <time>2016-02-06T16:07:21Z</time>
      </trkpt>
      <trkpt lat="44.47379" lon="1.00694">
        <ele>126.55</ele>
        <time>2016-02-06T16:07:23Z</time>
      </trkpt>
      <trkpt lat="44.47388" lon="1.00678">
        <ele>126.55</ele>
        <time>2016-02-06T16:07:26Z</time>
      </trkpt>
      <trkpt lat="44.4739" lon="1.00673">
        <ele>126.55</ele>
        <time>2016-02-06T16:07:27Z</time>
      </trkpt>
      <trkpt lat="44.47422" lon="1.00604">
        <ele>125.11</ele>
        <time>2016-02-06T16:07:39Z</time>
      </trkpt>
      <trkpt lat="44.47441" lon="1.00569">
        <ele>124.63</ele>
        <time>2016-02-06T16:07:45Z</time>
      </trkpt>
      <trkpt lat="44.47447" lon="1.00557">
        <ele>124.63</ele>
        <time>2016-02-06T16:07:47Z</time>
      </trkpt>
      <trkpt lat="44.47462" lon="1.00529">
        <ele>125.59</ele>
        <time>2016-02-06T16:07:52Z</time>
      </trkpt>
      <trkpt lat="44.4749" lon="1.00485">
        <ele>126.55</ele>
        <time>2016-02-06T16:08:00Z</time>
      </trkpt>
      <trkpt lat="44.47543" lon="1.00394">
        <ele>125.59</ele>
        <time>2016-02-06T16:08:16Z</time>
      </trkpt>
      <trkpt lat="44.47601" lon="1.00309">
        <ele>122.22</ele>
        <time>2016-02-06T16:08:29Z</time>
      </trkpt>
      <trkpt lat="44.47682" lon="1.00195">
        <ele>115.98</ele>
        <time>2016-02-06T16:08:42Z</time>
      </trkpt>
      <trkpt lat="44.47843" lon="0.99988">
        <ele>103.96</ele>
        <time>2016-02-06T16:09:02Z</time>
      </trkpt>
      <trkpt lat="44.47932" lon="0.99883">
        <ele>99.63</ele>
        <time>2016-02-06T16:09:13Z</time>
      </trkpt>
      <trkpt lat="44.47942" lon="0.99878">
        <ele>99.63</ele>
        <time>2016-02-06T16:09:14Z</time>
      </trkpt>
      <trkpt lat="44.47952" lon="0.99876">
        <ele>99.15</ele>
        <time>2016-02-06T16:09:15Z</time>
      </trkpt>
      <trkpt lat="44.47971" lon="0.99877">
        <ele>98.67</ele>
        <time>2016-02-06T16:09:17Z</time>
      </trkpt>
      <trkpt lat="44.47981" lon="0.99875">
        <ele>98.67</ele>
        <time>2016-02-06T16:09:18Z</time>
      </trkpt>
      <trkpt lat="44.47991" lon="0.99872">
        <ele>98.19</ele>
        <time>2016-02-06T16:09:19Z</time>
      </trkpt>
      <trkpt lat="44.48" lon="0.99868">
        <ele>98.19</ele>
        <time>2016-02-06T16:09:20Z</time>
      </trkpt>
      <trkpt lat="44.48008" lon="0.99863">
        <ele>97.71</ele>
        <time>2016-02-06T16:09:21Z</time>
      </trkpt>
      <trkpt lat="44.48016" lon="0.99856">
        <ele>97.71</ele>
        <time>2016-02-06T16:09:22Z</time>
      </trkpt>
      <trkpt lat="44.48024" lon="0.99849">
        <ele>97.23</ele>
        <time>2016-02-06T16:09:23Z</time>
      </trkpt>
      <trkpt lat="44.48031" lon="0.99841">
        <ele>97.23</ele>
        <time>2016-02-06T16:09:24Z</time>
      </trkpt>
      <trkpt lat="44.48037" lon="0.99832">
        <ele>96.75</ele>
        <time>2016-02-06T16:09:25Z</time>
      </trkpt>
      <trkpt lat="44.48043" lon="0.99823">
        <ele>96.75</ele>
        <time>2016-02-06T16:09:26Z</time>
      </trkpt>
      <trkpt lat="44.48131" lon="0.99684">
        <ele>92.9</ele>
        <time>2016-02-06T16:09:41Z</time>
      </trkpt>
      <trkpt lat="44.48212" lon="0.99555">
        <ele>90.5</ele>
        <time>2016-02-06T16:09:55Z</time>
      </trkpt>
      <trkpt lat="44.48226" lon="0.99539">
        <ele>90.02</ele>
        <time>2016-02-06T16:09:57Z</time>
      </trkpt>
      <trkpt lat="44.48306" lon="0.99459">
        <ele>88.58</ele>
        <time>2016-02-06T16:10:09Z</time>
      </trkpt>
      <trkpt lat="44.48352" lon="0.99419">
        <ele>86.66</ele>
        <time>2016-02-06T16:10:15Z</time>
      </trkpt>
      <trkpt lat="44.48361" lon="0.99415">
        <ele>86.18</ele>
        <time>2016-02-06T16:10:16Z</time>
      </trkpt>
      <trkpt lat="44.48371" lon="0.99412">
        <ele>85.21</ele>
        <time>2016-02-06T16:10:17Z</time>
      </trkpt>
      <trkpt lat="44.48381" lon="0.99411">
        <ele>84.25</ele>
        <time>2016-02-06T16:10:18Z</time>
      </trkpt>
      <trkpt lat="44.48393" lon="0.99411">
        <ele>83.29</ele>
        <time>2016-02-06T16:10:19Z</time>
      </trkpt>
      <trkpt lat="44.48404" lon="0.99413">
        <ele>81.85</ele>
        <time>2016-02-06T16:10:20Z</time>
      </trkpt>
      <trkpt lat="44.48567" lon="0.99459">
        <ele>71.27</ele>
        <time>2016-02-06T16:10:34Z</time>
      </trkpt>
      <trkpt lat="44.48577" lon="0.99457">
        <ele>71.27</ele>
        <time>2016-02-06T16:10:35Z</time>
      </trkpt>
      <trkpt lat="44.48586" lon="0.99452">
        <ele>71.27</ele>
        <time>2016-02-06T16:10:36Z</time>
      </trkpt>
      <trkpt lat="44.48594" lon="0.99444">
        <ele>70.79</ele>
        <time>2016-02-06T16:10:37Z</time>
      </trkpt>
      <trkpt lat="44.48601" lon="0.99437">
        <ele>71.27</ele>
        <time>2016-02-06T16:10:38Z</time>
      </trkpt>
      <trkpt lat="44.48608" lon="0.99429">
        <ele>70.79</ele>
        <time>2016-02-06T16:10:39Z</time>
      </trkpt>
      <trkpt lat="44.4869" lon="0.99337">
        <ele>68.87</ele>
        <time>2016-02-06T16:10:53Z</time>
      </trkpt>
      <trkpt lat="44.48729" lon="0.99294">
        <ele>68.39</ele>
        <time>2016-02-06T16:11:01Z</time>
      </trkpt>
      <trkpt lat="44.48792" lon="0.99234">
        <ele>67.91</ele>
        <time>2016-02-06T16:11:14Z</time>
      </trkpt>
      <trkpt lat="44.48861" lon="0.9916">
        <ele>67.91</ele>
        <time>2016-02-06T16:11:29Z</time>
      </trkpt>
      <trkpt lat="44.48911" lon="0.99072">
        <ele>67.91</ele>
        <time>2016-02-06T16:11:43Z</time>
      </trkpt>
      <trkpt lat="44.48931" lon="0.99036">
        <ele>68.39</ele>
        <time>2016-02-06T16:11:49Z</time>
      </trkpt>
      <trkpt lat="44.48935" lon="0.99031">
        <ele>68.39</ele>
        <time>2016-02-06T16:11:50Z</time>
      </trkpt>
      <trkpt lat="44.48975" lon="0.98973">
        <ele>68.39</ele>
        <time>2016-02-06T16:12:00Z</time>
      </trkpt>
      <trkpt lat="44.48979" lon="0.98968">
        <ele>68.39</ele>
        <time>2016-02-06T16:12:01Z</time>
      </trkpt>
      <trkpt lat="44.48985" lon="0.98958">
        <ele>68.39</ele>
        <time>2016-02-06T16:12:03Z</time>
      </trkpt>
      <trkpt lat="44.48988" lon="0.98952">
        <ele>68.39</ele>
        <time>2016-02-06T16:12:04Z</time>
      </trkpt>
      <trkpt lat="44.48991" lon="0.98948">
        <ele>68.39</ele>
        <time>2016-02-06T16:12:05Z</time>
      </trkpt>
      <trkpt lat="44.48995" lon="0.98944">
        <ele>68.39</ele>
        <time>2016-02-06T16:12:06Z</time>
      </trkpt>
      <trkpt lat="44.48998" lon="0.9894">
        <ele>68.39</ele>
        <time>2016-02-06T16:12:07Z</time>
      </trkpt>
      <trkpt lat="44.49" lon="0.98935">
        <ele>68.39</ele>
        <time>2016-02-06T16:12:08Z</time>
      </trkpt>
      <trkpt lat="44.49004" lon="0.98925">
        <ele>68.39</ele>
        <time>2016-02-06T16:12:10Z</time>
      </trkpt>
      <trkpt lat="44.49005" lon="0.98919">
        <ele>68.39</ele>
        <time>2016-02-06T16:12:11Z</time>
      </trkpt>
      <trkpt lat="44.49003" lon="0.98914">
        <ele>68.39</ele>
        <time>2016-02-06T16:12:12Z</time>
      </trkpt>
      <trkpt lat="44.49001" lon="0.98909">
        <ele>68.39</ele>
        <time>2016-02-06T16:12:13Z</time>
      </trkpt>
      <trkpt lat="44.48997" lon="0.98905">
        <ele>68.87</ele>
        <time>2016-02-06T16:12:14Z</time>
      </trkpt>
      <trkpt lat="44.48993" lon="0.98901">
        <ele>68.87</ele>
        <time>2016-02-06T16:12:15Z</time>
      </trkpt>
      <trkpt lat="44.48989" lon="0.98897">
        <ele>68.87</ele>
        <time>2016-02-06T16:12:16Z</time>
      </trkpt>
      <trkpt lat="44.48984" lon="0.98894">
        <ele>69.35</ele>
        <time>2016-02-06T16:12:17Z</time>
      </trkpt>
      <trkpt lat="44.48912" lon="0.98826">
        <ele>71.27</ele>
        <time>2016-02-06T16:12:34Z</time>
      </trkpt>
      <trkpt lat="44.4885" lon="0.98768">
        <ele>71.76</ele>
        <time>2016-02-06T16:12:49Z</time>
      </trkpt>
      <trkpt lat="44.48788" lon="0.9872">
        <ele>72.24</ele>
        <time>2016-02-06T16:13:04Z</time>
      </trkpt>
      <trkpt lat="44.48771" lon="0.98708">
        <ele>72.72</ele>
        <time>2016-02-06T16:13:08Z</time>
      </trkpt>
      <trkpt lat="44.48766" lon="0.98705">
        <ele>72.72</ele>
        <time>2016-02-06T16:13:09Z</time>
      </trkpt>
      <trkpt lat="44.48738" lon="0.98684">
        <ele>72.72</ele>
        <time>2016-02-06T16:13:16Z</time>
      </trkpt>
      <trkpt lat="44.48734" lon="0.98682">
        <ele>72.72</ele>
        <time>2016-02-06T16:13:17Z</time>
      </trkpt>
      <trkpt lat="44.48718" lon="0.98667">
        <ele>73.68</ele>
        <time>2016-02-06T16:13:23Z</time>
      </trkpt>
      <trkpt lat="44.48717" lon="0.98663">
        <ele>73.68</ele>
        <time>2016-02-06T16:13:24Z</time>
      </trkpt>
      <trkpt lat="44.48718" lon="0.98658">
        <ele>73.68</ele>
        <time>2016-02-06T16:13:25Z</time>
      </trkpt>
      <trkpt lat="44.48718" lon="0.98652">
        <ele>73.68</ele>
        <time>2016-02-06T16:13:26Z</time>
      </trkpt>
      <trkpt lat="44.48719" lon="0.98646">
        <ele>73.68</ele>
        <time>2016-02-06T16:13:27Z</time>
      </trkpt>
      <trkpt lat="44.4872" lon="0.9864">
        <ele>73.68</ele>
        <time>2016-02-06T16:13:28Z</time>
      </trkpt>
      <trkpt lat="44.48725" lon="0.98567">
        <ele>73.68</ele>
        <time>2016-02-06T16:13:39Z</time>
      </trkpt>
      <trkpt lat="44.48726" lon="0.9856">
        <ele>73.68</ele>
        <time>2016-02-06T16:13:40Z</time>
      </trkpt>
      <trkpt lat="44.48729" lon="0.98533">
        <ele>74.16</ele>
        <time>2016-02-06T16:13:44Z</time>
      </trkpt>
      <trkpt lat="44.48729" lon="0.98526">
        <ele>74.16</ele>
        <time>2016-02-06T16:13:45Z</time>
      </trkpt>
      <trkpt lat="44.48732" lon="0.98506">
        <ele>74.16</ele>
        <time>2016-02-06T16:13:48Z</time>
      </trkpt>
      <trkpt lat="44.48733" lon="0.98499">
        <ele>74.16</ele>
        <time>2016-02-06T16:13:49Z</time>
      </trkpt>
      <trkpt lat="44.48734" lon="0.98493">
        <ele>74.16</ele>
        <time>2016-02-06T16:13:50Z</time>
      </trkpt>
      <trkpt lat="44.48735" lon="0.98486">
        <ele>74.16</ele>
        <time>2016-02-06T16:13:51Z</time>
      </trkpt>
      <trkpt lat="44.48737" lon="0.98479">
        <ele>74.16</ele>
        <time>2016-02-06T16:13:52Z</time>
      </trkpt>
      <trkpt lat="44.48739" lon="0.98473">
        <ele>74.16</ele>
        <time>2016-02-06T16:13:53Z</time>
      </trkpt>
      <trkpt lat="44.48745" lon="0.98454">
        <ele>74.16</ele>
        <time>2016-02-06T16:13:56Z</time>
      </trkpt>
      <trkpt lat="44.4875" lon="0.98442">
        <ele>74.16</ele>
        <time>2016-02-06T16:13:58Z</time>
      </trkpt>
      <trkpt lat="44.48753" lon="0.98437">
        <ele>74.16</ele>
        <time>2016-02-06T16:13:59Z</time>
      </trkpt>
      <trkpt lat="44.48804" lon="0.98363">
        <ele>73.68</ele>
        <time>2016-02-06T16:14:13Z</time>
      </trkpt>
      <trkpt lat="44.48807" lon="0.98357">
        <ele>73.68</ele>
        <time>2016-02-06T16:14:14Z</time>
      </trkpt>
      <trkpt lat="44.4884" lon="0.98267">
        <ele>73.68</ele>
        <time>2016-02-06T16:14:28Z</time>
      </trkpt>
      <trkpt lat="44.48842" lon="0.98261">
        <ele>73.68</ele>
        <time>2016-02-06T16:14:29Z</time>
      </trkpt>
      <trkpt lat="44.48868" lon="0.98224">
        <ele>73.68</ele>
        <time>2016-02-06T16:14:39Z</time>
      </trkpt>
      <trkpt lat="44.48871" lon="0.98221">
        <ele>73.68</ele>
        <time>2016-02-06T16:14:40Z</time>
      </trkpt>
      <trkpt lat="44.48873" lon="0.98216">
        <ele>73.68</ele>
        <time>2016-02-06T16:14:41Z</time>
      </trkpt>
      <trkpt lat="44.48874" lon="0.9821">
        <ele>73.68</ele>
        <time>2016-02-06T16:14:42Z</time>
      </trkpt>
      <trkpt lat="44.48875" lon="0.98204">
        <ele>73.68</ele>
        <time>2016-02-06T16:14:43Z</time>
      </trkpt>
      <trkpt lat="44.48875" lon="0.98198">
        <ele>73.2</ele>
        <time>2016-02-06T16:14:44Z</time>
      </trkpt>
      <trkpt lat="44.48874" lon="0.98192">
        <ele>73.2</ele>
        <time>2016-02-06T16:14:45Z</time>
      </trkpt>
      <trkpt lat="44.48873" lon="0.98186">
        <ele>73.2</ele>
        <time>2016-02-06T16:14:46Z</time>
      </trkpt>
      <trkpt lat="44.48873" lon="0.9818">
        <ele>73.2</ele>
        <time>2016-02-06T16:14:47Z</time>
      </trkpt>
      <trkpt lat="44.48873" lon="0.98174">
        <ele>73.2</ele>
        <time>2016-02-06T16:14:48Z</time>
      </trkpt>
      <trkpt lat="44.48874" lon="0.98143">
        <ele>72.72</ele>
        <time>2016-02-06T16:14:53Z</time>
      </trkpt>
      <trkpt lat="44.48875" lon="0.98136">
        <ele>72.24</ele>
        <time>2016-02-06T16:14:54Z</time>
      </trkpt>
      <trkpt lat="44.48877" lon="0.98129">
        <ele>72.24</ele>
        <time>2016-02-06T16:14:55Z</time>
      </trkpt>
      <trkpt lat="44.48882" lon="0.98109">
        <ele>72.72</ele>
        <time>2016-02-06T16:14:58Z</time>
      </trkpt>
      <trkpt lat="44.48902" lon="0.98027">
        <ele>74.16</ele>
        <time>2016-02-06T16:15:11Z</time>
      </trkpt>
      <trkpt lat="44.48914" lon="0.97956">
        <ele>77.04</ele>
        <time>2016-02-06T16:15:23Z</time>
      </trkpt>
      <trkpt lat="44.48915" lon="0.9795">
        <ele>77.52</ele>
        <time>2016-02-06T16:15:24Z</time>
      </trkpt>
      <trkpt lat="44.48925" lon="0.97895">
        <ele>78.97</ele>
        <time>2016-02-06T16:15:33Z</time>
      </trkpt>
      <trkpt lat="44.48928" lon="0.97882">
        <ele>78.97</ele>
        <time>2016-02-06T16:15:35Z</time>
      </trkpt>
      <trkpt lat="44.48929" lon="0.97875">
        <ele>78.97</ele>
        <time>2016-02-06T16:15:36Z</time>
      </trkpt>
      <trkpt lat="44.4893" lon="0.97869">
        <ele>78.97</ele>
        <time>2016-02-06T16:15:37Z</time>
      </trkpt>
      <trkpt lat="44.48938" lon="0.9783">
        <ele>78.48</ele>
        <time>2016-02-06T16:15:42Z</time>
      </trkpt>
      <trkpt lat="44.4894" lon="0.97822">
        <ele>78</ele>
        <time>2016-02-06T16:15:43Z</time>
      </trkpt>
      <trkpt lat="44.48945" lon="0.97806">
        <ele>77.52</ele>
        <time>2016-02-06T16:15:45Z</time>
      </trkpt>
      <trkpt lat="44.48948" lon="0.97798">
        <ele>77.04</ele>
        <time>2016-02-06T16:15:46Z</time>
      </trkpt>
      <trkpt lat="44.48952" lon="0.9779">
        <ele>77.04</ele>
        <time>2016-02-06T16:15:47Z</time>
      </trkpt>
      <trkpt lat="44.48956" lon="0.97782">
        <ele>76.56</ele>
        <time>2016-02-06T16:15:48Z</time>
      </trkpt>
      <trkpt lat="44.4896" lon="0.97775">
        <ele>76.56</ele>
        <time>2016-02-06T16:15:49Z</time>
      </trkpt>
      <trkpt lat="44.48979" lon="0.9774">
        <ele>75.6</ele>
        <time>2016-02-06T16:15:54Z</time>
      </trkpt>
      <trkpt lat="44.48982" lon="0.97732">
        <ele>75.12</ele>
        <time>2016-02-06T16:15:55Z</time>
      </trkpt>
      <trkpt lat="44.48984" lon="0.97725">
        <ele>75.12</ele>
        <time>2016-02-06T16:15:56Z</time>
      </trkpt>
      <trkpt lat="44.48986" lon="0.97717">
        <ele>75.12</ele>
        <time>2016-02-06T16:15:57Z</time>
      </trkpt>
      <trkpt lat="44.48987" lon="0.97709">
        <ele>74.64</ele>
        <time>2016-02-06T16:15:58Z</time>
      </trkpt>
      <trkpt lat="44.48988" lon="0.97701">
        <ele>74.16</ele>
        <time>2016-02-06T16:15:59Z</time>
      </trkpt>
      <trkpt lat="44.48987" lon="0.97693">
        <ele>74.16</ele>
        <time>2016-02-06T16:16:00Z</time>
      </trkpt>
      <trkpt lat="44.48984" lon="0.97647">
        <ele>72.72</ele>
        <time>2016-02-06T16:16:06Z</time>
      </trkpt>
      <trkpt lat="44.48971" lon="0.97537">
        <ele>72.72</ele>
        <time>2016-02-06T16:16:21Z</time>
      </trkpt>
      <trkpt lat="44.48968" lon="0.97479">
        <ele>72.72</ele>
        <time>2016-02-06T16:16:29Z</time>
      </trkpt>
      <trkpt lat="44.48967" lon="0.97369">
        <ele>72.72</ele>
        <time>2016-02-06T16:16:44Z</time>
      </trkpt>
      <trkpt lat="44.48965" lon="0.97349">
        <ele>72.72</ele>
        <time>2016-02-06T16:16:47Z</time>
      </trkpt>
      <trkpt lat="44.48949" lon="0.9726">
        <ele>73.68</ele>
        <time>2016-02-06T16:17:00Z</time>
      </trkpt>
      <trkpt lat="44.48948" lon="0.97253">
        <ele>73.68</ele>
        <time>2016-02-06T16:17:01Z</time>
      </trkpt>
      <trkpt lat="44.48926" lon="0.97154">
        <ele>75.12</ele>
        <time>2016-02-06T16:17:16Z</time>
      </trkpt>
      <trkpt lat="44.48897" lon="0.97066">
        <ele>76.56</ele>
        <time>2016-02-06T16:17:30Z</time>
      </trkpt>
      <trkpt lat="44.48896" lon="0.97061">
        <ele>76.56</ele>
        <time>2016-02-06T16:17:31Z</time>
      </trkpt>
      <trkpt lat="44.48897" lon="0.97056">
        <ele>76.56</ele>
        <time>2016-02-06T16:17:32Z</time>
      </trkpt>
      <trkpt lat="44.489" lon="0.97053">
        <ele>76.08</ele>
        <time>2016-02-06T16:17:33Z</time>
      </trkpt>
      <trkpt lat="44.48904" lon="0.97052">
        <ele>75.6</ele>
        <time>2016-02-06T16:17:34Z</time>
      </trkpt>
      <trkpt lat="44.48909" lon="0.97051">
        <ele>75.6</ele>
        <time>2016-02-06T16:17:35Z</time>
      </trkpt>
      <trkpt lat="44.48943" lon="0.97047">
        <ele>75.6</ele>
        <time>2016-02-06T16:17:45Z</time>
      </trkpt>
      <trkpt lat="44.4899" lon="0.97033">
        <ele>73.2</ele>
        <time>2016-02-06T16:17:57Z</time>
      </trkpt>
      <trkpt lat="44.49009" lon="0.9703">
        <ele>73.2</ele>
        <time>2016-02-06T16:18:05Z</time>
      </trkpt>
      <trkpt lat="44.4901" lon="0.97031">
        <ele>73.2</ele>
        <time>2016-02-06T16:18:10Z</time>
      </trkpt>
      <trkpt lat="44.49044" lon="0.97019">
        <ele>72.72</ele>
        <time>2016-02-06T16:18:20Z</time>
      </trkpt>
      <trkpt lat="44.4909" lon="0.97005">
        <ele>73.2</ele>
        <time>2016-02-06T16:18:30Z</time>
      </trkpt>
      <trkpt lat="44.49095" lon="0.96999">
        <ele>73.2</ele>
        <time>2016-02-06T16:18:32Z</time>
      </trkpt>
      <trkpt lat="44.49095" lon="0.96995">
        <ele>73.68</ele>
        <time>2016-02-06T16:18:33Z</time>
      </trkpt>
      <trkpt lat="44.49094" lon="0.9699">
        <ele>73.68</ele>
        <time>2016-02-06T16:18:34Z</time>
      </trkpt>
      <trkpt lat="44.49092" lon="0.96984">
        <ele>74.16</ele>
        <time>2016-02-06T16:18:35Z</time>
      </trkpt>
      <trkpt lat="44.49074" lon="0.96911">
        <ele>73.68</ele>
        <time>2016-02-06T16:18:46Z</time>
      </trkpt>
      <trkpt lat="44.49052" lon="0.96842">
        <ele>72.72</ele>
        <time>2016-02-06T16:18:57Z</time>
      </trkpt>
      <trkpt lat="44.49043" lon="0.96812">
        <ele>73.68</ele>
        <time>2016-02-06T16:19:05Z</time>
      </trkpt>
      <trkpt lat="44.49044" lon="0.96812">
        <ele>74.16</ele>
        <time>2016-02-06T16:19:17Z</time>
      </trkpt>
      <trkpt lat="44.49043" lon="0.96816">
        <ele>73.2</ele>
        <time>2016-02-06T16:19:26Z</time>
      </trkpt>
      <trkpt lat="44.49044" lon="0.96818">
        <ele>73.2</ele>
        <time>2016-02-06T16:19:27Z</time>
      </trkpt>
      <trkpt lat="44.49044" lon="0.9682">
        <ele>73.2</ele>
        <time>2016-02-06T16:19:28Z</time>
      </trkpt>
      <trkpt lat="44.49055" lon="0.96858">
        <ele>70.31</ele>
        <time>2016-02-06T16:19:37Z</time>
      </trkpt>
      <trkpt lat="44.49077" lon="0.96882">
        <ele>68.87</ele>
        <time>2016-02-06T16:19:45Z</time>
      </trkpt>
      <trkpt lat="44.49115" lon="0.96888">
        <ele>68.87</ele>
        <time>2016-02-06T16:19:56Z</time>
      </trkpt>
      <trkpt lat="44.49124" lon="0.96897">
        <ele>68.87</ele>
        <time>2016-02-06T16:20:03Z</time>
      </trkpt>
      <trkpt lat="44.49126" lon="0.96898">
        <ele>68.87</ele>
        <time>2016-02-06T16:20:04Z</time>
      </trkpt>
      <trkpt lat="44.49128" lon="0.96898">
        <ele>68.87</ele>
        <time>2016-02-06T16:20:05Z</time>
      </trkpt>
      <trkpt lat="44.49131" lon="0.96896">
        <ele>68.87</ele>
        <time>2016-02-06T16:20:06Z</time>
      </trkpt>
      <trkpt lat="44.49133" lon="0.96894">
        <ele>68.39</ele>
        <time>2016-02-06T16:20:07Z</time>
      </trkpt>
      <trkpt lat="44.49137" lon="0.96887">
        <ele>68.87</ele>
        <time>2016-02-06T16:20:13Z</time>
      </trkpt>
      <trkpt lat="44.49136" lon="0.96884">
        <ele>68.87</ele>
        <time>2016-02-06T16:20:14Z</time>
      </trkpt>
      <trkpt lat="44.49134" lon="0.9688">
        <ele>68.87</ele>
        <time>2016-02-06T16:20:15Z</time>
      </trkpt>
      <trkpt lat="44.49132" lon="0.96876">
        <ele>69.35</ele>
        <time>2016-02-06T16:20:16Z</time>
      </trkpt>
      <trkpt lat="44.49129" lon="0.96871">
        <ele>69.35</ele>
        <time>2016-02-06T16:20:17Z</time>
      </trkpt>
      <trkpt lat="44.49126" lon="0.96865">
        <ele>69.35</ele>
        <time>2016-02-06T16:20:18Z</time>
      </trkpt>
      <trkpt lat="44.49095" lon="0.9681">
        <ele>69.83</ele>
        <time>2016-02-06T16:20:28Z</time>
      </trkpt>
      <trkpt lat="44.49092" lon="0.96804">
        <ele>69.83</ele>
        <time>2016-02-06T16:20:29Z</time>
      </trkpt>
      <trkpt lat="44.4909" lon="0.96799">
        <ele>69.83</ele>
        <time>2016-02-06T16:20:30Z</time>
      </trkpt>
      <trkpt lat="44.49064" lon="0.96769">
        <ele>70.79</ele>
        <time>2016-02-06T16:20:41Z</time>
      </trkpt>
      <trkpt lat="44.49063" lon="0.96766">
        <ele>71.27</ele>
        <time>2016-02-06T16:20:55Z</time>
      </trkpt>
      <trkpt lat="44.49049" lon="0.9675">
        <ele>71.76</ele>
        <time>2016-02-06T16:21:00Z</time>
      </trkpt>
      <trkpt lat="44.4904" lon="0.96746">
        <ele>71.76</ele>
        <time>2016-02-06T16:21:02Z</time>
      </trkpt>
      <trkpt lat="44.49037" lon="0.96742">
        <ele>71.76</ele>
        <time>2016-02-06T16:21:03Z</time>
      </trkpt>
      <trkpt lat="44.49035" lon="0.96737">
        <ele>71.76</ele>
        <time>2016-02-06T16:21:04Z</time>
      </trkpt>
      <trkpt lat="44.49012" lon="0.96663">
        <ele>71.27</ele>
        <time>2016-02-06T16:21:16Z</time>
      </trkpt>
      <trkpt lat="44.48971" lon="0.96579">
        <ele>70.79</ele>
        <time>2016-02-06T16:21:31Z</time>
      </trkpt>
      <trkpt lat="44.48962" lon="0.96562">
        <ele>71.27</ele>
        <time>2016-02-06T16:21:34Z</time>
      </trkpt>
      <trkpt lat="44.48933" lon="0.96519">
        <ele>70.79</ele>
        <time>2016-02-06T16:21:42Z</time>
      </trkpt>
      <trkpt lat="44.48926" lon="0.96509">
        <ele>70.31</ele>
        <time>2016-02-06T16:21:44Z</time>
      </trkpt>
      <trkpt lat="44.48922" lon="0.96504">
        <ele>70.31</ele>
        <time>2016-02-06T16:21:45Z</time>
      </trkpt>
      <trkpt lat="44.48919" lon="0.96498">
        <ele>70.31</ele>
        <time>2016-02-06T16:21:46Z</time>
      </trkpt>
      <trkpt lat="44.48896" lon="0.96451">
        <ele>69.35</ele>
        <time>2016-02-06T16:21:54Z</time>
      </trkpt>
      <trkpt lat="44.48895" lon="0.96445">
        <ele>68.87</ele>
        <time>2016-02-06T16:21:55Z</time>
      </trkpt>
      <trkpt lat="44.48895" lon="0.96439">
        <ele>68.39</ele>
        <time>2016-02-06T16:21:56Z</time>
      </trkpt>
      <trkpt lat="44.48898" lon="0.96433">
        <ele>67.91</ele>
        <time>2016-02-06T16:21:57Z</time>
      </trkpt>
      <trkpt lat="44.48902" lon="0.96428">
        <ele>67.43</ele>
        <time>2016-02-06T16:21:58Z</time>
      </trkpt>
      <trkpt lat="44.48907" lon="0.96422">
        <ele>66.95</ele>
        <time>2016-02-06T16:21:59Z</time>
      </trkpt>
      <trkpt lat="44.48953" lon="0.96366">
        <ele>65.03</ele>
        <time>2016-02-06T16:22:09Z</time>
      </trkpt>
      <trkpt lat="44.48963" lon="0.96357">
        <ele>64.55</ele>
        <time>2016-02-06T16:22:11Z</time>
      </trkpt>
      <trkpt lat="44.48967" lon="0.9635">
        <ele>64.55</ele>
        <time>2016-02-06T16:22:12Z</time>
      </trkpt>
      <trkpt lat="44.48972" lon="0.96343">
        <ele>64.07</ele>
        <time>2016-02-06T16:22:13Z</time>
      </trkpt>
      <trkpt lat="44.48972" lon="0.96307">
        <ele>62.14</ele>
        <time>2016-02-06T16:22:19Z</time>
      </trkpt>
      <trkpt lat="44.48969" lon="0.96304">
        <ele>62.14</ele>
        <time>2016-02-06T16:22:20Z</time>
      </trkpt>
      <trkpt lat="44.48962" lon="0.96295">
        <ele>61.18</ele>
        <time>2016-02-06T16:22:22Z</time>
      </trkpt>
      <trkpt lat="44.48946" lon="0.96291">
        <ele>61.18</ele>
        <time>2016-02-06T16:22:26Z</time>
      </trkpt>
      <trkpt lat="44.48923" lon="0.9626">
        <ele>63.1</ele>
        <time>2016-02-06T16:22:37Z</time>
      </trkpt>
      <trkpt lat="44.48907" lon="0.96247">
        <ele>64.07</ele>
        <time>2016-02-06T16:22:42Z</time>
      </trkpt>
      <trkpt lat="44.48902" lon="0.96241">
        <ele>65.03</ele>
        <time>2016-02-06T16:22:44Z</time>
      </trkpt>
      <trkpt lat="44.48881" lon="0.96223">
        <ele>65.51</ele>
        <time>2016-02-06T16:22:50Z</time>
      </trkpt>
      <trkpt lat="44.4885" lon="0.96215">
        <ele>67.91</ele>
        <time>2016-02-06T16:22:59Z</time>
      </trkpt>
      <trkpt lat="44.48842" lon="0.96202">
        <ele>67.91</ele>
        <time>2016-02-06T16:23:03Z</time>
      </trkpt>
      <trkpt lat="44.48803" lon="0.96148">
        <ele>66.95</ele>
        <time>2016-02-06T16:23:18Z</time>
      </trkpt>
      <trkpt lat="44.48777" lon="0.9612">
        <ele>68.87</ele>
        <time>2016-02-06T16:23:28Z</time>
      </trkpt>
      <trkpt lat="44.48767" lon="0.96112">
        <ele>69.83</ele>
        <time>2016-02-06T16:23:32Z</time>
      </trkpt>
      <trkpt lat="44.48757" lon="0.96113">
        <ele>69.83</ele>
        <time>2016-02-06T16:23:35Z</time>
      </trkpt>
      <trkpt lat="44.48741" lon="0.96101">
        <ele>71.76</ele>
        <time>2016-02-06T16:23:41Z</time>
      </trkpt>
      <trkpt lat="44.48729" lon="0.9608">
        <ele>72.24</ele>
        <time>2016-02-06T16:23:47Z</time>
      </trkpt>
      <trkpt lat="44.48726" lon="0.96055">
        <ele>69.83</ele>
        <time>2016-02-06T16:23:54Z</time>
      </trkpt>
      <trkpt lat="44.487" lon="0.96011">
        <ele>70.31</ele>
        <time>2016-02-06T16:24:04Z</time>
      </trkpt>
      <trkpt lat="44.48675" lon="0.95979">
        <ele>70.31</ele>
        <time>2016-02-06T16:24:12Z</time>
      </trkpt>
      <trkpt lat="44.48628" lon="0.95932">
        <ele>71.27</ele>
        <time>2016-02-06T16:24:25Z</time>
      </trkpt>
      <trkpt lat="44.48597" lon="0.95885">
        <ele>72.72</ele>
        <time>2016-02-06T16:24:36Z</time>
      </trkpt>
      <trkpt lat="44.48593" lon="0.95881">
        <ele>72.72</ele>
        <time>2016-02-06T16:24:37Z</time>
      </trkpt>
      <trkpt lat="44.48582" lon="0.95865">
        <ele>72.72</ele>
        <time>2016-02-06T16:24:41Z</time>
      </trkpt>
      <trkpt lat="44.48563" lon="0.95848">
        <ele>73.2</ele>
        <time>2016-02-06T16:24:46Z</time>
      </trkpt>
      <trkpt lat="44.48555" lon="0.95841">
        <ele>73.2</ele>
        <time>2016-02-06T16:24:48Z</time>
      </trkpt>
      <trkpt lat="44.48527" lon="0.95798">
        <ele>73.2</ele>
        <time>2016-02-06T16:24:58Z</time>
      </trkpt>
      <trkpt lat="44.48502" lon="0.95767">
        <ele>73.68</ele>
        <time>2016-02-06T16:25:07Z</time>
      </trkpt>
      <trkpt lat="44.48484" lon="0.95731">
        <ele>73.68</ele>
        <time>2016-02-06T16:25:15Z</time>
      </trkpt>
      <trkpt lat="44.4845" lon="0.95669">
        <ele>67.43</ele>
        <time>2016-02-06T16:25:24Z</time>
      </trkpt>
      <trkpt lat="44.48444" lon="0.95655">
        <ele>66.47</ele>
        <time>2016-02-06T16:25:26Z</time>
      </trkpt>
      <trkpt lat="44.48428" lon="0.95623">
        <ele>64.55</ele>
        <time>2016-02-06T16:25:31Z</time>
      </trkpt>
      <trkpt lat="44.48411" lon="0.95563">
        <ele>67.91</ele>
        <time>2016-02-06T16:25:42Z</time>
      </trkpt>
      <trkpt lat="44.48397" lon="0.95508">
        <ele>71.76</ele>
        <time>2016-02-06T16:25:55Z</time>
      </trkpt>
      <trkpt lat="44.4838" lon="0.95462">
        <ele>73.2</ele>
        <time>2016-02-06T16:26:06Z</time>
      </trkpt>
      <trkpt lat="44.48368" lon="0.95421">
        <ele>72.24</ele>
        <time>2016-02-06T16:26:15Z</time>
      </trkpt>
      <trkpt lat="44.48351" lon="0.95385">
        <ele>70.79</ele>
        <time>2016-02-06T16:26:25Z</time>
      </trkpt>
      <trkpt lat="44.4834" lon="0.95371">
        <ele>71.76</ele>
        <time>2016-02-06T16:26:35Z</time>
      </trkpt>
      <trkpt lat="44.48338" lon="0.95368">
        <ele>71.76</ele>
        <time>2016-02-06T16:26:39Z</time>
      </trkpt>
      <trkpt lat="44.48331" lon="0.95359">
        <ele>70.79</ele>
        <time>2016-02-06T16:26:49Z</time>
      </trkpt>
      <trkpt lat="44.48324" lon="0.95347">
        <ele>70.31</ele>
        <time>2016-02-06T16:26:56Z</time>
      </trkpt>
      <trkpt lat="44.48302" lon="0.95328">
        <ele>71.76</ele>
        <time>2016-02-06T16:27:09Z</time>
      </trkpt>
      <trkpt lat="44.48298" lon="0.95324">
        <ele>72.72</ele>
        <time>2016-02-06T16:27:11Z</time>
      </trkpt>
      <trkpt lat="44.48295" lon="0.95316">
        <ele>74.16</ele>
        <time>2016-02-06T16:27:17Z</time>
      </trkpt>
      <trkpt lat="44.48284" lon="0.95298">
        <ele>75.6</ele>
        <time>2016-02-06T16:27:26Z</time>
      </trkpt>
      <trkpt lat="44.48252" lon="0.95253">
        <ele>75.6</ele>
        <time>2016-02-06T16:27:40Z</time>
      </trkpt>
      <trkpt lat="44.48225" lon="0.95211">
        <ele>74.16</ele>
        <time>2016-02-06T16:27:51Z</time>
      </trkpt>
      <trkpt lat="44.48213" lon="0.95199">
        <ele>74.64</ele>
        <time>2016-02-06T16:27:55Z</time>
      </trkpt>
      <trkpt lat="44.48206" lon="0.95184">
        <ele>73.68</ele>
        <time>2016-02-06T16:28:00Z</time>
      </trkpt>
      <trkpt lat="44.4819" lon="0.95152">
        <ele>75.12</ele>
        <time>2016-02-06T16:28:08Z</time>
      </trkpt>
      <trkpt lat="44.48178" lon="0.95128">
        <ele>76.08</ele>
        <time>2016-02-06T16:28:14Z</time>
      </trkpt>
      <trkpt lat="44.48145" lon="0.95075">
        <ele>74.16</ele>
        <time>2016-02-06T16:28:28Z</time>
      </trkpt>
      <trkpt lat="44.48125" lon="0.95046">
        <ele>67.91</ele>
        <time>2016-02-06T16:28:39Z</time>
      </trkpt>
      <trkpt lat="44.4811" lon="0.95002">
        <ele>72.24</ele>
        <time>2016-02-06T16:28:51Z</time>
      </trkpt>
      <trkpt lat="44.48102" lon="0.94982">
        <ele>71.76</ele>
        <time>2016-02-06T16:28:56Z</time>
      </trkpt>
      <trkpt lat="44.48094" lon="0.94959">
        <ele>70.79</ele>
        <time>2016-02-06T16:29:00Z</time>
      </trkpt>
      <trkpt lat="44.48074" lon="0.94912">
        <ele>72.24</ele>
        <time>2016-02-06T16:29:13Z</time>
      </trkpt>
      <trkpt lat="44.48073" lon="0.94909">
        <ele>72.24</ele>
        <time>2016-02-06T16:29:14Z</time>
      </trkpt>
      <trkpt lat="44.48067" lon="0.94891">
        <ele>71.27</ele>
        <time>2016-02-06T16:29:18Z</time>
      </trkpt>
      <trkpt lat="44.48048" lon="0.94852">
        <ele>70.79</ele>
        <time>2016-02-06T16:29:25Z</time>
      </trkpt>
      <trkpt lat="44.48041" lon="0.94827">
        <ele>69.83</ele>
        <time>2016-02-06T16:29:29Z</time>
      </trkpt>
      <trkpt lat="44.48027" lon="0.94768">
        <ele>70.31</ele>
        <time>2016-02-06T16:29:39Z</time>
      </trkpt>
      <trkpt lat="44.48023" lon="0.94765">
        <ele>70.79</ele>
        <time>2016-02-06T16:29:40Z</time>
      </trkpt>
      <trkpt lat="44.48021" lon="0.94763">
        <ele>71.27</ele>
        <time>2016-02-06T16:29:41Z</time>
      </trkpt>
      <trkpt lat="44.48018" lon="0.94761">
        <ele>71.76</ele>
        <time>2016-02-06T16:29:42Z</time>
      </trkpt>
      <trkpt lat="44.48016" lon="0.9476">
        <ele>71.76</ele>
        <time>2016-02-06T16:29:43Z</time>
      </trkpt>
      <trkpt lat="44.48013" lon="0.94759">
        <ele>72.24</ele>
        <time>2016-02-06T16:29:44Z</time>
      </trkpt>
      <trkpt lat="44.48011" lon="0.94754">
        <ele>73.68</ele>
        <time>2016-02-06T16:29:54Z</time>
      </trkpt>
      <trkpt lat="44.48011" lon="0.94753">
        <ele>74.16</ele>
        <time>2016-02-06T16:30:17Z</time>
      </trkpt>
      <trkpt lat="44.48011" lon="0.94751">
        <ele>73.68</ele>
        <time>2016-02-06T16:30:45Z</time>
      </trkpt>
      <trkpt lat="44.48011" lon="0.9475">
        <ele>73.2</ele>
        <time>2016-02-06T16:31:11Z</time>
      </trkpt>
      <trkpt lat="44.48012" lon="0.9475">
        <ele>73.2</ele>
        <time>2016-02-06T16:31:39Z</time>
      </trkpt>
      <trkpt lat="44.48011" lon="0.94748">
        <ele>73.2</ele>
        <time>2016-02-06T16:31:40Z</time>
      </trkpt>
      <trkpt lat="44.4801" lon="0.94746">
        <ele>73.68</ele>
        <time>2016-02-06T16:31:41Z</time>
      </trkpt>
      <trkpt lat="44.48009" lon="0.94743">
        <ele>73.68</ele>
        <time>2016-02-06T16:31:42Z</time>
      </trkpt>
      <trkpt lat="44.48008" lon="0.9474">
        <ele>74.16</ele>
        <time>2016-02-06T16:31:43Z</time>
      </trkpt>
      <trkpt lat="44.48007" lon="0.94737">
        <ele>73.68</ele>
        <time>2016-02-06T16:31:44Z</time>
      </trkpt>
      <trkpt lat="44.48005" lon="0.94734">
        <ele>73.68</ele>
        <time>2016-02-06T16:31:45Z</time>
      </trkpt>
      <trkpt lat="44.47993" lon="0.94706">
        <ele>74.64</ele>
        <time>2016-02-06T16:31:56Z</time>
      </trkpt>
      <trkpt lat="44.47988" lon="0.94692">
        <ele>75.12</ele>
        <time>2016-02-06T16:32:00Z</time>
      </trkpt>
      <trkpt lat="44.47985" lon="0.94688">
        <ele>75.12</ele>
        <time>2016-02-06T16:32:01Z</time>
      </trkpt>
      <trkpt lat="44.47966" lon="0.94636">
        <ele>74.16</ele>
        <time>2016-02-06T16:32:13Z</time>
      </trkpt>
      <trkpt lat="44.47945" lon="0.94563">
        <ele>73.2</ele>
        <time>2016-02-06T16:32:26Z</time>
      </trkpt>
      <trkpt lat="44.47944" lon="0.94557">
        <ele>73.2</ele>
        <time>2016-02-06T16:32:27Z</time>
      </trkpt>
      <trkpt lat="44.47928" lon="0.94509">
        <ele>71.76</ele>
        <time>2016-02-06T16:32:35Z</time>
      </trkpt>
      <trkpt lat="44.47917" lon="0.9448">
        <ele>69.83</ele>
        <time>2016-02-06T16:32:40Z</time>
      </trkpt>
      <trkpt lat="44.47913" lon="0.94467">
        <ele>69.83</ele>
        <time>2016-02-06T16:32:42Z</time>
      </trkpt>
      <trkpt lat="44.47906" lon="0.94443">
        <ele>68.87</ele>
        <time>2016-02-06T16:32:46Z</time>
      </trkpt>
      <trkpt lat="44.47881" lon="0.94372">
        <ele>67.91</ele>
        <time>2016-02-06T16:32:58Z</time>
      </trkpt>
      <trkpt lat="44.47872" lon="0.94346">
        <ele>67.43</ele>
        <time>2016-02-06T16:33:02Z</time>
      </trkpt>
      <trkpt lat="44.47848" lon="0.94291">
        <ele>66.47</ele>
        <time>2016-02-06T16:33:12Z</time>
      </trkpt>
      <trkpt lat="44.4784" lon="0.94269">
        <ele>65.99</ele>
        <time>2016-02-06T16:33:16Z</time>
      </trkpt>
      <trkpt lat="44.47831" lon="0.94242">
        <ele>65.03</ele>
        <time>2016-02-06T16:33:21Z</time>
      </trkpt>
      <trkpt lat="44.47803" lon="0.94203">
        <ele>64.07</ele>
        <time>2016-02-06T16:33:32Z</time>
      </trkpt>
      <trkpt lat="44.47801" lon="0.94197">
        <ele>64.07</ele>
        <time>2016-02-06T16:33:33Z</time>
      </trkpt>
      <trkpt lat="44.47797" lon="0.94186">
        <ele>64.55</ele>
        <time>2016-02-06T16:33:35Z</time>
      </trkpt>
      <trkpt lat="44.47789" lon="0.94169">
        <ele>64.55</ele>
        <time>2016-02-06T16:33:38Z</time>
      </trkpt>
      <trkpt lat="44.47743" lon="0.94118">
        <ele>63.1</ele>
        <time>2016-02-06T16:33:50Z</time>
      </trkpt>
      <trkpt lat="44.47736" lon="0.94111">
        <ele>62.62</ele>
        <time>2016-02-06T16:33:52Z</time>
      </trkpt>
      <trkpt lat="44.47721" lon="0.94099">
        <ele>62.14</ele>
        <time>2016-02-06T16:33:56Z</time>
      </trkpt>
      <trkpt lat="44.47706" lon="0.94086">
        <ele>61.66</ele>
        <time>2016-02-06T16:34:00Z</time>
      </trkpt>
      <trkpt lat="44.47667" lon="0.94054">
        <ele>61.18</ele>
        <time>2016-02-06T16:34:12Z</time>
      </trkpt>
      <trkpt lat="44.47615" lon="0.94019">
        <ele>60.22</ele>
        <time>2016-02-06T16:34:27Z</time>
      </trkpt>
      <trkpt lat="44.47604" lon="0.94009">
        <ele>59.74</ele>
        <time>2016-02-06T16:34:30Z</time>
      </trkpt>
      <trkpt lat="44.47551" lon="0.93964">
        <ele>59.74</ele>
        <time>2016-02-06T16:34:43Z</time>
      </trkpt>
      <trkpt lat="44.47546" lon="0.93962">
        <ele>60.22</ele>
        <time>2016-02-06T16:34:44Z</time>
      </trkpt>
      <trkpt lat="44.47542" lon="0.93962">
        <ele>60.22</ele>
        <time>2016-02-06T16:34:45Z</time>
      </trkpt>
      <trkpt lat="44.47533" lon="0.9396">
        <ele>60.22</ele>
        <time>2016-02-06T16:34:47Z</time>
      </trkpt>
      <trkpt lat="44.47528" lon="0.93959">
        <ele>60.22</ele>
        <time>2016-02-06T16:34:48Z</time>
      </trkpt>
      <trkpt lat="44.47525" lon="0.93957">
        <ele>60.7</ele>
        <time>2016-02-06T16:34:49Z</time>
      </trkpt>
      <trkpt lat="44.47521" lon="0.93954">
        <ele>61.18</ele>
        <time>2016-02-06T16:34:50Z</time>
      </trkpt>
      <trkpt lat="44.47519" lon="0.93951">
        <ele>61.18</ele>
        <time>2016-02-06T16:34:51Z</time>
      </trkpt>
      <trkpt lat="44.47516" lon="0.93948">
        <ele>61.66</ele>
        <time>2016-02-06T16:34:52Z</time>
      </trkpt>
      <trkpt lat="44.47515" lon="0.93944">
        <ele>62.14</ele>
        <time>2016-02-06T16:34:53Z</time>
      </trkpt>
      <trkpt lat="44.47515" lon="0.9394">
        <ele>62.62</ele>
        <time>2016-02-06T16:34:54Z</time>
      </trkpt>
      <trkpt lat="44.47514" lon="0.93936">
        <ele>63.1</ele>
        <time>2016-02-06T16:34:55Z</time>
      </trkpt>
      <trkpt lat="44.47512" lon="0.93931">
        <ele>63.1</ele>
        <time>2016-02-06T16:34:56Z</time>
      </trkpt>
      <trkpt lat="44.4751" lon="0.93926">
        <ele>63.1</ele>
        <time>2016-02-06T16:34:57Z</time>
      </trkpt>
      <trkpt lat="44.47507" lon="0.9392">
        <ele>63.1</ele>
        <time>2016-02-06T16:34:58Z</time>
      </trkpt>
      <trkpt lat="44.47504" lon="0.93915">
        <ele>63.1</ele>
        <time>2016-02-06T16:34:59Z</time>
      </trkpt>
      <trkpt lat="44.47502" lon="0.93909">
        <ele>63.1</ele>
        <time>2016-02-06T16:35:00Z</time>
      </trkpt>
      <trkpt lat="44.475" lon="0.93905">
        <ele>63.1</ele>
        <time>2016-02-06T16:35:01Z</time>
      </trkpt>
      <trkpt lat="44.47496" lon="0.93901">
        <ele>62.62</ele>
        <time>2016-02-06T16:35:02Z</time>
      </trkpt>
      <trkpt lat="44.47493" lon="0.93898">
        <ele>62.62</ele>
        <time>2016-02-06T16:35:03Z</time>
      </trkpt>
      <trkpt lat="44.4749" lon="0.93897">
        <ele>62.14</ele>
        <time>2016-02-06T16:35:04Z</time>
      </trkpt>
      <trkpt lat="44.47485" lon="0.93898">
        <ele>62.14</ele>
        <time>2016-02-06T16:35:05Z</time>
      </trkpt>
      <trkpt lat="44.47481" lon="0.93901">
        <ele>62.14</ele>
        <time>2016-02-06T16:35:06Z</time>
      </trkpt>
      <trkpt lat="44.47477" lon="0.93903">
        <ele>62.14</ele>
        <time>2016-02-06T16:35:07Z</time>
      </trkpt>
      <trkpt lat="44.47472" lon="0.93906">
        <ele>62.14</ele>
        <time>2016-02-06T16:35:08Z</time>
      </trkpt>
      <trkpt lat="44.47448" lon="0.93921">
        <ele>63.1</ele>
        <time>2016-02-06T16:35:14Z</time>
      </trkpt>
      <trkpt lat="44.47445" lon="0.93924">
        <ele>63.58</ele>
        <time>2016-02-06T16:35:15Z</time>
      </trkpt>
      <trkpt lat="44.47441" lon="0.93926">
        <ele>63.58</ele>
        <time>2016-02-06T16:35:16Z</time>
      </trkpt>
      <trkpt lat="44.47404" lon="0.93953">
        <ele>68.87</ele>
        <time>2016-02-06T16:35:27Z</time>
      </trkpt>
      <trkpt lat="44.47401" lon="0.93955">
        <ele>69.35</ele>
        <time>2016-02-06T16:35:28Z</time>
      </trkpt>
      <trkpt lat="44.47396" lon="0.93956">
        <ele>71.76</ele>
        <time>2016-02-06T16:35:32Z</time>
      </trkpt>
      <trkpt lat="44.47396" lon="0.93953">
        <ele>72.24</ele>
        <time>2016-02-06T16:35:33Z</time>
      </trkpt>
      <trkpt lat="44.47396" lon="0.9395">
        <ele>72.72</ele>
        <time>2016-02-06T16:35:34Z</time>
      </trkpt>
      <trkpt lat="44.47396" lon="0.93946">
        <ele>72.72</ele>
        <time>2016-02-06T16:35:35Z</time>
      </trkpt>
      <trkpt lat="44.47395" lon="0.93941">
        <ele>73.68</ele>
        <time>2016-02-06T16:35:36Z</time>
      </trkpt>
      <trkpt lat="44.47393" lon="0.93937">
        <ele>74.16</ele>
        <time>2016-02-06T16:35:37Z</time>
      </trkpt>
      <trkpt lat="44.47386" lon="0.93892">
        <ele>76.08</ele>
        <time>2016-02-06T16:35:46Z</time>
      </trkpt>
      <trkpt lat="44.47384" lon="0.93885">
        <ele>76.08</ele>
        <time>2016-02-06T16:35:47Z</time>
      </trkpt>
      <trkpt lat="44.47383" lon="0.93878">
        <ele>76.08</ele>
        <time>2016-02-06T16:35:48Z</time>
      </trkpt>
      <trkpt lat="44.47379" lon="0.93865">
        <ele>75.6</ele>
        <time>2016-02-06T16:35:50Z</time>
      </trkpt>
      <trkpt lat="44.47356" lon="0.93815">
        <ele>75.12</ele>
        <time>2016-02-06T16:36:01Z</time>
      </trkpt>
      <trkpt lat="44.47341" lon="0.9376">
        <ele>79.93</ele>
        <time>2016-02-06T16:36:12Z</time>
      </trkpt>
      <trkpt lat="44.47338" lon="0.93755">
        <ele>79.93</ele>
        <time>2016-02-06T16:36:13Z</time>
      </trkpt>
      <trkpt lat="44.47335" lon="0.93751">
        <ele>79.93</ele>
        <time>2016-02-06T16:36:14Z</time>
      </trkpt>
      <trkpt lat="44.47315" lon="0.93718">
        <ele>80.41</ele>
        <time>2016-02-06T16:36:21Z</time>
      </trkpt>
      <trkpt lat="44.47301" lon="0.93683">
        <ele>78.97</ele>
        <time>2016-02-06T16:36:27Z</time>
      </trkpt>
      <trkpt lat="44.47298" lon="0.9368">
        <ele>78.97</ele>
        <time>2016-02-06T16:36:28Z</time>
      </trkpt>
      <trkpt lat="44.47296" lon="0.93676">
        <ele>78.48</ele>
        <time>2016-02-06T16:36:29Z</time>
      </trkpt>
      <trkpt lat="44.47294" lon="0.93672">
        <ele>78.48</ele>
        <time>2016-02-06T16:36:30Z</time>
      </trkpt>
      <trkpt lat="44.47292" lon="0.93666">
        <ele>78.48</ele>
        <time>2016-02-06T16:36:31Z</time>
      </trkpt>
      <trkpt lat="44.47291" lon="0.9366">
        <ele>78.48</ele>
        <time>2016-02-06T16:36:32Z</time>
      </trkpt>
      <trkpt lat="44.47288" lon="0.93654">
        <ele>78</ele>
        <time>2016-02-06T16:36:33Z</time>
      </trkpt>
      <trkpt lat="44.47284" lon="0.93649">
        <ele>78</ele>
        <time>2016-02-06T16:36:34Z</time>
      </trkpt>
      <trkpt lat="44.4728" lon="0.93645">
        <ele>77.52</ele>
        <time>2016-02-06T16:36:35Z</time>
      </trkpt>
      <trkpt lat="44.4727" lon="0.93636">
        <ele>76.56</ele>
        <time>2016-02-06T16:36:37Z</time>
      </trkpt>
      <trkpt lat="44.4726" lon="0.93627">
        <ele>75.12</ele>
        <time>2016-02-06T16:36:39Z</time>
      </trkpt>
      <trkpt lat="44.47248" lon="0.93607">
        <ele>74.64</ele>
        <time>2016-02-06T16:36:43Z</time>
      </trkpt>
      <trkpt lat="44.47235" lon="0.93575">
        <ele>75.12</ele>
        <time>2016-02-06T16:36:49Z</time>
      </trkpt>
      <trkpt lat="44.47232" lon="0.93564">
        <ele>75.12</ele>
        <time>2016-02-06T16:36:51Z</time>
      </trkpt>
      <trkpt lat="44.47232" lon="0.93558">
        <ele>75.12</ele>
        <time>2016-02-06T16:36:52Z</time>
      </trkpt>
      <trkpt lat="44.47232" lon="0.93552">
        <ele>75.12</ele>
        <time>2016-02-06T16:36:53Z</time>
      </trkpt>
      <trkpt lat="44.47232" lon="0.93545">
        <ele>75.6</ele>
        <time>2016-02-06T16:36:54Z</time>
      </trkpt>
      <trkpt lat="44.47232" lon="0.93539">
        <ele>75.6</ele>
        <time>2016-02-06T16:36:55Z</time>
      </trkpt>
      <trkpt lat="44.47232" lon="0.93526">
        <ele>76.08</ele>
        <time>2016-02-06T16:36:57Z</time>
      </trkpt>
      <trkpt lat="44.47229" lon="0.93499">
        <ele>75.6</ele>
        <time>2016-02-06T16:37:01Z</time>
      </trkpt>
      <trkpt lat="44.47228" lon="0.93493">
        <ele>75.6</ele>
        <time>2016-02-06T16:37:02Z</time>
      </trkpt>
      <trkpt lat="44.47228" lon="0.93486">
        <ele>76.08</ele>
        <time>2016-02-06T16:37:03Z</time>
      </trkpt>
      <trkpt lat="44.47226" lon="0.9348">
        <ele>75.6</ele>
        <time>2016-02-06T16:37:04Z</time>
      </trkpt>
      <trkpt lat="44.47225" lon="0.93473">
        <ele>75.6</ele>
        <time>2016-02-06T16:37:05Z</time>
      </trkpt>
      <trkpt lat="44.47223" lon="0.93468">
        <ele>75.12</ele>
        <time>2016-02-06T16:37:06Z</time>
      </trkpt>
      <trkpt lat="44.47221" lon="0.93462">
        <ele>75.12</ele>
        <time>2016-02-06T16:37:07Z</time>
      </trkpt>
      <trkpt lat="44.4722" lon="0.93457">
        <ele>75.12</ele>
        <time>2016-02-06T16:37:08Z</time>
      </trkpt>
      <trkpt lat="44.47218" lon="0.93452">
        <ele>75.12</ele>
        <time>2016-02-06T16:37:09Z</time>
      </trkpt>
      <trkpt lat="44.47217" lon="0.93447">
        <ele>74.64</ele>
        <time>2016-02-06T16:37:10Z</time>
      </trkpt>
      <trkpt lat="44.47215" lon="0.93443">
        <ele>74.64</ele>
        <time>2016-02-06T16:37:11Z</time>
      </trkpt>
      <trkpt lat="44.47214" lon="0.93439">
        <ele>74.64</ele>
        <time>2016-02-06T16:37:12Z</time>
      </trkpt>
      <trkpt lat="44.47213" lon="0.93435">
        <ele>74.64</ele>
        <time>2016-02-06T16:37:13Z</time>
      </trkpt>
      <trkpt lat="44.4721" lon="0.93427">
        <ele>73.68</ele>
        <time>2016-02-06T16:37:21Z</time>
      </trkpt>
      <trkpt lat="44.47208" lon="0.93427">
        <ele>72.24</ele>
        <time>2016-02-06T16:38:01Z</time>
      </trkpt>
    </trkseg>
  </trk>
</gpx>